[[{"header":{"parameterUnit":"m.s-1","parameterCategory":1,"la1":30.6,"la2":29.2853,"lo1":-89.7004,"lo2":-87.6739,"dy":0.0162,"dx":0.0183,"nx":112,"ny":82,"refTime":"2026-03-08T00:00:00:Z","depth":0,"parameterNumber":2,"parameterNumberName":"U-component_of_WINDS"},"data":[0.0,0.0,0.0,0.0,0.0,0.0,0.0,0.0,0.0,0.0,0.0,0.0,0.0,0.0,0.0,0.0,0.0,0.0,0.0,0.0,0.0,0.0,0.0,0.0,0.0,0.0,0.0,0.0,0.0,0.0,0.0,0.0,0.0,0.0,0.0,0.0,0.0,0.0,0.0,0.0,0.0,0.0,0.0,0.0,0.0,0.0,0.0,0.0,0.0,0.0,0.0,0.0,0.0,0.0,0.0,0.0,0.0,0.0,0.0,0.0,0.0,0.0,0.0,0.0,0.0,0.0,0.0,0.0,0.0,0.0,0.0,0.0,0.0,0.0,0.0,0.0,0.0,0.0,0.0,0.0,0.0,0.0,0.0,0.0,0.0,0.0,0.0,0.0,0.0,0.0,4.9136,5.4499,6.1545,6.6402,6.7767,6.6182,6.1808,5.4064,0.0,0.0,0.0,0.0,0.0,0.0,0.0,0.0,0.0,0.0,0.0,0.0,0.0,0.0,0.0,0.0,0.0,0.0,0.0,0.0,0.0,0.0,0.0,0.0,0.0,0.0,0.0,0.0,0.0,0.0,0.0,0.0,0.0,0.0,0.0,0.0,0.0,0.0,0.0,0.0,0.0,0.0,0.0,0.0,0.0,0.0,0.0,0.0,0.0,0.0,0.0,0.0,0.0,0.0,0.0,0.0,0.0,0.0,0.0,0.0,0.0,0.0,0.0,0.0,0.0,0.0,0.0,0.0,0.0,0.0,0.0,0.0,0.0,0.0,0.0,0.0,0.0,0.0,0.0,0.0,0.0,0.0,0.0,0.0,0.0,0.0,0.0,0.0,0.0,0.0,0.0,0.0,0.0,0.0,0.0,0.0,0.0,0.0,0.0,0.0,0.0,0.0,0.0,0.0,5.1301,6.2279,6.6396,6.8451,6.8708,6.5999,6.1673,5.5616,0.0,0.0,0.0,0.0,0.0,0.0,0.0,0.0,0.0,0.0,0.0,0.0,0.0,0.0,0.0,0.0,0.0,0.0,0.0,0.0,0.0,0.0,0.0,0.0,0.0,0.0,0.0,0.0,0.0,0.0,0.0,0.0,0.0,0.0,0.0,0.0,0.0,0.0,0.0,0.0,0.0,0.0,0.0,0.0,0.0,0.0,0.0,0.0,0.0,0.0,0.0,0.0,0.0,0.0,0.0,0.0,0.0,0.0,0.0,0.0,0.0,0.0,0.0,0.0,0.0,0.0,0.0,0.0,0.0,0.0,0.0,0.0,0.0,0.0,0.0,0.0,0.0,0.0,0.0,0.0,0.0,0.0,0.0,0.0,0.0,0.0,0.0,0.0,0.0,0.0,0.0,0.0,0.0,0.0,0.0,0.0,0.0,0.0,0.0,0.0,0.0,0.0,0.0,5.0205,5.6003,6.5595,6.8385,6.9559,6.9559,6.6586,6.2144,5.5989,5.1808,0.0,0.0,0.0,0.0,0.0,0.0,0.0,0.0,0.0,0.0,0.0,0.0,0.0,0.0,0.0,0.0,0.0,0.0,0.0,0.0,0.0,0.0,0.0,0.0,0.0,0.0,0.0,0.0,0.0,0.0,0.0,0.0,0.0,0.0,0.0,0.0,0.0,0.0,0.0,0.0,0.0,0.0,0.0,0.0,0.0,0.0,0.0,0.0,0.0,0.0,0.0,0.0,0.0,0.0,0.0,0.0,0.0,0.0,0.0,0.0,0.0,0.0,0.0,0.0,0.0,0.0,0.0,0.0,0.0,0.0,0.0,0.0,0.0,0.0,0.0,0.0,0.0,0.0,0.0,0.0,0.0,0.0,0.0,0.0,0.0,0.0,0.0,0.0,0.0,0.0,0.0,0.0,0.0,0.0,0.0,0.0,0.0,0.0,0.0,0.0,0.0,0.0,5.6413,6.078,6.7554,6.9522,7.0293,7.0117,6.6799,6.2101,5.5989,5.1106,0.0,0.0,0.0,0.0,0.0,0.0,0.0,0.0,0.0,0.0,0.0,0.0,0.0,0.0,0.0,0.0,0.0,0.0,0.0,0.0,0.0,0.0,0.0,0.0,0.0,0.0,0.0,0.0,0.0,0.0,0.0,0.0,0.0,0.0,0.0,0.0,0.0,0.0,0.0,0.0,0.0,0.0,0.0,0.0,0.0,0.0,0.0,0.0,0.0,0.0,0.0,0.0,0.0,0.0,0.0,0.0,0.0,0.0,0.0,0.0,0.0,0.0,0.0,0.0,0.0,0.0,0.0,0.0,0.0,0.0,0.0,0.0,0.0,0.0,0.0,0.0,0.0,0.0,0.0,0.0,0.0,0.0,0.0,0.0,0.0,0.0,0.0,0.0,0.0,0.0,0.0,0.0,0.0,0.0,0.0,0.0,0.0,0.0,0.0,0.0,0.0,0.0,5.8138,6.434,6.9382,7.069,7.091,7.0146,6.5735,6.0854,5.5915,4.8967,0.0,0.0,0.0,0.0,0.0,0.0,0.0,0.0,0.0,0.0,0.0,0.0,0.0,0.0,0.0,0.0,0.0,0.0,0.0,0.0,0.0,0.0,0.0,0.0,0.0,0.0,0.0,0.0,0.0,0.0,0.0,0.0,0.0,0.0,0.0,0.0,0.0,0.0,0.0,0.0,0.0,0.0,0.0,0.0,0.0,0.0,0.0,0.0,0.0,0.0,0.0,0.0,0.0,0.0,0.0,0.0,0.0,0.0,0.0,0.0,0.0,0.0,0.0,0.0,0.0,0.0,0.0,0.0,0.0,0.0,0.0,0.0,0.0,0.0,0.0,0.0,0.0,0.0,0.0,0.0,0.0,0.0,0.0,0.0,0.0,0.0,0.0,0.0,0.0,0.0,0.0,0.0,0.0,0.0,0.0,0.0,0.0,0.0,0.0,0.0,0.0,0.0,5.7535,6.357,0.0,7.1284,7.1311,6.9455,6.7172,6.2524,5.471,0.0,0.0,0.0,0.0,0.0,0.0,0.0,0.0,0.0,0.0,0.0,0.0,0.0,0.0,0.0,0.0,0.0,0.0,0.0,0.0,0.0,0.0,0.0,0.0,0.0,0.0,0.0,0.0,0.0,0.0,0.0,0.0,0.0,0.0,0.0,0.0,0.0,0.0,0.0,0.0,0.0,0.0,0.0,0.0,0.0,0.0,0.0,0.0,0.0,0.0,0.0,0.0,0.0,0.0,0.0,0.0,0.0,0.0,0.0,0.0,0.0,0.0,0.0,0.0,0.0,0.0,0.0,0.0,0.0,0.0,0.0,0.0,0.0,0.0,0.0,0.0,0.0,0.0,0.0,0.0,0.0,0.0,0.0,0.0,0.0,0.0,0.0,0.0,0.0,0.0,0.0,0.0,0.0,0.0,0.0,0.0,0.0,0.0,0.0,0.0,0.0,0.0,5.1448,5.7493,6.3316,0.0,7.0789,7.0827,6.8878,6.6874,6.2162,5.3907,0.0,0.0,0.0,0.0,0.0,0.0,0.0,0.0,0.0,0.0,0.0,0.0,0.0,0.0,0.0,0.0,0.0,0.0,0.0,0.0,0.0,0.0,0.0,0.0,0.0,0.0,0.0,0.0,0.0,0.0,0.0,0.0,0.0,0.0,0.0,0.0,0.0,0.0,0.0,0.0,0.0,0.0,0.0,0.0,0.0,0.0,0.0,0.0,0.0,0.0,0.0,0.0,0.0,0.0,0.0,0.0,0.0,0.0,0.0,0.0,0.0,0.0,0.0,0.0,0.0,0.0,0.0,0.0,0.0,0.0,0.0,0.0,0.0,0.0,0.0,0.0,0.0,0.0,0.0,0.0,0.0,0.0,0.0,0.0,0.0,0.0,0.0,0.0,0.0,0.0,0.0,0.0,0.0,0.0,0.0,0.0,0.0,0.0,0.0,0.0,0.0,0.0,5.148,5.8357,6.4193,6.8097,6.9203,6.938,6.854,6.4156,5.9128,0.0,0.0,0.0,0.0,0.0,0.0,0.0,0.0,0.0,0.0,0.0,0.0,0.0,0.0,0.0,0.0,0.0,0.0,0.0,0.0,0.0,0.0,0.0,0.0,0.0,0.0,0.0,0.0,0.0,0.0,0.0,0.0,0.0,0.0,0.0,0.0,0.0,0.0,0.0,0.0,0.0,0.0,0.0,0.0,0.0,0.0,0.0,0.0,0.0,0.0,0.0,0.0,0.0,0.0,0.0,0.0,0.0,0.0,0.0,0.0,0.0,0.0,0.0,0.0,0.0,0.0,0.0,0.0,0.0,0.0,0.0,0.0,0.0,0.0,0.0,0.0,0.0,0.0,0.0,0.0,0.0,0.0,0.0,0.0,0.0,0.0,0.0,0.0,0.0,0.0,0.0,0.0,0.0,0.0,0.0,0.0,0.0,0.0,0.0,0.0,0.0,0.0,0.0,5.0989,5.8104,6.4193,6.8097,6.9203,6.9122,6.7657,6.4824,6.0145,5.3082,0.0,0.0,0.0,0.0,0.0,0.0,0.0,0.0,0.0,0.0,0.0,0.0,0.0,0.0,0.0,0.0,0.0,0.0,0.0,0.0,0.0,0.0,0.0,0.0,0.0,0.0,0.0,0.0,0.0,0.0,0.0,0.0,0.0,0.0,0.0,0.0,0.0,0.0,0.0,0.0,0.0,0.0,0.0,0.0,0.0,0.0,0.0,0.0,0.0,0.0,0.0,0.0,0.0,0.0,0.0,0.0,0.0,0.0,0.0,0.0,0.0,0.0,0.0,0.0,0.0,0.0,0.0,0.0,0.0,0.0,0.0,0.0,0.0,0.0,0.0,0.0,0.0,0.0,0.0,0.0,0.0,0.0,0.0,0.0,0.0,0.0,0.0,0.0,0.0,0.0,0.0,0.0,0.0,0.0,0.0,0.0,0.0,0.0,0.0,0.0,0.0,0.0,5.1062,5.8096,6.4023,6.7832,6.8989,6.8921,6.754,6.5701,6.1275,5.3279,0.0,0.0,0.0,0.0,0.0,0.0,0.0,0.0,0.0,0.0,0.0,0.0,0.0,0.0,0.0,0.0,0.0,0.0,0.0,0.0,0.0,0.0,0.0,0.0,0.0,0.0,0.0,0.0,0.0,0.0,0.0,0.0,0.0,0.0,0.0,0.0,0.0,0.0,0.0,0.0,0.0,0.0,0.0,0.0,0.0,0.0,0.0,0.0,0.0,0.0,0.0,0.0,0.0,0.0,0.0,0.0,0.0,0.0,0.0,0.0,0.0,0.0,0.0,0.0,0.0,0.0,0.0,0.0,0.0,0.0,0.0,0.0,0.0,0.0,0.0,0.0,0.0,0.0,0.0,0.0,0.0,0.0,0.0,0.0,0.0,0.0,0.0,0.0,0.0,0.0,0.0,0.0,0.0,0.0,0.0,0.0,0.0,0.0,0.0,0.0,0.0,0.0,5.1522,5.8195,6.3812,6.7523,6.8605,6.8808,6.8064,6.6571,6.2332,5.4415,0.0,0.0,0.0,0.0,0.0,0.0,0.0,0.0,0.0,0.0,0.0,0.0,0.0,0.0,0.0,0.0,0.0,0.0,0.0,0.0,0.0,0.0,0.0,0.0,0.0,0.0,0.0,0.0,0.0,0.0,0.0,0.0,0.0,0.0,0.0,0.0,0.0,0.0,0.0,0.0,0.0,0.0,0.0,0.0,0.0,0.0,0.0,0.0,0.0,0.0,0.0,0.0,0.0,0.0,0.0,0.0,0.0,0.0,0.0,0.0,4.1428,0.0,0.0,0.0,0.0,0.0,0.0,0.0,0.0,0.0,0.0,0.0,0.0,0.0,0.0,0.0,0.0,0.0,0.0,0.0,0.0,0.0,0.0,0.0,0.0,0.0,0.0,0.0,0.0,0.0,0.0,0.0,0.0,0.0,0.0,0.0,0.0,0.0,0.0,0.0,0.0,0.0,5.1522,5.8195,6.3812,6.7523,6.8605,6.9045,6.8876,6.639,6.2596,5.73,5.1921,0.0,0.0,0.0,0.0,0.0,0.0,0.0,0.0,0.0,0.0,0.0,0.0,0.0,0.0,0.0,0.0,0.0,0.0,0.0,0.0,0.0,0.0,0.0,0.0,0.0,0.0,0.0,0.0,0.0,0.0,0.0,0.0,0.0,0.0,0.0,0.0,0.0,0.0,0.0,0.0,0.0,0.0,0.0,0.0,0.0,0.0,0.0,0.0,0.0,0.0,0.0,0.0,0.0,0.0,0.0,0.0,0.0,0.0,0.0,0.0,4.4573,0.0,0.0,0.0,0.0,0.0,0.0,0.0,0.0,0.0,0.0,0.0,0.0,0.0,0.0,0.0,0.0,0.0,0.0,0.0,0.0,0.0,0.0,0.0,0.0,0.0,0.0,0.0,0.0,0.0,0.0,0.0,0.0,0.0,0.0,0.0,0.0,0.0,0.0,0.0,0.0,5.2646,5.9278,6.4759,6.8132,6.9474,7.0026,6.9654,6.7523,6.4275,5.9819,5.4609,0.0,0.0,0.0,0.0,0.0,0.0,0.0,0.0,0.0,0.0,0.0,0.0,0.0,0.0,0.0,0.0,0.0,0.0,0.0,0.0,0.0,0.0,0.0,0.0,0.0,0.0,0.0,0.0,0.0,0.0,0.0,0.0,0.0,0.0,0.0,0.0,0.0,0.0,0.0,0.0,0.0,0.0,0.0,0.0,0.0,0.0,0.0,0.0,0.0,0.0,0.0,0.0,0.0,5.3145,5.4228,5.4862,5.5624,5.5894,5.5624,5.2773,5.0939,4.9864,4.8376,0.0,0.0,0.0,0.0,0.0,0.0,0.0,0.0,0.0,0.0,0.0,0.0,0.0,0.0,0.0,0.0,0.0,0.0,0.0,0.0,0.0,0.0,0.0,0.0,5.081,5.0069,0.0,0.0,0.0,0.0,0.0,0.0,0.0,0.0,0.0,0.0,0.0,0.0,5.4236,6.0622,6.5696,6.8571,7.0218,7.0872,7.024,6.891,6.6373,6.2313,5.7949,5.3323,0.0,0.0,0.0,0.0,0.0,0.0,0.0,0.0,0.0,0.0,0.0,0.0,0.0,0.0,0.0,0.0,0.0,0.0,0.0,0.0,0.0,0.0,0.0,0.0,0.0,0.0,0.0,0.0,0.0,0.0,0.0,0.0,3.9568,4.0521,0.0,0.0,0.0,0.0,0.0,0.0,0.0,0.0,0.0,0.0,0.0,0.0,0.0,5.0379,5.2469,5.4558,5.6384,5.7839,5.9394,6.0182,6.0317,6.1037,6.1028,6.0452,6.1255,0.0,5.3729,5.2198,0.0,0.0,0.0,0.0,0.0,0.0,0.0,0.0,0.0,0.0,0.0,0.0,0.0,0.0,0.0,0.0,0.0,0.0,0.0,0.0,0.0,0.0,5.4169,5.389,5.4457,5.4618,0.0,4.9124,4.5264,4.2913,4.1101,0.0,0.0,0.0,0.0,0.0,0.0,0.0,5.575,6.1264,6.5493,6.7793,6.9428,7.0308,7.0206,6.9428,6.7861,6.5266,6.1511,5.762,5.3729,4.8907,0.0,0.0,0.0,0.0,0.0,0.0,0.0,0.0,0.0,0.0,0.0,0.0,0.0,0.0,0.0,0.0,0.0,0.0,0.0,0.0,0.0,0.0,0.0,0.0,0.0,0.0,0.0,0.0,0.0,3.9988,4.2063,4.2408,4.2929,4.2726,0.0,0.0,0.0,0.0,0.0,0.0,0.0,0.0,0.0,5.3281,5.449,5.5987,5.7881,5.9665,6.1322,6.2787,6.3859,6.484,6.5686,6.6,6.6,6.573,6.6373,6.4918,6.1772,5.7746,5.4761,5.2528,0.0,0.0,0.0,0.0,5.0093,5.0431,5.2841,5.3382,0.0,5.1597,0.0,0.0,0.0,0.0,0.0,0.0,0.0,0.0,0.0,0.0,5.7273,5.8669,5.9235,5.9505,5.9564,5.7064,5.3297,0.0,4.7421,4.5959,4.0656,0.0,0.0,0.0,0.0,5.2224,5.7365,6.1864,6.5459,6.7658,6.891,6.9766,7.0172,6.9113,6.7996,6.6992,6.3439,6.0293,5.778,5.3112,4.9358,0.0,0.0,0.0,0.0,0.0,0.0,0.0,0.0,0.0,0.0,0.0,0.0,0.0,0.0,0.0,0.0,0.0,0.0,0.0,0.0,0.0,0.0,0.0,0.0,0.0,0.0,0.0,0.0,4.255,4.4471,4.4302,4.5966,4.6136,0.0,0.0,0.0,0.0,0.0,0.0,5.1699,5.3213,5.548,5.8693,6.0037,6.1458,6.2956,6.4265,6.5595,6.6857,6.7421,6.8256,6.9383,6.9586,6.9451,6.9113,6.9316,6.8944,6.7827,6.2787,5.9394,5.7196,5.5099,5.3721,5.3069,5.4422,5.5166,5.5877,5.865,5.9336,5.8804,5.7349,0.0,5.4262,5.0718,0.0,0.0,0.0,0.0,5.3391,5.6587,5.8389,5.9954,6.2391,6.2966,6.3091,6.3656,6.2912,6.0216,0.0,5.345,5.2156,4.5229,0.0,0.0,0.0,0.0,5.5006,5.9327,6.2787,6.5595,6.7421,6.8335,6.9011,6.9563,6.8548,6.7895,6.7895,6.4962,6.2661,6.1298,5.734,5.383,5.0955,0.0,0.0,0.0,0.0,0.0,0.0,0.0,0.0,0.0,0.0,0.0,0.0,0.0,0.0,0.0,0.0,0.0,0.0,0.0,0.0,0.0,0.0,0.0,0.0,0.0,0.0,0.0,0.0,0.0,4.6718,4.918,0.0,0.0,0.0,0.0,4.8706,5.0777,5.3315,5.6292,5.7872,6.0375,6.4106,6.4962,6.6079,6.7557,6.8402,6.9214,6.9969,7.0003,7.0071,7.0172,7.0861,7.0421,6.9147,6.9834,6.9733,6.8842,6.6383,6.4048,6.1917,6.0317,5.8829,5.7654,5.8447,5.9665,6.0917,6.1119,6.1603,6.2255,6.2844,6.1086,5.8549,5.762,5.6359,0.0,0.0,5.7949,5.9979,6.1646,6.2651,6.3419,6.4275,6.4478,6.4512,6.4546,6.4478,6.326,0.0,5.75,5.5581,5.23,0.0,5.1404,5.2765,5.504,5.7949,6.1748,6.4218,6.5977,6.6768,6.7523,6.7963,6.7996,6.7929,6.7895,6.7895,6.6417,6.5199,6.441,6.14,5.8622,5.6158,5.0965,0.0,0.0,0.0,0.0,0.0,0.0,0.0,0.0,0.0,0.0,0.0,0.0,0.0,0.0,0.0,0.0,0.0,0.0,0.0,0.0,0.0,0.0,0.0,0.0,0.0,0.0,0.0,0.0,5.1082,5.4118,0.0,5.2105,5.2909,5.3746,5.3983,5.6553,5.9191,6.1704,6.3217,6.5314,6.8109,6.8447,6.909,7.0083,7.0838,7.1345,7.1616,7.2101,7.2304,7.2338,7.2609,7.2439,7.1966,7.2203,7.2169,7.1864,7.1052,6.8819,6.5842,6.4806,6.4096,6.3656,6.3927,6.4671,6.5561,6.5561,6.573,6.5842,6.5121,6.3565,6.1864,6.1593,6.0825,6.0182,6.0883,6.1694,6.2743,6.4705,6.5415,6.5956,6.7218,6.7489,6.7489,6.7489,6.7489,6.6948,6.5087,6.2777,6.0003,5.6503,5.69,5.7399,5.647,5.8669,6.124,6.3531,6.5324,6.6677,6.7421,6.8199,6.8673,6.8673,6.8199,6.7692,6.7208,6.5797,6.4647,6.3927,6.1931,5.9787,5.746,5.4133,4.9785,0.0,0.0,0.0,0.0,0.0,0.0,0.0,0.0,0.0,0.0,0.0,0.0,0.0,0.0,0.0,0.0,0.0,0.0,0.0,0.0,0.0,0.0,0.0,0.0,0.0,0.0,5.4025,5.4566,5.8312,5.9631,5.6393,5.7645,5.8795,5.9022,6.1366,6.3768,6.6,6.7286,6.8876,7.0883,7.0951,7.1289,7.2056,7.2529,7.2778,7.2766,7.3251,7.3488,7.3488,7.3488,7.3488,7.3488,7.3488,7.3488,7.3488,7.3488,7.2033,6.9688,6.8696,6.8155,6.7929,6.7681,6.803,6.8673,6.8673,6.8504,6.8132,6.7161,6.6203,6.5347,6.5077,6.4647,6.4309,6.4536,6.4806,6.5314,6.6802,6.7377,6.7817,6.8876,6.9113,6.9113,6.9113,6.9113,6.8944,6.8402,6.6294,6.3656,6.0655,6.1197,6.1525,6.0013,6.1917,6.3947,6.5189,6.6633,6.7749,6.8267,6.8774,6.9113,6.9113,6.8121,6.7309,6.6836,6.5178,6.3994,6.3511,6.2067,6.0452,5.8669,5.5488,5.1473,4.6701,0.0,0.0,0.0,0.0,0.0,0.0,0.0,0.0,0.0,0.0,0.0,0.0,0.0,0.0,0.0,0.0,0.0,0.0,0.0,0.0,0.0,0.0,0.0,5.0007,5.4093,5.6968,5.7036,6.1603,6.3284,5.9622,6.1298,6.2898,6.3589,6.5019,6.6823,6.9045,6.9824,7.0872,7.2394,7.2394,7.2732,7.3488,7.3487,7.3464,7.3464,7.3498,7.3498,7.3498,7.3544,7.359,7.359,7.359,7.359,7.359,7.359,7.3556,7.3421,7.1943,7.0939,7.0206,6.9485,6.9699,7.0308,7.0308,6.9834,6.9248,6.9214,6.918,6.9011,6.8233,6.7963,6.7793,6.7072,6.7377,6.7929,6.7963,6.8538,6.9147,6.918,6.918,6.918,6.918,6.918,6.918,6.918,6.7918,6.6396,6.4952,6.4096,6.3622,6.3612,6.485,0.0,6.6734,6.8189,6.9147,6.9147,6.9147,6.9147,6.9147,6.7749,6.6836,6.6734,6.4695,6.3477,6.3443,6.2067,6.0926,6.0114,5.5006,5.1533,4.9791,0.0,0.0,0.0,0.0,0.0,0.0,0.0,0.0,0.0,0.0,0.0,0.0,0.0,0.0,0.0,0.0,0.0,0.0,0.0,0.0,0.0,5.065,5.2706,5.257,5.69,6.0655,6.2245,6.5662,6.7218,6.5628,6.6542,6.7083,6.6711,6.8109,6.9462,7.0624,7.0386,7.1129,7.3115,7.2157,7.2209,7.3488,7.2959,7.2704,7.2704,7.3306,7.3584,7.3608,7.4616,7.5405,7.5912,7.5337,7.5439,7.5912,7.5349,7.5112,7.4931,7.3488,7.2778,7.2575,7.2372,7.2406,7.2575,7.2575,7.2473,7.2203,7.165,7.1131,7.0556,6.98,6.918,6.8741,6.8538,6.8605,6.8876,6.9428,6.9733,7.0026,7.0556,7.0692,7.0692,7.0692,7.0692,7.0692,7.0692,6.9474,6.8155,6.7151,6.6812,6.6508,6.599,6.6677,0.0,6.7557,6.8944,6.9902,6.9902,7.0398,7.05,6.9936,6.9011,6.7523,6.5347,6.413,6.3004,6.1931,6.1525,6.0926,6.0114,5.6055,5.3187,0.0,0.0,0.0,0.0,0.0,0.0,0.0,0.0,0.0,0.0,0.0,0.0,0.0,0.0,0.0,0.0,0.0,0.0,0.0,0.0,0.0,0.0,5.4938,5.7315,5.8457,6.1501,6.4333,6.6271,6.8561,6.9722,6.8944,6.9293,6.9485,6.935,6.9592,7.02,7.1225,7.0876,7.139,7.2988,7.2213,7.2461,7.39,7.2908,7.2881,7.3804,7.4258,7.481,7.5472,7.6295,7.6939,7.7333,7.6872,7.6939,7.7299,7.6872,7.6669,0.0,0.0,0.0,0.0,0.0,7.3488,7.3488,7.3488,7.3488,7.3387,7.2631,7.2124,7.1605,7.0872,7.0161,6.9553,6.9553,6.9553,6.9654,7.0105,7.0432,7.077,7.1199,7.13,7.13,7.13,7.13,7.13,7.13,7.0624,0.0,6.8605,6.8132,6.7658,6.6903,6.7996,6.8751,6.8436,6.9722,7.0669,7.0669,7.13,7.1481,7.0737,6.9688,0.0,0.0,0.0,6.2236,6.0409,6.0341,0.0,0.0,0.0,0.0,0.0,0.0,0.0,0.0,5.2366,5.1981,0.0,0.0,0.0,0.0,0.0,0.0,0.0,0.0,0.0,0.0,0.0,0.0,0.0,0.0,0.0,0.0,5.8819,6.2042,6.5808,6.6981,6.7918,6.9214,7.0658,7.1278,7.0646,7.0411,7.0648,7.1492,7.0192,7.0037,7.1606,0.0,0.0,0.0,0.0,7.2853,7.4334,7.313,7.343,7.519,7.5364,7.6068,7.7229,7.7596,7.78,7.7868,7.7961,7.8056,7.8124,7.8022,7.7954,7.7684,7.5743,7.4886,7.4649,7.4097,7.3827,7.3759,7.3759,0.0,0.0,7.28,7.2529,7.236,7.1537,7.0838,7.0308,7.0308,7.0308,7.0308,7.0308,7.0804,7.13,7.13,7.13,7.13,7.13,7.13,7.13,7.13,7.1233,7.0759,6.9451,6.8571,6.776,6.6937,6.8673,6.9834,6.918,7.0387,7.1334,7.1436,0.0,0.0,7.1605,7.0195,6.8707,6.7174,6.4343,6.1873,5.9834,5.9834,6.0139,6.0723,6.0723,6.1366,6.2661,6.2661,6.2695,6.2623,5.6052,5.4989,0.0,0.0,0.0,0.0,0.0,0.0,0.0,0.0,0.0,0.0,0.0,0.0,0.0,0.0,0.0,5.9428,6.2685,6.5943,6.9677,7.0861,7.121,7.0928,7.2191,7.3015,7.2879,7.1787,7.163,7.2968,7.1724,7.1798,7.3852,7.1767,7.1609,7.403,7.183,7.1558,7.3504,7.3387,7.2874,7.2083,0.0,0.0,7.2605,7.5056,7.6484,7.7079,7.7707,7.836,7.8843,7.8259,7.765,7.713,7.7278,7.6589,7.554,7.6048,7.5811,7.527,7.527,7.527,7.5033,7.3725,7.3285,7.3048,7.1706,7.1199,0.0,7.1097,7.1097,7.1097,7.1097,7.1199,7.13,7.13,7.13,7.13,7.13,7.13,7.13,7.13,7.0804,7.0308,7.0037,6.935,6.8402,6.7005,6.8222,6.9248,6.9113,7.0387,7.1537,7.2124,7.2326,7.2563,7.3048,7.1718,7.0252,6.8741,6.6373,6.486,6.4421,6.4975,6.5077,6.4624,6.4624,6.4454,6.4174,6.4174,6.4478,6.5006,6.2421,6.199,0.0,0.0,0.0,0.0,0.0,0.0,0.0,0.0,0.0,0.0,0.0,4.9687,5.1953,0.0,5.8389,6.325,6.5595,6.7963,7.1368,7.2496,7.28,7.2428,7.3048,7.3488,7.3488,7.2159,7.2049,7.3925,7.1344,7.0813,7.3372,7.1442,7.1049,7.278,7.221,7.2127,7.2686,7.2834,7.2671,7.2253,7.3805,7.4552,7.4623,7.6921,7.8144,7.8517,7.8939,7.9295,7.9634,7.9261,7.845,7.7548,7.8665,7.7718,7.5811,7.6589,7.6386,7.5709,7.5709,7.5709,7.5506,7.4424,7.4052,7.3849,7.2732,7.2394,7.2394,7.2394,7.2394,7.2394,7.2394,7.2394,7.2394,7.2394,7.2394,7.2394,7.2394,7.2124,7.1842,7.1842,7.1233,7.0635,7.0274,6.9902,6.9248,6.8121,6.9237,7.0049,6.9688,7.0939,7.1977,7.236,7.3071,7.351,7.3488,7.2157,7.0827,6.9733,6.8244,6.7218,6.6823,6.7151,6.7387,6.7398,6.7398,6.759,6.7952,6.7952,6.8335,6.9056,6.8301,6.7573,0.0,0.0,0.0,0.0,0.0,0.0,0.0,4.5744,4.7173,4.9383,5.1607,5.4076,5.7128,5.9124,6.1762,6.6294,6.776,6.935,7.2191,7.3116,7.3475,7.3342,7.3442,7.3531,7.3519,7.1932,7.1875,7.4241,7.0746,6.9646,7.2255,7.1133,7.069,7.1342,7.2301,7.2514,7.1875,7.2288,7.2597,7.286,7.4703,7.6081,7.7069,7.8894,7.9747,7.976,8.0061,8.0209,8.0209,8.0209,7.9431,7.836,7.9667,7.8551,7.6217,7.686,7.6521,7.5709,7.5709,7.5709,7.5574,7.4852,7.4615,7.4446,7.3725,7.3488,7.3488,7.3488,7.3488,7.3488,7.3488,7.3488,7.3488,7.3488,7.3488,7.3488,7.3488,7.3048,7.2597,7.2597,7.2124,7.1548,7.0951,7.0849,7.0443,6.9282,7.0229,7.0928,7.0477,7.1582,7.2496,7.28,7.3871,7.4345,7.3759,7.2631,7.1639,7.0883,7.0274,6.9654,6.9011,6.8977,6.9282,6.9925,7.0094,7.0759,7.1943,7.2078,7.245,7.3037,7.3206,7.209,4.4804,4.3639,4.3592,4.4884,4.5737,4.7665,0.0,5.3822,5.411,5.6334,5.8592,6.0317,6.0723,6.3057,6.5571,6.7455,6.8988,7.0748,7.3048,7.3454,7.3294,7.2775,7.323,7.3589,7.3584,7.1082,7.0602,7.3498,7.138,7.0692,7.2319,7.1557,7.1373,7.1994,7.0965,7.059,7.1028,7.2473,7.2504,7.1212,7.42,7.4968,7.3899,7.6832,7.8171,7.8238,7.9619,8.0209,8.0209,8.0209,7.9735,7.9046,7.987,7.9194,7.7751,7.7853,7.6939,7.5709,7.5709,7.5709,7.5574,7.4852,7.4615,7.4446,7.3725,7.3488,7.3488,7.3488,7.3488,7.3488,7.3488,7.3488,7.3488,7.3488,7.3488,7.3488,7.3488,7.3432,7.3387,7.3387,7.3319,7.3218,7.315,7.3116,7.2203,6.9519,6.9789,7.0534,7.1097,7.1875,7.2902,7.4209,7.4514,7.4581,7.448,7.4345,7.3916,7.3184,7.3048,7.2981,7.2879,7.2879,7.2913,7.3015,7.3646,7.4074,7.4243,7.4897,7.5236,7.5337,7.6048,7.518,4.8154,4.7868,4.8191,4.9281,5.0777,5.2968,5.6756,5.7703,5.8423,6.0689,6.2584,6.4005,6.44,6.5865,6.7466,6.8988,7.0128,7.1447,7.3251,7.3488,7.2974,7.1473,7.1188,7.1259,7.1694,7.0213,7.0229,7.2698,7.0432,6.9881,7.2107,7.1122,7.0778,7.1384,7.1745,7.1582,7.0919,7.2854,7.2854,7.0935,7.3525,7.4725,7.4703,7.6916,7.8385,7.9254,7.9934,8.0209,8.0209,8.0209,7.9769,7.9181,7.9904,7.9295,7.8056,7.8483,7.7942,7.7041,7.7041,7.677,7.6352,7.6048,7.5608,7.5168,7.4864,7.4774,7.4774,7.4774,7.4774,7.4774,7.4774,7.4774,7.4774,7.4774,7.4774,7.4774,7.4774,7.4424,7.4153,7.4153,7.3781,7.3488,7.3488,7.3488,7.3082,7.1864,7.1932,7.2236,7.2529,7.3206,7.4074,7.5122,7.5236,7.5439,7.5912,7.5934,7.598,7.6093,7.6127,7.5924,7.5518,7.589,7.5924,7.5484,7.6183,7.6589,7.6589,7.6906,7.7041,7.7041,7.7379,7.7041,4.9804,5.0642,5.1852,5.3213,5.5403,5.7829,6.0037,6.1255,6.2472,6.4333,6.573,6.6812,6.7343,6.803,6.8977,7.0297,7.1109,7.2124,7.3578,7.3299,7.2183,7.0089,6.9188,6.8708,6.8624,6.8453,6.9294,7.1611,6.9607,6.9236,7.1414,7.0718,7.044,7.0889,7.2198,7.2337,7.1204,7.2776,7.2984,7.1825,7.3695,7.5163,7.628,7.7828,7.9137,8.0209,8.0209,8.0209,8.0209,8.0209,7.9904,7.9464,8.0006,7.9545,7.8665,7.9228,7.8822,7.7988,7.7988,7.765,7.7198,7.7198,7.6792,7.6318,7.6318,7.6318,7.6318,7.6318,7.6318,7.6318,7.6318,7.6318,7.6318,7.6318,7.6318,7.6318,7.6318,7.5912,7.554,7.554,7.5112,7.474,7.474,7.474,7.474,7.474,7.4571,7.4266,7.386,7.4627,7.554,7.6251,7.6318,7.6555,7.7164,7.7198,7.7447,7.7954,7.7988,7.7751,7.7232,7.7718,7.7751,7.7198,7.7908,7.8293,7.8293,7.8496,7.8597,7.8597,7.88,7.88,4.9044,5.065,5.3061,5.5953,5.893,6.1694,6.3937,6.555,6.6802,6.759,6.8436,6.9011,6.9045,6.962,7.0375,7.1131,7.1875,7.2902,7.4345,7.2829,7.078,6.8698,6.7737,6.6472,0.0,6.5368,6.726,7.0072,6.9442,6.9305,7.0011,7.0592,7.0889,7.0889,7.1583,7.1912,7.1863,7.1942,7.2682,7.4113,7.5111,7.6355,7.7868,7.943,8.0171,8.0209,8.0209,8.0209,8.0209,8.0209,8.0175,8.0175,8.0175,8.0175,8.0141,8.0175,7.924,7.7988,7.7988,7.7988,7.7954,7.7954,7.7954,7.7921,7.7921,7.7921,7.7921,7.7921,7.7921,7.7921,7.7921,7.7921,7.7921,7.7921,7.7921,7.7921,7.7921,7.7921,7.7887,7.7887,7.7887,7.7853,7.7853,7.7853,7.7853,7.7853,7.7232,7.6251,7.475,7.59,7.7096,7.7853,7.7921,7.7954,7.7954,7.7954,7.7988,7.7988,7.7988,7.7988,7.7954,7.7988,7.7988,7.7954,7.8686,7.908,7.908,7.9769,8.0141,8.0141,8.0864,8.083,5.1716,5.4321,5.75,6.0511,6.3115,6.555,6.7804,6.8718,6.9113,6.936,6.9248,6.8944,6.8402,6.8504,6.9079,7.0364,7.1582,7.2935,7.4378,7.3156,7.1335,6.9302,6.753,6.5994,6.4768,0.0,0.0,6.9242,6.9138,6.9482,7.053,7.1218,7.1547,7.1547,7.2206,7.2565,7.2565,7.2565,7.2592,7.2682,7.3571,7.4851,7.6421,7.7963,7.9215,8.0209,8.0209,8.0209,8.0209,8.0209,8.0209,8.0209,8.0209,8.0209,8.0209,8.0209,7.987,7.9477,7.9477,7.9126,7.872,7.872,7.8382,7.7988,7.7988,7.7988,7.7988,7.7988,7.7988,7.7988,7.7988,7.7988,7.7988,7.7988,7.7988,7.7988,7.7988,7.7988,7.7988,7.7988,7.7988,7.7988,7.7988,7.7988,7.7988,7.7988,7.7785,7.7266,7.6251,7.6995,7.7718,7.7954,7.7988,7.8191,7.8686,7.872,7.8957,7.9431,7.9477,7.9228,7.8754,7.9194,7.9228,7.8754,7.9938,8.0547,8.0547,8.0796,8.119,8.165,8.1405,8.1439,5.5166,5.8177,6.139,6.4671,6.6768,6.847,7.0195,7.0601,7.0432,6.9936,6.8977,6.803,6.7263,6.6485,6.6857,6.9733,7.077,7.193,7.3975,7.2563,7.0637,6.8828,6.6689,6.526,6.5038,6.5398,0.0,6.8824,6.9004,6.9662,7.1188,7.1683,7.2013,7.2235,7.2924,7.3146,7.2907,7.2907,7.2729,7.2413,7.3741,7.5102,7.6468,7.7708,7.8956,8.0209,8.0209,8.0209,8.0209,8.0209,8.0209,8.0209,8.0479,8.0593,8.0627,8.0885,8.0987,8.0919,8.0378,7.9904,7.9486,7.9486,7.916,7.88,7.88,7.88,7.88,7.88,7.88,7.88,7.88,7.88,7.88,7.88,7.88,7.88,7.88,7.88,7.88,7.88,7.88,7.88,7.88,7.88,7.8699,7.8416,7.8631,7.8517,7.7773,7.8111,7.8483,7.8766,7.9003,7.9375,7.9837,7.9904,8.0209,8.0953,8.075,8.0378,7.9904,8.0581,8.0648,7.9904,8.1088,8.1697,8.1697,8.1697,8.1934,8.2395,8.2441,8.2441,5.9133,6.2033,6.4705,6.8368,6.98,7.0511,7.1199,7.1267,7.0759,6.9282,6.7681,6.6294,6.5503,6.371,6.4015,6.9124,6.9553,7.0287,7.3342,7.1324,6.8985,6.7627,6.5505,6.4425,6.5099,6.5144,6.6236,6.8854,0.0,6.9842,7.1803,7.1983,7.2295,7.2937,7.3612,7.3642,7.2997,7.2937,7.2995,7.32,7.5353,7.6901,7.7853,7.8637,7.9462,8.031,8.031,8.031,8.031,8.031,8.031,8.0378,8.1067,8.1372,8.1439,8.2124,8.2395,8.2192,8.0784,8.031,8.031,8.031,8.031,8.031,8.031,8.031,8.031,8.031,8.031,8.031,8.031,8.031,8.031,8.031,8.031,8.031,8.031,8.031,8.031,8.031,8.031,8.031,8.031,8.031,8.0073,7.9384,7.987,8.004,7.9215,7.9147,7.9418,8.0141,8.083,8.127,8.1304,8.1304,8.1608,8.2361,8.1731,8.1372,8.1372,8.2035,8.2069,8.1372,8.2069,8.2462,8.2462,8.2496,8.253,8.2598,8.4005,8.395,6.2381,6.5933,6.8977,7.1041,7.1684,7.1887,7.209,7.0838,6.9248,6.7715,6.4874,6.2303,6.095,6.1197,6.2729,6.6282,6.9045,7.1965,7.5546,7.3076,7.0941,7.1122,6.8251,6.6505,6.7164,6.7254,6.7942,0.0,6.9273,6.9842,7.1803,7.2851,7.3462,7.3642,7.4317,7.4557,7.4377,7.3402,7.242,7.1535,7.385,7.5652,7.7077,7.8958,8.0547,8.182,8.182,8.182,8.182,8.182,8.182,8.1853,8.2069,8.2137,8.2124,8.2327,8.2395,8.2361,8.1955,8.182,8.182,8.182,8.182,8.182,8.182,8.182,8.182,8.182,8.182,8.182,8.182,8.182,8.182,8.182,8.182,8.182,8.182,8.182,8.182,8.182,8.182,8.182,8.182,8.182,8.1799,8.1583,8.1718,8.1177,7.935,7.9587,8.0006,8.0175,8.0378,8.0695,8.1236,8.1304,8.1608,8.2361,8.2225,8.2137,8.2137,8.2293,8.2293,8.2137,8.2847,8.3219,8.3219,8.3781,8.4356,8.4958,8.533,8.5587,6.6136,6.9293,7.183,7.2676,7.2631,7.2056,7.0737,6.9214,6.7106,6.3599,6.0994,5.865,5.6452,5.7568,6.0037,6.3676,6.7658,7.1308,7.4034,7.296,7.1666,7.1035,6.8865,6.7703,6.8361,6.8151,6.8676,7.026,7.0051,7.056,7.2235,7.3313,7.4031,7.4317,7.4706,7.4616,7.4048,7.3283,7.2751,7.247,7.4325,7.6263,7.8236,7.9061,8.0501,8.2356,0.0,8.175,8.2395,8.2395,8.2395,8.2428,8.278,8.2881,8.2902,8.324,8.3375,8.3375,8.3375,8.3375,8.3274,8.2598,8.2395,8.2395,8.2395,8.2395,8.2395,8.2395,8.2395,8.2395,8.2395,8.2395,8.2395,8.2395,8.2395,8.2395,8.2395,8.2395,8.2395,8.2395,8.2395,8.2395,8.2395,8.2395,8.2395,8.2395,8.2395,8.1955,8.0703,8.0906,8.1156,8.1156,8.146,8.1832,8.2218,8.2285,8.2577,8.3308,8.3071,8.2881,8.2881,8.3206,8.3375,8.3375,8.4133,8.4674,8.4979,8.5405,8.5845,8.6298,8.6602,8.6805,6.9699,7.2033,7.3657,7.3759,7.3082,7.165,6.8707,6.7049,6.4468,5.877,5.6697,5.5108,5.2503,5.3949,5.7094,6.1772,6.6136,6.9687,7.1781,7.2215,7.1726,7.008,6.8912,6.8511,6.9183,6.881,6.9229,7.0919,7.1188,7.1816,7.2967,7.3672,7.4317,7.4886,7.4886,7.4317,7.3027,7.323,7.3728,7.4532,7.5962,7.7807,7.9908,7.9339,8.0266,8.2324,8.1117,8.1409,8.2699,8.2699,8.2699,8.2767,8.3389,8.3659,8.3727,8.4356,8.4614,8.4614,8.4614,8.4614,8.4377,8.3105,8.2699,8.2699,8.2699,8.2699,8.2699,8.2699,8.2699,8.2699,8.2699,8.2699,8.2699,8.2699,8.2699,8.2699,8.2699,8.2699,8.2699,8.2699,8.2699,8.2699,8.2699,8.2699,8.2699,8.2699,8.2699,8.2699,8.2699,8.253,8.2395,8.2395,8.2983,8.3389,8.349,8.349,8.3828,8.4546,8.3984,8.3659,8.3659,8.4356,8.4762,8.4762,8.5554,8.6264,8.6893,8.6995,8.7062,8.7062,8.7786,8.7786,7.1379,7.3206,7.4559,7.5168,7.3849,7.1785,6.9417,6.5449,6.1086,5.6916,5.3518,5.109,5.0582,5.2849,5.6664,6.2371,6.6,7.0141,7.6012,7.3723,7.2198,7.4217,7.1599,6.9887,7.05,7.0965,7.1354,7.1713,7.2744,7.3462,7.3702,7.4377,7.4766,7.4886,7.4886,7.4527,7.3732,7.5059,7.5517,7.5183,7.7347,7.8606,7.9077,8.079,8.1806,8.2292,8.336,0.0,8.4221,8.4221,8.4221,8.4242,8.4356,8.4424,8.4411,8.4546,8.4614,8.4614,8.4614,8.4614,8.4546,8.4309,8.4221,8.4221,8.4221,8.4221,8.4221,8.4221,8.4221,8.4221,8.4221,8.4221,8.4221,8.4221,8.4221,8.4221,8.4221,8.4221,8.4221,8.4221,8.4221,8.4221,8.4221,8.4221,8.4221,8.4221,8.4221,8.4221,8.4221,8.3139,8.2395,8.2395,8.2496,8.2847,8.3456,8.349,8.3828,8.4546,8.4492,8.4424,8.4424,8.5182,8.5587,8.5587,8.6332,8.6758,8.6893,8.7516,8.782,8.782,8.8578,8.8849,7.2473,7.4052,7.527,7.5608,7.3747,7.0827,6.7039,6.2719,5.8017,5.2723,5.0194,4.8706,4.7936,5.1217,5.5209,5.8844,6.3217,6.785,7.2643,7.174,7.137,7.3527,7.1825,7.0709,7.1354,7.1713,7.2192,7.291,7.3539,7.3881,7.3881,7.4527,7.4886,7.4886,7.4886,7.4587,7.3911,7.5025,7.5673,7.585,7.7309,7.848,7.9382,8.0456,8.1417,8.2259,8.3012,0.0,8.4614,8.4614,8.4614,8.4614,8.4614,8.4614,8.4614,8.4614,8.4864,8.5215,8.5215,8.5473,8.5811,8.5811,8.5256,8.4614,8.4614,8.4614,8.4614,8.4614,8.4614,8.4681,8.51,8.4898,8.4728,8.51,8.4898,8.4715,8.5134,8.5215,8.5215,8.5215,8.554,8.554,8.4749,8.4931,8.5067,8.4647,8.4965,8.5215,8.5215,8.4931,8.4424,8.3646,8.3531,8.3849,8.462,8.4687,8.5012,8.5743,8.5811,8.5811,8.5811,8.6163,8.6535,8.6954,8.7279,8.7651,8.8057,8.8409,8.8578,8.8578,8.9309,8.9681,7.315,7.4571,7.5709,7.5709,7.3375,6.9744,6.4671,6.0216,5.5421,4.9172,4.7515,4.6974,4.6305,4.9653,5.3374,5.6003,6.0252,6.4648,6.8696,6.9322,7.0081,7.1928,7.152,7.1308,7.1863,7.2162,7.2791,7.3821,7.4031,7.4091,7.4091,7.4616,7.4886,7.4886,7.4886,7.4646,7.4121,7.4977,7.5776,7.6531,7.7058,7.8171,7.9802,7.9818,8.0677,8.223,8.2557,0.0,0.0,8.4614,8.4614,8.4614,8.4614,8.4728,8.4864,8.4864,8.5351,8.6041,8.6041,8.6433,8.6893,8.6893,8.6081,8.5087,8.5087,8.5087,8.5087,8.5087,8.5087,8.5236,8.5858,8.5574,8.527,8.5905,8.554,8.527,8.5892,8.6041,8.6041,8.6041,8.6501,8.6521,8.529,8.5621,8.5824,8.5202,8.5621,8.6041,8.6041,8.6535,8.6453,8.5222,8.5087,8.5337,8.5973,8.6041,8.6264,8.6859,8.6893,8.6893,8.6893,8.7062,8.7414,8.7989,8.8294,8.8767,8.9357,8.9492,8.9661,8.983,9.0377,9.0749,7.3285,7.4571,7.5709,7.5709,7.2981,6.9113,6.4536,5.9032,5.3551,4.8868,4.6312,4.5481,4.7346,4.8631,5.1446,5.7694,5.8817,6.1496,6.9034,6.8511,6.8589,7.1897,7.1993,7.1833,7.1893,7.2984,7.3762,7.3881,7.4467,7.4796,7.4796,7.4873,7.4886,7.4886,7.4886,7.4856,7.4796,7.6321,7.7113,7.7197,7.7259,7.8171,7.9802,7.9802,8.0674,8.2288,8.3743,8.446,0.0,8.4614,8.4614,8.4614,8.4614,8.5033,8.5702,8.5702,8.6163,8.6792,8.6792,8.6825,8.6893,8.6893,8.6792,8.669,8.669,8.669,8.669,8.669,8.669,8.6724,8.6792,8.6724,8.6724,8.6792,8.6724,8.6724,8.6792,8.6792,8.6792,8.6792,8.6859,8.6859,8.6724,8.6758,8.6758,8.669,8.6758,8.6792,8.6792,8.6859,8.6859,8.669,8.669,8.6724,8.6792,8.6792,8.6825,8.6893,8.6893,8.6893,8.6893,8.755,8.7922,8.7989,8.9309,9.0039,9.0106,9.0763,9.144,9.2102,9.217,9.2575,7.2812,7.4571,7.5709,7.5709,7.2225,6.777,6.3734,5.7848,5.2063,4.8071,4.5812,4.5149,4.6921,4.7827,4.9781,5.4253,5.4683,5.6491,6.2374,6.2573,6.3733,6.8112,6.9533,7.0769,7.2355,7.3343,7.4078,7.4467,7.4736,7.4886,7.4886,7.4886,7.4886,7.4886,7.4886,7.4886,7.4886,7.5557,7.5879,7.5849,7.6833,7.7894,7.9021,8.1003,8.2516,8.3613,8.4793,8.5574,0.0,8.4986,8.4898,8.5317,8.5317,8.552,8.5838,8.6298,8.6941,8.755,8.755,8.7854,8.8226,8.8226,8.8226,8.8057,8.7164,8.6893,8.6893,8.6893,8.6893,8.6995,8.7448,8.755,8.7448,8.6995,8.6893,8.7028,8.7482,8.755,8.755,8.755,8.7922,8.7955,8.7062,8.7279,8.7414,8.6961,8.7265,8.755,8.755,8.7955,8.8395,8.8821,8.7705,8.7265,8.8158,8.782,8.7942,8.8821,8.8889,8.87,8.8226,8.9782,9.0459,8.9985,9.1474,9.2266,9.2266,9.2537,9.2841,9.3131,9.359,9.3962,7.1819,7.4086,7.5371,7.5371,7.1616,6.688,6.2966,5.7002,5.1251,4.7571,4.5616,4.5041,4.6522,4.7225,4.8605,0.0,5.1788,5.3135,5.8115,5.8515,5.9961,6.4459,6.6489,6.8555,7.1188,7.3103,7.4377,7.4856,7.4886,7.4886,7.4886,7.4886,7.4886,7.4886,7.5095,7.5095,7.4886,7.5095,7.5339,7.5611,7.6765,7.7922,7.9174,8.2028,8.3676,8.4438,8.5599,8.6433,0.0,8.5506,8.5418,8.6108,8.5872,8.6075,8.6514,8.7042,8.7685,8.8342,8.8342,8.868,8.9086,8.9086,8.9086,8.8917,8.7854,8.755,8.755,8.755,8.755,8.7685,8.8206,8.8342,8.8192,8.7685,8.755,8.7685,8.8192,8.8342,8.8342,8.8342,8.8748,8.8781,8.7719,8.7989,8.8158,8.7617,8.7989,8.8395,8.8632,8.9106,8.9715,9.0459,8.9328,8.8956,8.9985,8.983,9.0087,9.1135,9.1203,9.0966,9.0439,9.1947,9.2522,9.1996,9.3248,9.3924,9.3924,9.4161,9.4364,9.4601,9.5093,9.5466,7.0286,7.2924,7.4615,7.4615,7.1233,6.6745,6.2313,5.663,5.1251,4.7571,4.5616,4.5041,4.6522,4.68,4.8011,5.1691,5.1079,5.23,5.8523,5.8078,5.8378,6.1731,6.3273,6.5099,6.7808,7.2209,7.4886,7.4886,7.4886,0.0,7.4886,7.4886,7.4886,7.4886,7.5527,7.5557,7.4916,7.5557,7.6375,7.7274,7.729,7.8499,8.0733,8.2488,8.368,8.4383,8.6142,8.6893,0.0,8.6108,8.623,8.6825,8.6108,8.6684,8.7989,8.7989,8.8477,8.9086,8.9086,8.9086,8.9086,8.9086,8.9086,8.9086,8.9086,8.9086,8.9086,8.9086,8.9086,8.9086,8.9086,8.9086,8.9086,8.9086,8.9086,8.9086,8.9086,8.9086,8.9086,8.9086,8.9086,8.9086,8.9086,8.9086,8.9086,8.9086,8.9086,8.9357,9.0073,9.0174,9.0478,9.1203,9.1933,9.2358,9.2358,9.3098,9.3552,9.3552,9.3552,9.3552,9.3552,9.3586,9.3586,9.3586,9.4315,9.4673,9.4673,9.5432,9.6157,9.6868,9.6868,9.7274,6.5077,6.758,6.9034,6.803,6.5155,6.1806,5.8896,5.4363,5.0041,4.7334,4.6015,4.5635,4.6624,4.7225,4.8943,5.3179,5.2132,5.2215,5.6294,5.7789,5.9368,6.1822,6.7238,7.1294,7.2581,7.4048,7.4886,7.4886,7.4886,7.4886,7.4886,7.4886,7.4886,7.4886,7.5095,7.5335,7.5587,7.5796,7.6253,7.6989,7.8116,7.9926,8.233,8.3958,8.5782,8.7585,8.7612,8.7651,0.0,8.6311,8.623,8.6893,8.6623,8.7144,8.8057,8.8578,8.8883,8.9086,8.9086,8.9086,8.9086,8.9086,8.9086,8.9086,8.9086,8.9086,8.9086,8.9086,8.9086,8.9086,8.9086,8.9086,8.9086,8.9086,8.9086,8.9086,8.9086,8.9086,8.9086,8.9086,8.9526,8.985,8.985,9.0256,9.0608,9.0608,9.0608,9.0865,9.1628,9.1696,9.2203,9.3503,9.4267,9.4315,9.33,9.3451,9.3823,9.4315,9.4349,9.4112,9.362,9.5041,9.5616,9.5108,9.6311,9.6939,9.6939,9.7191,9.7428,9.7664,9.7664,9.7766,6.095,6.3859,6.5347,6.44,6.1941,5.909,5.6891,5.2909,4.9127,4.7199,4.621,4.594,4.6658,4.7387,4.8868,5.1875,5.1005,5.115,5.4494,5.6507,5.8919,6.2391,6.8286,7.2295,7.2954,7.4407,7.5275,7.5275,7.5497,7.5617,7.5617,7.5395,7.5395,7.5617,7.5617,7.5707,7.5916,7.6395,7.6996,7.778,7.8795,8.0568,8.297,8.4628,8.6373,8.8128,8.8023,0.0,0.0,8.6704,8.6636,8.7313,8.7313,8.7753,8.8477,8.8917,8.9086,8.9086,8.9086,8.9086,8.9086,8.9086,8.9086,8.9086,8.9086,8.9086,8.9086,8.9086,8.9086,8.9086,8.9086,8.9086,8.9086,8.9086,8.9086,8.9187,8.9444,8.9526,8.9593,8.9864,9.029,9.0628,9.0628,9.1,9.1305,9.1305,9.1305,9.1677,9.2711,9.2846,9.3421,9.4958,9.577,9.5853,9.4905,9.5108,9.5466,9.5924,9.5958,9.5736,9.5278,9.6597,9.7089,9.665,9.7529,9.7987,9.7987,9.7987,9.7987,9.7987,9.7987,9.7987,0.0,6.0917,6.2699,6.2632,6.0501,5.7897,5.5767,5.1987,0.0,4.7097,4.621,4.5974,4.6793,4.7488,4.8184,4.9043,4.8735,4.9706,5.3438,5.5092,5.8082,6.3947,6.7478,6.9662,7.0274,7.3715,7.5916,7.5976,7.6497,7.6779,7.6779,7.6258,7.6228,7.6779,7.6838,7.6617,7.6036,7.7203,7.8286,7.9271,7.9388,8.0677,8.2939,8.4678,8.5932,0.0,8.769,0.0,0.0,8.7245,8.7333,8.7922,8.7989,8.8443,8.9086,8.9086,8.9086,8.9086,8.9086,8.9086,8.9086,8.9086,8.9086,8.9086,8.9086,8.9086,8.9086,8.9086,8.9086,8.9086,8.9086,8.9086,8.912,8.9154,8.9187,8.939,9.0121,9.0275,9.0493,9.1169,9.1338,9.1372,9.1372,9.142,9.144,9.144,9.144,9.2029,9.3552,9.3755,9.433,9.5804,9.6563,9.6969,9.6969,9.7597,9.7987,9.7987,9.7987,9.7987,9.7987,9.7987,9.7987,9.7987,9.7987,9.7987,9.7987,9.7987,9.7987,9.7987,9.7987,9.7987,5.0127,0.0,5.4794,5.4245,5.3568,5.2757,0.0,4.9729,4.7894,4.6996,0.0,4.6271,4.8139,4.8165,4.9185,5.312,5.2278,5.2175,5.5152,5.9682,6.471,7.0155,7.2415,7.3778,7.445,7.5347,7.6078,7.6557,7.6719,7.6779,7.6779,7.6676,7.6647,7.6779,7.7305,7.7484,7.7335,7.7652,7.8194,7.8939,8.0278,8.19,8.3787,8.5475,8.705,8.851,0.0,0.0,8.7198,8.7583,8.7516,8.7198,8.7786,8.8443,8.9086,8.9086,8.9086,8.9086,8.9086,8.9086,8.9086,8.9086,8.9086,8.9086,8.9086,8.9086,8.9086,8.9086,8.9086,8.9086,8.9086,8.9086,8.9255,8.9816,8.9951,9.0154,9.0865,9.1034,9.1102,9.1271,9.1778,9.2136,9.2136,9.2658,9.3045,9.3045,9.3045,9.3586,9.5108,9.5278,9.5838,9.7326,9.7631,9.7732,9.7732,9.7901,9.7987,9.7987,9.7987,9.7987,9.7987,9.7987,9.7987,9.7987,9.7987,9.7987,9.7987,9.7987,9.7987,9.7987,9.7987,9.7987,4.6677,4.9552,5.219,5.1818,5.1708,5.1514,5.0777,4.8943,4.7192,0.0,0.0,0.0,4.8199,4.9003,5.0097,5.2207,5.235,5.3637,5.7799,6.2994,6.8016,7.2368,7.436,7.5497,7.5856,7.6425,7.6904,7.7245,7.7544,7.7741,7.7741,7.7424,7.7394,7.7694,7.7753,7.7801,7.7801,7.81,7.843,7.8825,8.0579,8.2325,8.4059,8.5752,8.7455,8.9086,0.0,0.0,8.6961,8.7685,8.7583,8.6995,8.8091,8.8748,8.9086,8.9086,8.9086,8.9086,8.9086,8.9086,8.9086,8.9086,8.9086,8.9086,8.9086,8.9086,8.9086,8.9086,8.9086,8.9187,8.9512,8.9579,8.9782,9.0527,9.0696,9.0899,9.1643,9.1798,9.1913,9.23,9.2692,9.2962,9.2962,9.33,9.3586,9.3586,9.389,9.4518,9.5635,9.609,9.6751,9.7886,9.7987,9.7987,9.7987,9.7987,9.7987,9.7987,9.7987,9.7987,9.7987,9.7987,9.7987,9.7987,9.7987,9.7987,9.7987,9.7987,9.7987,9.7987,9.7987,9.7987,4.5906,4.918,5.2198,5.1758,5.1894,5.1919,5.1066,0.0,0.0,0.0,0.0,0.0,0.0,5.0186,5.1304,5.0504,5.2053,5.5271,6.0918,6.5413,6.9409,7.2804,7.4809,7.5976,7.6185,7.7173,7.7861,7.7933,7.846,7.8807,7.8807,7.825,7.822,7.8759,7.816,7.7801,7.7801,7.837,7.8801,7.9075,8.0826,8.2597,8.4457,8.6118,8.7656,8.8883,0.0,0.0,8.6456,8.767,8.7527,8.6705,8.8427,8.9086,8.9086,8.9086,8.9086,8.9086,8.9086,8.9086,8.9086,8.9086,8.9086,8.9086,8.9086,8.9086,8.912,8.9255,8.9255,8.9458,9.0188,9.0391,9.0546,9.1305,9.1474,9.1677,9.2406,9.2575,9.2778,9.3484,9.3586,9.3586,9.3586,9.3586,9.362,9.3755,9.4315,9.5026,9.5838,9.6496,9.7172,9.7935,9.7987,9.7987,9.7987,9.7987,9.7987,9.7987,9.7987,9.7987,9.7987,9.7987,9.7987,9.7987,9.7987,9.7987,9.7987,9.7987,9.7987,9.7987,9.7987,9.7987,4.7767,5.0371,5.1683,4.9206,4.9984,5.0998,4.9653,4.8496,0.0,0.0,0.0,0.0,5.1141,5.2461,5.3632,5.515,5.6903,5.955,6.3796,6.6969,7.0277,7.4138,7.5377,7.6317,7.7394,7.7682,7.8041,7.8579,7.8747,7.8807,7.8807,7.8699,7.8687,7.8807,7.816,7.7801,7.7801,7.7921,7.8705,8.0189,8.1924,8.3925,8.6179,8.7897,8.849,8.8192,0.0,8.7001,8.4104,8.7534,8.7288,8.5057,8.7966,8.9086,8.9086,8.9086,8.9086,8.9086,8.9086,8.9086,8.9086,8.9086,8.9086,8.9086,8.9086,8.9086,8.9221,8.985,9.0019,9.0222,9.0932,9.1135,9.1305,9.2068,9.2237,9.244,9.3233,9.3417,9.3451,9.3586,9.3586,9.3586,9.3586,9.3586,9.3823,9.4451,9.462,9.5195,9.6563,9.6834,9.7172,9.7935,9.7987,9.7987,9.7987,9.7987,9.7987,9.7987,9.7987,9.7987,9.7987,9.7987,9.7987,9.7987,9.7987,9.7987,9.7987,9.7987,9.7987,9.7987,9.7987,9.7987,4.6252,4.8511,5.0304,4.9315,5.1683,5.3847,5.2367,5.1116,0.0,0.0,0.0,5.0761,5.2285,5.4107,5.6277,5.892,6.0686,6.2899,6.6161,6.8585,7.1248,7.4497,7.5766,7.6766,7.7711,7.813,7.846,7.8777,7.8807,7.8807,7.8807,7.8807,7.8639,7.828,7.7981,7.7634,7.7275,7.7275,7.833,8.0408,8.1209,8.2843,8.5196,8.5983,8.5953,8.5328,0.0,8.4908,8.2802,8.6281,8.66,8.5241,8.8001,8.9086,8.9086,8.9086,8.9086,8.9086,8.9086,8.9086,8.9086,8.9086,8.9086,8.9086,8.9086,8.939,8.985,9.0594,9.0527,9.0445,9.1595,9.1899,9.2068,9.2861,9.2297,9.1973,9.3293,9.2834,9.2453,9.3423,9.3924,9.418,9.418,9.4518,9.489,9.5229,9.5635,9.6123,9.68,9.724,9.7631,9.7953,9.7987,9.7987,9.7987,9.7987,9.7987,9.7987,9.7987,9.7987,9.7987,9.7987,9.7987,9.7987,9.7987,9.7987,9.7987,9.7987,9.7987,9.7987,9.7987,9.7987,4.5954,4.7673,4.9526,5.0616,0.0,5.548,5.5387,0.0,0.0,0.0,0.0,5.417,5.4303,5.6543,5.9266,6.2081,6.4165,6.6161,6.8361,7.0366,7.2535,7.5065,7.6198,7.7125,7.7951,7.8489,7.8807,7.8807,7.8807,7.8807,7.8807,7.8807,7.8489,7.7813,7.7634,7.7245,7.6617,7.6437,7.7651,8.016,8.0315,8.159,8.3755,8.3947,8.3627,8.3003,8.3691,8.2972,8.1554,8.5055,8.586,8.5119,8.7979,8.9086,8.9086,8.9086,8.9086,8.9086,8.9086,8.9086,8.9086,8.9086,8.9086,8.9086,8.9086,8.9613,9.0357,9.1102,9.1034,9.102,9.2339,9.2677,9.2846,9.3451,9.2544,9.1912,9.3286,9.2514,9.1994,9.3552,9.4315,9.474,9.4924,9.5432,9.5838,9.6041,9.6529,9.6969,9.7138,9.7664,9.7987,9.7987,9.7987,9.7987,9.7987,9.7987,9.7987,9.7987,9.7987,9.7987,9.7987,9.7987,9.7987,9.7987,9.7987,9.7987,9.7987,9.7987,9.7987,9.7987,9.8172,9.8273,4.9991,5.0371,5.0549,5.2706,5.2427,0.0,5.674,5.5996,0.0,5.8761,0.0,0.0,5.8901,6.0769,6.2898,6.4528,6.7485,6.9828,7.059,7.2415,7.442,7.6437,7.6719,7.7305,7.8579,7.8759,7.8807,7.8807,7.8807,7.8807,7.8807,7.8807,7.8489,7.7813,7.7215,7.6587,7.5976,7.5365,7.6533,7.9495,8.0098,8.1339,8.3082,8.3739,8.3563,8.2859,8.3627,8.2279,7.9856,8.4564,8.519,8.3554,8.7557,8.9086,8.9086,8.9086,8.9086,8.9086,8.9086,8.9086,8.9086,8.9086,8.9086,8.9086,8.9086,8.9613,9.0357,9.1102,9.173,9.244,9.3281,9.3518,9.3518,9.3586,9.3497,9.3453,9.3556,9.3497,9.3656,9.4455,9.4673,9.4909,9.5601,9.577,9.6041,9.6732,9.6868,9.7138,9.7834,9.7969,9.7987,9.7987,9.7987,9.7987,9.7987,9.7987,9.7987,9.7987,9.7987,9.7987,9.7987,9.7987,9.7987,9.7987,9.7987,9.7987,9.7987,9.7987,9.7987,9.8021,9.8713,9.9018,4.8173,4.9263,5.0515,5.23,0.0,0.0,0.0,5.9032,6.0225,6.3,6.3237,0.0,6.111,6.2655,6.4628,6.6032,6.9005,7.1564,7.2624,7.3402,7.448,7.6048,7.6587,7.7155,7.81,7.8567,7.8807,7.8807,7.8807,7.8807,7.8807,7.8807,7.8489,7.7813,7.7155,7.6706,7.6467,7.6198,7.6653,7.7784,7.8057,7.9506,8.1982,8.1151,8.0356,7.9725,8.0449,8.0477,8.0249,8.3547,8.5049,8.5453,8.8075,8.9086,8.9086,8.9086,8.9086,8.9086,8.9086,8.9086,8.9086,8.9086,8.9086,8.9187,8.9647,9.029,9.1034,9.1764,9.2556,9.3199,9.3518,9.3586,9.3586,9.3586,9.2725,9.2237,9.3379,9.271,9.2486,9.4358,9.506,9.5601,9.636,9.6853,9.7258,9.7529,9.7597,9.7698,9.7953,9.7987,9.7987,9.7987,9.7987,9.7987,9.7987,9.7987,9.7987,9.7987,9.7987,9.7987,9.7987,9.7987,9.7987,9.7987,9.7987,9.7987,9.7987,9.8476,9.8679,9.8713,9.9442,9.978,4.7631,4.862,5.0176,5.186,0.0,0.0,6.0105,6.2347,6.4681,6.7861,6.6909,6.4945,6.3138,6.4011,6.5458,6.6789,6.9931,7.2595,7.3732,7.4061,7.4629,7.5766,7.6437,7.6976,7.7424,7.828,7.8699,7.8489,7.8687,7.8807,7.8807,7.8807,7.8489,7.7813,7.7155,7.6706,7.6527,7.6527,7.6617,7.6779,7.6779,7.8021,8.0238,7.9248,7.8549,7.8166,7.8934,7.9825,8.0901,8.3419,8.5571,8.7363,8.8046,8.8629,8.9086,8.9086,8.9086,8.9086,8.9086,8.9086,8.9086,8.9086,8.9086,8.9255,8.9985,9.0729,9.144,9.2203,9.256,9.274,9.274,9.274,9.2604,9.2035,9.1399,9.1258,9.2483,9.2422,9.2697,9.4681,9.5635,9.6394,9.7138,9.7664,9.7987,9.7987,9.7987,9.7987,9.7987,9.7987,9.7987,9.7987,9.7987,9.7987,9.7987,9.7987,9.8104,9.8341,9.8138,9.7987,9.7987,9.7987,9.7987,9.7987,9.824,9.8341,9.8341,9.9085,9.9457,9.9457,10.0186,10.0608,4.9383,4.9011,4.956,5.1792,0.0,0.0,6.3328,6.5777,6.8292,7.352,7.0753,6.6931,6.5309,6.5025,6.5488,6.6819,7.032,7.3146,7.3821,7.4497,7.5155,7.5826,7.6437,7.6779,7.6779,7.8011,7.8519,7.7861,7.843,7.8807,7.8807,7.8807,7.8489,7.7813,7.7155,7.6497,7.5916,7.5916,7.6198,7.6779,7.6779,7.7155,7.7813,7.846,7.8777,7.8837,7.9813,8.0676,8.1604,8.4309,8.6867,8.8917,8.7187,8.7572,8.9086,8.9086,8.9086,8.9086,8.9086,8.9086,8.9086,8.9086,8.9086,8.9255,8.9957,9.0701,9.1411,9.216,9.162,9.0879,9.0848,9.0848,9.0401,8.8656,8.961,9.0911,9.0927,9.2915,9.4909,9.5669,9.6394,9.7138,9.7867,9.7987,9.7987,9.7987,9.7987,9.7987,9.7987,9.7987,9.7987,9.7987,9.7987,9.7987,9.7987,9.8003,9.8341,9.9051,9.8409,9.8021,9.8021,9.7987,9.7987,9.7987,9.8713,9.9085,9.9085,9.9848,10.0204,10.0204,10.1014,10.1402,4.7834,4.9357,5.186,5.4118,5.8761,6.3903,0.0,6.8406,0.0,0.0,7.0673,6.8765,6.6771,6.7199,6.8106,6.896,7.1248,7.3313,7.4437,7.4766,7.4976,7.5185,7.5766,7.6347,7.6766,7.7574,7.822,7.8489,7.8687,7.8579,7.813,7.81,7.7801,7.7125,7.6497,7.6078,7.5916,7.5916,7.6006,7.6168,7.6617,7.7155,7.7801,7.7514,7.7394,7.743,7.7705,7.8922,8.0971,8.4647,8.6599,8.7319,8.8027,8.8623,8.9086,8.9086,8.9086,8.9086,8.9086,8.9086,8.9086,8.9086,8.9086,8.9092,8.9072,8.9226,8.9397,8.9426,8.9236,8.8705,8.7422,8.711,8.7593,8.9627,9.0497,9.139,9.3183,9.4174,9.506,9.6326,9.6732,9.7138,9.7867,9.7987,9.7987,9.7987,9.7987,9.7987,9.7987,9.7987,9.7987,9.7987,9.7987,9.7987,9.7987,9.8476,9.8848,9.9101,9.9374,9.9306,9.8815,9.8273,9.7987,9.7987,9.8713,9.9085,9.9085,10.0405,10.1014,10.1097,10.1792,10.2198,4.8984,5.0845,5.3619,5.7061,6.14,6.6101,7.103,7.1768,7.1552,7.1918,7.1076,6.9735,6.8086,6.8465,6.9303,7.0201,7.1996,7.3672,7.4736,7.4886,7.4886,7.4886,7.5497,7.5946,7.6036,7.7113,7.7861,7.8011,7.825,7.822,7.7813,7.7544,7.7215,7.6808,7.6198,7.5916,7.5916,7.5916,7.5916,7.5916,7.6258,7.6647,7.7053,7.7155,7.7065,7.6861,7.7811,7.9273,8.1224,8.4243,8.5905,8.6618,8.7645,8.8495,8.9016,8.8305,8.851,8.9002,8.829,8.8524,8.8988,8.8276,8.8075,8.8019,8.7702,8.7624,8.7694,8.8088,8.7696,8.6902,8.5774,8.4975,8.5143,8.8052,8.9316,9.0534,9.3095,9.3853,9.4574,9.6543,9.6547,9.66,9.7778,9.7987,9.7987,9.7987,9.7987,9.7987,9.7987,9.7987,9.7987,9.7987,9.7987,9.7987,9.7987,9.8679,9.9221,9.9525,9.9949,10.0118,9.9999,9.9288,9.8867,9.8867,9.9627,9.9999,9.9999,10.1216,10.1792,10.1792,10.2299,10.2486,5.142,5.2866,5.5065,6.0274,6.3049,6.6091,7.2124,7.5042,7.5872,7.3652,7.1667,7.0093,6.9333,6.9213,6.9662,7.0889,7.2654,7.4121,7.4813,7.4886,7.4886,7.4886,7.5455,7.5587,7.5035,7.6574,7.7394,7.6838,7.7365,7.7664,7.7634,7.7065,7.6706,7.6647,7.6078,7.5826,7.5826,7.5826,7.5826,7.5826,7.5826,7.5826,7.5856,7.7023,7.7185,7.6764,7.9087,8.0689,8.1791,8.3371,8.5009,8.648,8.648,8.747,8.8685,8.7083,8.7499,8.8671,8.7231,8.7781,8.8799,8.7083,8.648,8.6411,8.5985,8.5859,8.6113,8.735,8.6536,8.5251,8.5251,8.4031,8.3255,8.5084,8.6795,8.8761,9.1288,9.2511,9.3817,9.626,9.6047,9.6014,9.7706,9.7987,9.7987,9.7987,9.7987,9.7987,9.7987,9.7987,9.7987,9.7987,9.7987,9.7987,9.7987,9.8747,9.9491,10.0186,10.0305,10.0693,10.1503,10.0709,10.022,10.022,10.098,10.1402,10.1402,10.208,10.2486,10.2486,10.2486,10.2486,4.9416,5.2841,5.734,6.2584,6.8059,7.2502,7.395,7.4149,7.3877,7.3337,7.1886,7.0693,7.0534,7.0919,7.1534,7.2339,7.3283,7.4121,7.4813,7.4886,7.4886,7.4886,7.5035,7.5275,7.5647,7.6066,7.6437,7.6779,7.6928,7.6826,7.6317,7.6185,7.5856,7.5335,7.5185,7.5125,7.5125,7.5125,7.5125,0.0,7.5125,7.5125,7.5125,7.5395,7.5455,7.5382,7.6903,7.8475,8.0154,8.289,8.5009,8.648,8.648,8.6738,8.7024,8.6648,8.6738,8.7202,8.819,8.8785,8.8799,8.7083,8.648,8.6182,8.4481,8.3981,8.3998,8.3953,8.3691,8.3386,8.3386,8.3097,8.3255,8.5084,8.6179,8.7496,9.0088,9.2364,9.4189,9.5356,9.6542,9.755,9.7941,9.7987,9.7987,9.7987,9.7987,9.7987,9.7987,9.7987,9.7987,9.7987,9.7987,9.7987,9.7987,9.9205,10.0001,10.0186,10.1302,10.2096,10.2299,10.088,10.022,10.022,10.098,10.1402,10.1402,10.208,10.2486,10.2486,10.2486,10.2486,5.071,5.4702,5.953,6.6576,7.1725,7.5082,7.5063,7.4136,7.3276,7.3261,7.2243,7.1368,7.1368,7.2176,7.2954,7.3313,7.3941,7.4497,7.4856,7.4886,7.4886,7.4886,7.4886,7.5035,7.5395,7.5707,7.6018,7.6347,7.6377,7.6228,7.5916,7.5587,7.5275,7.4916,7.4886,7.4886,7.4886,7.4886,7.4886,7.4886,7.4886,7.4886,7.4886,7.4886,7.5065,7.5425,7.6078,7.7312,7.9112,8.2237,8.3989,8.4862,8.6047,8.6012,8.532,8.532,8.5813,8.6633,8.7543,8.7853,8.7572,8.5859,8.4741,8.3815,8.253,8.2167,8.2243,8.2669,8.2806,8.2806,8.2806,8.2806,8.3041,8.3976,8.534,8.7123,8.9758,9.155,9.321,9.4864,9.5997,9.693,9.7864,9.7987,9.7987,9.7987,9.7987,9.7987,9.7987,9.7987,9.8138,9.8476,9.8544,9.8679,9.9002,10.0084,10.0811,10.0811,10.1893,10.2486,10.2486,10.1708,10.1302,10.1302,10.169,10.1893,10.1893,10.2299,10.2486,10.2486,10.2486,10.2486,5.1665,5.6461,6.1864,7.0601,7.3969,7.5245,7.5605,7.4135,7.2768,7.2845,7.2279,7.1743,7.1743,7.2804,7.3732,7.3732,7.4377,7.4886,7.4886,7.4886,7.4886,7.4886,7.4886,7.4886,7.4886,7.5395,7.5736,7.5736,7.5736,7.5736,7.5736,7.5215,7.4886,7.4886,7.4886,7.4886,7.4886,7.4886,7.4886,7.4886,7.4886,7.4886,7.4886,7.4886,7.5215,7.5736,7.5856,7.6827,7.8518,8.1266,8.2573,8.3018,8.4772,8.4675,8.3592,8.3899,8.4678,8.5688,8.6285,8.63,8.5798,8.4123,8.2591,8.1313,8.093,8.0794,8.1063,8.2417,8.2806,8.2806,8.2806,8.2806,8.2806,8.2806,8.4498,8.6713,8.8878,9.0435,9.206,9.428,9.5227,9.6175,9.7721,9.7987,9.7987,9.7987,9.7987,9.7987,9.7987,9.7987,9.8273,9.9018,9.9085,9.939,10.0102,10.0912,10.1402,10.1402,10.2096,10.2486,10.2486,10.2486,10.2486,10.2486,10.2486,10.2486,10.2486,10.2486,10.2486,10.2486,10.2486,10.2486,4.724,5.5209,6.4739,7.2417,7.3564,7.3348,7.5174,7.293,7.0583,7.1124,7.1111,7.1038,7.1038,7.2146,7.3027,7.3027,7.4061,7.4886,7.4886,7.4886,7.4886,7.4886,7.4886,7.4886,7.4886,7.4976,7.5035,7.5035,7.5035,7.5035,7.5035,7.4946,7.4886,7.4886,7.4886,7.4886,7.4886,7.4886,7.4886,7.4886,7.4886,7.4886,7.4886,7.4886,7.4946,7.5065,7.5647,7.6861,7.8456,7.9463,8.1117,8.286,8.1681,8.1411,8.1922,8.3446,8.3185,8.2493,8.5458,8.5552,8.4059,8.2325,8.1599,8.1313,8.093,8.0794,8.1063,8.2417,8.2806,8.2806,8.2806,8.2806,8.2806,8.2806,8.3876,8.5027,8.5374,8.903,9.2353,9.2712,9.5409,9.7706,9.7956,9.7987,9.7987,9.7987,9.7987,9.7987,9.7987,9.7987,9.8273,9.9018,9.9085,9.939,10.0102,10.0912,10.1402,10.1402,10.2096,10.2486,10.2486,10.2486,10.2486,10.2486,10.2486,10.2486,10.2486,10.2486,10.2486,10.2486,10.2486,10.2486,5.1758,5.8533,6.5281,7.2208,7.2864,7.2026,7.2921,7.1752,7.047,7.041,7.0649,7.1009,7.1398,7.2565,7.3462,7.3462,7.4287,7.4886,7.4886,7.4886,7.4886,7.4886,7.4886,7.4886,7.4886,7.4886,7.4886,7.4886,7.4886,7.4886,7.4886,7.4886,7.4886,7.4886,7.4527,7.4347,7.4347,7.3988,7.3988,7.4347,7.4347,7.4527,7.4886,7.4886,7.4886,7.4933,7.5215,7.6284,7.7849,7.8564,7.9441,8.0355,8.0382,7.9981,7.9625,8.1781,8.2057,8.1737,8.4235,8.3963,8.2425,8.1649,8.0739,8.006,8.0632,8.0794,8.1063,8.2417,8.2806,8.2806,8.2806,8.2806,8.2806,8.2806,8.3775,8.4694,8.4694,8.8755,9.3041,9.5145,9.6851,9.7987,9.7987,9.7987,9.7987,9.7987,9.7987,9.7987,9.7987,9.7987,9.8442,9.9577,9.9728,10.0186,10.1403,10.1792,10.1995,10.1995,10.2283,10.2486,10.2486,10.2486,10.2486,10.2486,10.2486,10.2486,10.2486,10.2486,10.2486,10.2486,10.2486,10.2486,5.4025,5.8872,6.2724,6.9531,7.069,7.0382,7.1073,7.0828,7.038,7.0247,7.059,7.1038,7.1564,7.2611,7.3373,7.3373,7.3958,7.4437,7.4616,7.4646,7.4706,7.4886,7.4886,7.4886,7.4886,7.4886,7.4886,7.4886,7.4886,7.4886,7.4886,7.4886,7.4826,7.4646,7.4168,7.3821,7.3642,7.3146,7.3146,7.3642,7.3642,7.4001,7.4646,7.4646,7.4736,7.4886,7.4886,7.556,7.673,7.7286,7.7577,7.7817,7.9004,7.8777,7.8092,8.051,8.1135,8.0997,8.2725,8.2208,8.0739,8.0739,7.9979,7.9267,8.0434,8.0913,8.1302,8.2477,8.2806,8.2806,8.2806,8.2806,8.2806,8.2806,8.3775,8.5064,8.6359,8.9671,9.3526,9.7281,9.7987,9.7987,9.7987,9.7987,9.7987,9.7987,9.7987,9.7987,9.7987,9.8172,9.8765,10.0084,10.0389,10.0998,10.2401,10.2486,10.2486,10.2486,10.2486,10.2486,10.2486,10.2486,10.2486,10.2486,10.2486,10.2486,10.2486,10.2486,10.2486,10.2486,10.2486,10.2486,4.8688,5.2258,5.5848,6.3364,6.6185,6.7852,7.0671,7.0159,6.9423,7.062,7.0889,7.0919,7.0949,7.1517,7.2013,7.2013,7.2565,7.3223,7.3851,7.3941,7.4197,7.4826,7.4886,7.4886,7.4886,7.4886,7.4886,7.4886,7.4886,7.4886,7.4886,7.4886,7.4616,7.3971,7.3911,7.3582,7.2967,7.2907,7.2907,7.2937,7.2937,7.3313,7.3941,7.3941,7.4317,7.4886,7.4886,7.4954,7.504,7.507,7.5442,7.6085,7.6727,7.7333,7.8092,8.051,8.0353,7.919,8.0929,8.0405,7.8951,7.8951,7.928,7.9878,8.0584,8.1242,8.189,8.2597,8.2806,8.2806,8.2806,8.2806,8.2806,8.2806,8.3775,8.6032,9.0928,9.2205,9.3526,9.7281,9.7987,9.7987,9.7987,9.7987,9.7987,9.7987,9.7987,9.7987,9.7987,9.8612,9.9356,10.0102,10.0878,10.1706,10.2384,10.2486,10.2486,10.2486,10.2486,10.2486,10.2486,10.2486,10.2486,10.2486,10.2486,10.2486,10.2486,10.2486,10.2486,10.2486,10.2486,10.2486,4.7346,4.9497,5.2004,5.8954,6.1934,6.3795,6.6085,6.7863,6.9123,6.9602,7.0021,7.044,7.0829,7.1457,7.1893,7.1893,7.2475,7.3116,7.3791,7.3881,7.4168,7.4826,7.4886,7.4736,7.4317,7.4257,7.4078,7.3642,7.3612,7.3612,7.3612,7.3612,7.3522,7.3283,7.2834,7.2295,7.1637,7.1637,7.1846,7.2265,7.2265,7.2834,7.3881,7.3881,7.4257,7.4886,7.4886,7.4886,7.4886,7.4886,7.5305,7.5976,7.6557,7.7215,7.7962,7.9256,7.935,7.8897,7.9516,7.9302,7.8867,7.9297,7.9608,7.9997,8.1093,8.162,8.1949,8.2627,8.2806,8.2806,8.2806,8.3087,8.3606,8.4464,8.5013,8.6299,8.9798,9.1506,9.3526,9.7281,9.7987,9.7987,9.7987,9.7987,9.7987,9.7987,9.8409,9.8713,9.8713,9.9356,10.01,10.0878,10.1183,10.1706,10.2384,10.2486,10.2486,10.2486,10.2486,10.2486,10.2486,10.2486,10.2486,10.2486,10.2486,10.2486,10.2486,10.2486,10.2486,10.2486,10.2486,10.2486,4.46,4.6332,4.8964,5.5238,5.7406,5.9114,6.3375,6.5562,6.6999,6.8106,6.9229,7.0127,7.053,7.1128,7.1547,7.1547,7.1936,7.2458,7.3133,7.324,7.3462,7.4168,7.4227,7.4031,7.3612,7.3552,7.3373,7.2937,7.2907,0.0,7.2907,7.2907,7.2787,7.2565,7.1906,7.1338,7.0889,7.0889,7.1128,7.1547,7.1547,7.2265,7.3552,7.3552,7.4031,7.4886,7.4886,7.4886,7.4886,7.4886,7.5305,7.5976,7.6557,7.7215,7.7891,7.8549,7.8807,7.8807,7.8807,7.8807,7.8908,7.9578,7.9937,8.0326,8.1471,8.1949,8.2238,8.2687,8.2806,8.2806,8.2806,8.3247,8.4036,8.5372,8.5701,8.6407,8.8944,9.1018,9.3336,9.645,9.7581,9.7987,9.7987,9.7987,9.8089,9.8341,9.8781,9.9187,9.9424,10.0084,10.0811,10.1284,10.1605,10.2011,10.2502,10.2486,10.2486,10.2486,10.2486,10.2486,10.2486,10.2486,10.2486,10.2486,10.2486,10.2486,10.2486,10.2486,10.2486,10.2486,10.2486,10.2486,0.0,0.0,0.0,5.1949,5.2537,5.4014,6.2633,6.3184,6.281,6.6206,6.8421,6.9798,6.9947,7.044,7.0859,7.0859,7.0889,7.1128,7.1803,7.1893,7.2162,7.2817,7.2907,7.2877,7.2877,7.2877,7.2847,7.2847,7.2847,7.2847,7.2847,7.2847,7.2535,7.1893,7.1248,7.0889,7.0889,7.0889,7.0889,7.0889,7.0889,7.1591,7.2907,7.2907,7.3642,7.4886,7.4886,7.4886,7.4886,7.4886,7.5305,7.5976,7.6557,7.7215,7.7891,7.8549,7.8807,7.8807,7.8807,7.8807,7.8908,7.9608,8.0266,8.0913,8.162,8.2279,8.2806,8.2806,8.2806,8.2806,8.2836,8.3277,8.4066,8.5402,8.5731,8.6418,8.8881,9.0927,9.287,9.4813,9.6675,9.7941,9.7987,9.8021,9.8273,9.8984,9.9135,9.9424,10.0102,10.0912,10.1402,10.1402,10.2096,10.2486,10.2486,10.2486,10.2486,10.2486,10.2486,10.2486,10.2486,10.2486,10.2486,10.2486,10.2486,10.2486,10.2486,10.2486,10.2486,10.2486,10.2486,10.2486,4.0554,0.0,0.0,0.0,0.0,0.0,5.4044,5.5735,5.7872,6.3093,6.4231,6.5293,6.8645,6.9423,6.9692,7.0187,7.062,7.1128,7.1803,7.1893,7.2162,7.2817,7.2907,7.2698,7.2206,7.2176,7.1966,0.0,7.1457,7.1457,7.1457,7.1457,7.1368,7.1188,7.1009,7.0889,7.0889,7.0889,7.0889,7.0889,7.0889,7.1591,7.2907,7.2907,7.3642,7.4886,7.4886,7.4886,7.4886,7.4886,7.5305,7.5976,7.6557,7.7215,7.7891,7.8549,7.8807,7.8807,7.8807,7.8807,7.8986,8.0165,8.0644,8.1003,8.2159,8.2657,8.2806,8.2806,8.2806,8.3016,8.3936,8.4295,8.4754,8.611,8.6409,8.6627,8.7336,8.8959,9.129,9.4562,9.5622,9.6418,9.7752,9.8442,9.8848,9.9067,9.9999,10.0811,10.1014,10.169,10.2198,10.2198,10.2401,10.2486,10.2486,10.2486,10.2486,10.2486,10.2486,10.2486,10.2486,10.2486,10.2486,10.2486,10.2486,10.2486,10.2486,10.2486,10.2486,10.2486,10.2486,10.2486,0.0,0.0,0.0,0.0,0.0,0.0,5.2067,5.3102,5.464,6.0609,6.2405,6.3797,6.6774,6.8016,6.872,6.9109,6.9708,7.044,7.1338,7.1487,7.1637,7.2009,7.2086,7.1906,7.1517,7.1487,7.1308,7.0919,7.0889,7.0889,7.0889,7.0889,7.0889,7.0889,7.0889,7.0889,7.0889,7.0889,7.0889,7.0889,7.0889,7.1591,7.2907,7.2907,7.3642,7.4886,7.4886,7.4886,7.4886,7.4886,7.5437,7.6317,7.6659,7.7365,7.825,7.8657,7.8807,7.8807,7.8807,7.8807,7.8998,8.0375,8.0794,8.1033,8.2387,8.2806,8.2806,8.2806,8.2806,8.3106,8.4384,8.4694,8.5043,8.6379,8.6708,8.6708,8.6708,8.7551,8.923,9.224,9.3476,9.4377,9.5475,9.6921,9.804,9.8357,10.011,10.1503,10.1792,10.2181,10.2486,10.2486,10.2486,10.2486,10.2486,10.2486,10.2486,10.2486,10.2486,10.2486,10.2486,10.2486,10.2486,10.2486,10.2486,10.2486,10.2486,10.2486,10.2486,10.2486,10.2486,10.2486,4.1128,4.2302,0.0,0.0,4.5445,0.0,5.2899,5.2636,5.2324,5.7842,6.0954,6.3019,6.4037,6.5802,6.7119,6.7119,6.7942,6.9093,7.059,7.0799,7.0829,7.0889,7.0889,7.0889,7.0889,7.0889,7.0889,7.0889,7.0889,7.0889,7.0889,7.0889,7.0889,7.0889,7.0889,7.0889,7.0889,7.0889,7.0889,7.0889,7.0889,7.1591,7.2907,7.2907,7.3642,7.4886,7.4886,7.4886,7.4886,7.4886,7.5617,7.6706,7.6779,7.7574,7.8699,7.8759,7.8807,7.8807,7.8807,7.8807,7.8998,8.0375,8.0794,8.1033,8.2387,8.2806,8.2806,8.2806,8.2806,8.3106,8.4384,8.4694,8.5043,8.6379,8.6708,8.6708,8.6708,8.6708,8.7201,8.8864,9.0727,9.2163,9.2375,9.445,9.6393,9.7254,9.9549,10.1515,10.2402,10.2486,10.2486,10.2486,10.2486,10.2486,10.2486,10.2486,10.2486,10.2486,10.2486,10.2486,10.2486,10.2486,10.2486,10.2486,10.2486,10.2486,10.2486,10.2486,10.2486,10.2486,10.2486,10.2486,4.4398,4.5384,4.6461,4.5354,0.0,0.0,4.5395,4.6632,4.8824,5.1565,5.3401,5.5508,5.8846,6.0655,6.1627,6.1627,6.3977,6.6804,6.9752,7.0187,7.0366,7.0829,7.0889,7.0889,7.0889,7.0889,7.0889,7.0889,7.0889,7.0889,7.0889,7.0889,7.0889,7.0889,7.0889,7.0889,7.0889,7.0889,7.0889,7.0889,7.0889,7.1591,7.2907,7.2907,7.3642,7.4886,7.4886,7.4886,7.4886,7.4886,7.5347,7.6108,7.6617,7.7305,7.8071,7.8579,7.8807,7.8807,7.8807,7.8807,7.8998,8.0375,8.0794,8.1033,8.2387,8.2806,8.2806,8.2806,8.2806,8.3106,8.4384,8.4694,8.5043,8.6379,8.6708,8.6708,8.6708,8.6708,8.6797,8.7181,8.8769,9.0544,9.2113,9.3754,9.5451,9.7134,9.8813,10.0484,10.229,10.2486,10.2486,10.2486,10.2486,10.2486,10.2486,10.2486,10.2486,10.2486,10.2486,10.2486,10.2486,10.2486,10.2486,10.2486,10.2486,10.2486,10.2486,10.2486,10.2486,10.2486,10.2486,10.2486,4.629,4.677,4.7698,4.7347,0.0,0.0,0.0,4.6292,4.7249,5.0529,5.1457,5.2623,5.5615,5.6974,5.7962,5.8949,6.1329,6.3872,6.6236,6.8271,6.9602,6.9931,6.9961,7.0081,7.041,7.044,7.056,7.0889,7.0889,7.0889,7.0889,7.0889,7.0889,7.0889,7.0889,7.0889,7.0889,7.0889,7.0889,7.0889,7.0889,7.1591,7.2907,7.2907,7.3642,7.4886,7.4886,7.4886,7.4886,7.4886,7.5467,7.6377,7.6659,7.7424,7.834,7.8687,7.8807,7.8807,7.8807,7.9028,7.9477,8.0464,8.1033,8.15,8.2488,8.2806,8.2806,8.2806,8.2806,8.3106,8.4384,8.4694,8.5043,8.6379,8.6708,8.6708,8.6708,8.6708,8.6708,8.6708,8.7464,8.8399,8.9412,9.1481,9.3713,9.5718,9.7987,10.0211,10.2192,10.2486,10.2486,10.2486,10.2486,10.2486,10.2486,10.2486,10.2486,10.2486,10.2486,10.2486,10.2486,10.2486,10.2486,10.2486,10.2486,10.2486,10.2486,10.2486,10.2486,10.2486,10.2486,10.2486,0.0,0.0,0.0,0.0,0.0,4.7638,0.0,0.0,0.0,5.0032,5.0559,5.0978,5.2743,5.3593,5.4593,5.6154,5.8308,6.0192,6.1417,6.4635,6.7178,6.7956,6.8375,6.8824,6.9379,6.9199,6.9453,7.047,7.0171,7.0201,7.0709,7.0829,7.0889,7.0889,7.0889,7.0889,7.0889,7.0889,7.0889,7.0889,7.0889,7.1591,7.2907,7.2907,7.3642,7.4886,7.4886,7.4886,7.4886,7.4886,7.5647,7.6779,7.6779,7.7604,7.8807,7.8807,7.8807,7.8807,7.8807,7.9238,7.9907,8.0584,8.1351,8.2069,8.2627,8.2806,8.2806,8.2806,8.2806,8.3106,8.4384,8.4694,8.5043,8.6379,8.6708,8.6708,8.6708,8.6708,8.6708,8.6708,8.6708,8.6708,8.6708,8.9112,9.1729,9.3726,9.6829,9.9665,10.1717,10.2292,10.2486,10.2486,10.2486,10.2486,10.2486,10.2486,10.2486,10.2486,10.2486,10.2486,10.2486,10.2486,10.2486,10.2486,10.2486,10.2486,10.2486,10.2486,10.2486,10.2486,10.2486,10.2603,0.0,0.0,0.0,0.0,5.2211,0.0,0.0,0.0,0.0,4.5563,0.0,4.7986,4.8816,0.0,0.0,5.0265,5.2935,5.5226,5.5987,5.7979,6.0641,6.4156,6.6131,6.7254,6.7343,6.6281,6.6595,6.9034,6.7552,6.7597,6.9977,7.062,7.0889,7.0889,7.0889,7.0889,7.0889,7.0889,7.0889,7.0889,7.0889,7.1591,7.2907,7.2907,7.3642,7.4886,7.4886,7.4886,7.4886,7.4886,7.5647,7.6779,7.6779,7.7604,7.8807,7.8807,7.8807,7.8807,7.8807,7.9238,7.9907,8.0584,8.165,8.2687,8.2776,8.2806,8.2806,8.2806,8.2806,8.3106,8.4384,8.4694,8.5043,8.6379,8.6708,8.6708,8.6708,8.6708,8.6708,8.6708,8.6708,8.6708,8.6708,8.7986,8.9698,9.1653,9.4789,9.761,9.9596,10.1403,10.2486,10.2486,10.2486,10.2486,10.2486,10.2486,10.2486,10.2486,10.2486,10.2486,10.2486,10.2486,10.2486,10.2486,10.2486,10.2486,10.2486,10.2486,10.2486,10.2486,10.2486,10.2924,0.0,0.0,0.0,0.0,0.0,0.0,4.6482,0.0,4.5862,0.0,0.0,0.0,0.0,0.0,0.0,0.0,5.023,0.0,5.2252,5.4012,5.6855,6.1238,6.1433,0.0,6.3961,6.4336,6.5368,6.7657,6.6325,6.6595,6.9273,7.0037,7.053,7.0889,7.0889,7.0889,7.0889,7.0889,7.0889,7.0889,7.0889,7.1591,7.2907,7.2907,7.3642,7.4886,7.4886,7.4886,7.4886,7.4886,7.5647,7.6779,7.6779,7.7604,7.8807,7.8807,7.8807,7.8807,7.8807,7.9477,8.0554,8.162,8.2357,8.2806,8.2806,8.2806,8.2806,8.2806,8.3057,8.3547,8.4455,8.4983,8.5521,8.6469,8.6708,8.6708,8.6708,8.6708,8.6708,8.6708,8.6708,8.6708,8.6708,8.7816,8.9758,9.2857,9.5197,9.7732,10.0785,10.2013,10.2486,10.2486,10.2486,10.2486,10.2486,10.2486,10.2486,10.2486,10.2486,10.2486,10.2486,10.2486,10.2486,10.2486,10.2486,10.2486,10.2486,10.2892,10.3095,10.3095,10.3095,10.3314,5.5281,0.0,0.0,0.0,0.0,0.0,0.0,0.0,0.0,0.0,0.0,0.0,0.0,0.0,0.0,0.0,0.0,4.968,4.968,5.0451,5.2677,5.7124,5.7347,0.0,0.0,6.1746,6.3003,6.5727,6.4366,6.4859,6.8256,6.9243,6.9991,7.062,7.0799,7.0889,7.0889,7.0889,7.0889,7.0889,7.0889,7.1591,7.2907,7.2907,7.3642,7.4886,7.4886,7.4886,7.4916,7.5095,7.5826,7.6826,7.7006,7.7801,7.8807,7.8807,7.8807,7.8837,7.8998,7.9956,8.1242,8.2417,8.2806,8.2806,8.2806,8.2806,8.2806,8.2806,8.3217,8.3837,8.4515,8.5192,8.5851,8.6529,8.6708,8.6708,8.6708,8.6708,8.6708,8.6708,8.6708,8.6708,8.6708,8.7816,8.9857,9.3266,9.5381,9.784,10.1203,10.221,10.2486,10.2486,10.2486,10.2486,10.2486,10.2486,10.2486,10.2486,10.2486,10.2486,10.2486,10.2486,10.2486,10.2486,10.2486,10.2603,10.2806,10.3298,10.3686,10.3905,10.3905,10.399,0.0,0.0,0.0,5.2223,0.0,0.0,0.0,0.0,4.9168,0.0,0.0,0.0,0.0,0.0,0.0,0.0,0.0,0.0,0.0,4.6751,4.704,5.0996,5.482,5.7915,0.0,5.7929,5.8318,6.2884,6.0775,6.1553,6.6805,6.8315,6.9333,7.0007,7.059,7.0889,7.0889,7.0889,7.0889,7.0889,7.0889,7.1591,7.2907,7.2907,7.3642,7.4886,7.4886,7.4886,7.4946,7.5587,7.6228,7.6838,7.7514,7.819,7.8807,7.8807,7.8807,7.8878,7.9548,8.0644,8.189,8.2567,8.2806,8.2806,8.2806,8.2806,8.2806,8.2806,8.3217,8.3837,8.4515,8.5192,8.5851,8.6529,8.6708,8.6708,8.6708,8.6708,8.6708,8.6708,8.6708,8.6708,8.6708,8.7816,8.9389,9.1404,9.449,9.732,9.9338,10.1303,10.2486,10.2486,10.2486,10.2486,10.2486,10.2486,10.2486,10.2486,10.2486,10.2486,10.2486,10.2486,10.2486,10.2486,10.2486,10.2924,10.3601,10.3601,10.4007,10.47,10.47,10.5005,0.0,0.0,6.2436,5.5807,0.0,0.0,0.0,0.0,0.0,0.0,0.0,0.0,0.0,0.0,0.0,0.0,0.0,0.0,0.0,0.0,0.0,4.692,5.0799,5.3653,5.476,5.5683,5.7377,6.025,5.9608,6.1,6.5428,6.7358,6.866,6.9319,7.035,7.0889,7.0889,7.0889,7.0889,7.0919,7.1338,7.2026,7.2907,7.3373,7.4031,7.4886,7.4886,7.4886,7.4946,7.5617,7.6258,7.6886,7.7544,7.822,7.8807,7.8807,7.8807,7.8938,8.0075,8.1033,8.1919,8.2597,8.2806,8.2806,8.2806,8.2806,8.2806,8.2806,8.3547,8.4425,8.4634,8.5521,8.6409,8.6648,8.6708,8.6708,8.6708,8.6708,8.6708,8.6708,8.6708,8.7083,8.8341,8.9693,9.1288,9.3284,9.6399,9.9233,10.1203,10.2095,10.2486,10.2486,10.2486,10.2486,10.2486,10.2486,10.2486,10.2486,10.2486,10.2486,10.2486,10.2486,10.2486,10.2486,10.3009,10.3398,10.3585,10.4599,10.5208,10.5411,10.5885,10.5986,6.3512,6.4366,0.0,5.8873,5.7885,0.0,5.1349,0.0,0.0,0.0,0.0,0.0,0.0,0.0,0.0,0.0,0.0,0.0,0.0,4.2232,0.0,0.0,4.7837,5.0619,5.2725,5.3216,5.4773,5.8141,5.7304,5.8577,6.3034,6.5592,6.7358,6.8256,6.9782,7.0679,7.0889,7.0889,7.0889,7.0919,7.1593,7.2235,7.2907,7.3582,7.4257,7.4886,7.4886,7.4886,7.4976,7.5856,7.6467,7.6886,7.7801,7.843,7.8807,7.8807,7.9088,7.9627,8.0494,8.1411,8.2238,8.2657,8.2806,8.2806,8.2806,8.2806,8.2806,8.2806,8.3715,8.4694,8.4694,8.5701,8.6708,8.6708,8.6708,8.6708,8.6708,8.6708,8.6708,8.6708,8.6708,8.7083,8.8284,9.022,9.2501,9.5174,9.7813,10.0211,10.2192,10.2486,10.2486,10.2486,10.2486,10.2486,10.2486,10.2486,10.2486,10.2486,10.2486,10.2486,10.2486,10.2486,10.2486,10.2486,10.3212,10.3686,10.4007,10.5208,10.5902,10.6189,10.6714,10.6595]},{"header":{"parameterUnit":"m.s-1","parameterCategory":1,"la1":30.6,"la2":29.2853,"lo1":-89.7004,"lo2":-87.6739,"dy":0.0162,"dx":0.0183,"nx":112,"ny":82,"refTime":"2026-03-08T00:00:00:Z","depth":0,"parameterNumber":3,"parameterNumberName":"V-component_of_WINDS"},"data":[0.0,0.0,0.0,0.0,0.0,0.0,0.0,0.0,0.0,0.0,0.0,0.0,0.0,0.0,0.0,0.0,0.0,0.0,0.0,0.0,0.0,0.0,0.0,0.0,0.0,0.0,0.0,0.0,0.0,0.0,0.0,0.0,0.0,0.0,0.0,0.0,0.0,0.0,0.0,0.0,0.0,0.0,0.0,0.0,0.0,0.0,0.0,0.0,0.0,0.0,0.0,0.0,0.0,0.0,0.0,0.0,0.0,0.0,0.0,0.0,0.0,0.0,0.0,0.0,0.0,0.0,0.0,0.0,0.0,0.0,0.0,0.0,0.0,0.0,0.0,0.0,0.0,0.0,0.0,0.0,0.0,0.0,0.0,0.0,0.0,0.0,0.0,0.0,0.0,0.0,1.7929,1.987,2.2439,2.4168,2.4644,2.4088,2.2515,1.9694,0.0,0.0,0.0,0.0,0.0,0.0,0.0,0.0,0.0,0.0,0.0,0.0,0.0,0.0,0.0,0.0,0.0,0.0,0.0,0.0,0.0,0.0,0.0,0.0,0.0,0.0,0.0,0.0,0.0,0.0,0.0,0.0,0.0,0.0,0.0,0.0,0.0,0.0,0.0,0.0,0.0,0.0,0.0,0.0,0.0,0.0,0.0,0.0,0.0,0.0,0.0,0.0,0.0,0.0,0.0,0.0,0.0,0.0,0.0,0.0,0.0,0.0,0.0,0.0,0.0,0.0,0.0,0.0,0.0,0.0,0.0,0.0,0.0,0.0,0.0,0.0,0.0,0.0,0.0,0.0,0.0,0.0,0.0,0.0,0.0,0.0,0.0,0.0,0.0,0.0,0.0,0.0,0.0,0.0,0.0,0.0,0.0,0.0,0.0,0.0,0.0,0.0,0.0,0.0,1.8719,2.2706,2.4187,2.4935,2.5029,2.4022,2.2428,2.0225,0.0,0.0,0.0,0.0,0.0,0.0,0.0,0.0,0.0,0.0,0.0,0.0,0.0,0.0,0.0,0.0,0.0,0.0,0.0,0.0,0.0,0.0,0.0,0.0,0.0,0.0,0.0,0.0,0.0,0.0,0.0,0.0,0.0,0.0,0.0,0.0,0.0,0.0,0.0,0.0,0.0,0.0,0.0,0.0,0.0,0.0,0.0,0.0,0.0,0.0,0.0,0.0,0.0,0.0,0.0,0.0,0.0,0.0,0.0,0.0,0.0,0.0,0.0,0.0,0.0,0.0,0.0,0.0,0.0,0.0,0.0,0.0,0.0,0.0,0.0,0.0,0.0,0.0,0.0,0.0,0.0,0.0,0.0,0.0,0.0,0.0,0.0,0.0,0.0,0.0,0.0,0.0,0.0,0.0,0.0,0.0,0.0,0.0,0.0,0.0,0.0,0.0,0.0,1.8304,2.0418,2.3875,2.489,2.5317,2.5317,2.4235,2.2619,2.0344,1.8809,0.0,0.0,0.0,0.0,0.0,0.0,0.0,0.0,0.0,0.0,0.0,0.0,0.0,0.0,0.0,0.0,0.0,0.0,0.0,0.0,0.0,0.0,0.0,0.0,0.0,0.0,0.0,0.0,0.0,0.0,0.0,0.0,0.0,0.0,0.0,0.0,0.0,0.0,0.0,0.0,0.0,0.0,0.0,0.0,0.0,0.0,0.0,0.0,0.0,0.0,0.0,0.0,0.0,0.0,0.0,0.0,0.0,0.0,0.0,0.0,0.0,0.0,0.0,0.0,0.0,0.0,0.0,0.0,0.0,0.0,0.0,0.0,0.0,0.0,0.0,0.0,0.0,0.0,0.0,0.0,0.0,0.0,0.0,0.0,0.0,0.0,0.0,0.0,0.0,0.0,0.0,0.0,0.0,0.0,0.0,0.0,0.0,0.0,0.0,0.0,0.0,0.0,2.055,2.2141,2.4546,2.5304,2.5585,2.5499,2.4334,2.2622,2.0344,1.8569,0.0,0.0,0.0,0.0,0.0,0.0,0.0,0.0,0.0,0.0,0.0,0.0,0.0,0.0,0.0,0.0,0.0,0.0,0.0,0.0,0.0,0.0,0.0,0.0,0.0,0.0,0.0,0.0,0.0,0.0,0.0,0.0,0.0,0.0,0.0,0.0,0.0,0.0,0.0,0.0,0.0,0.0,0.0,0.0,0.0,0.0,0.0,0.0,0.0,0.0,0.0,0.0,0.0,0.0,0.0,0.0,0.0,0.0,0.0,0.0,0.0,0.0,0.0,0.0,0.0,0.0,0.0,0.0,0.0,0.0,0.0,0.0,0.0,0.0,0.0,0.0,0.0,0.0,0.0,0.0,0.0,0.0,0.0,0.0,0.0,0.0,0.0,0.0,0.0,0.0,0.0,0.0,0.0,0.0,0.0,0.0,0.0,0.0,0.0,0.0,0.0,0.0,2.1178,2.3438,2.5232,2.5751,2.5831,2.5531,2.3946,2.2168,2.0317,1.7822,0.0,0.0,0.0,0.0,0.0,0.0,0.0,0.0,0.0,0.0,0.0,0.0,0.0,0.0,0.0,0.0,0.0,0.0,0.0,0.0,0.0,0.0,0.0,0.0,0.0,0.0,0.0,0.0,0.0,0.0,0.0,0.0,0.0,0.0,0.0,0.0,0.0,0.0,0.0,0.0,0.0,0.0,0.0,0.0,0.0,0.0,0.0,0.0,0.0,0.0,0.0,0.0,0.0,0.0,0.0,0.0,0.0,0.0,0.0,0.0,0.0,0.0,0.0,0.0,0.0,0.0,0.0,0.0,0.0,0.0,0.0,0.0,0.0,0.0,0.0,0.0,0.0,0.0,0.0,0.0,0.0,0.0,0.0,0.0,0.0,0.0,0.0,0.0,0.0,0.0,0.0,0.0,0.0,0.0,0.0,0.0,0.0,0.0,0.0,0.0,0.0,0.0,2.1458,2.3157,0.0,2.5945,2.6551,2.725,2.524,2.3727,2.317,0.0,0.0,0.0,0.0,0.0,0.0,0.0,0.0,0.0,0.0,0.0,0.0,0.0,0.0,0.0,0.0,0.0,0.0,0.0,0.0,0.0,0.0,0.0,0.0,0.0,0.0,0.0,0.0,0.0,0.0,0.0,0.0,0.0,0.0,0.0,0.0,0.0,0.0,0.0,0.0,0.0,0.0,0.0,0.0,0.0,0.0,0.0,0.0,0.0,0.0,0.0,0.0,0.0,0.0,0.0,0.0,0.0,0.0,0.0,0.0,0.0,0.0,0.0,0.0,0.0,0.0,0.0,0.0,0.0,0.0,0.0,0.0,0.0,0.0,0.0,0.0,0.0,0.0,0.0,0.0,0.0,0.0,0.0,0.0,0.0,0.0,0.0,0.0,0.0,0.0,0.0,0.0,0.0,0.0,0.0,0.0,0.0,0.0,0.0,0.0,0.0,0.0,2.1656,2.3393,2.5141,0.0,2.8019,2.8661,2.9481,2.6765,2.4977,2.4887,0.0,0.0,0.0,0.0,0.0,0.0,0.0,0.0,0.0,0.0,0.0,0.0,0.0,0.0,0.0,0.0,0.0,0.0,0.0,0.0,0.0,0.0,0.0,0.0,0.0,0.0,0.0,0.0,0.0,0.0,0.0,0.0,0.0,0.0,0.0,0.0,0.0,0.0,0.0,0.0,0.0,0.0,0.0,0.0,0.0,0.0,0.0,0.0,0.0,0.0,0.0,0.0,0.0,0.0,0.0,0.0,0.0,0.0,0.0,0.0,0.0,0.0,0.0,0.0,0.0,0.0,0.0,0.0,0.0,0.0,0.0,0.0,0.0,0.0,0.0,0.0,0.0,0.0,0.0,0.0,0.0,0.0,0.0,0.0,0.0,0.0,0.0,0.0,0.0,0.0,0.0,0.0,0.0,0.0,0.0,0.0,0.0,0.0,0.0,0.0,0.0,0.0,2.4177,2.727,2.9912,3.1799,3.2293,3.2376,3.2052,2.8292,2.5652,0.0,0.0,0.0,0.0,0.0,0.0,0.0,0.0,0.0,0.0,0.0,0.0,0.0,0.0,0.0,0.0,0.0,0.0,0.0,0.0,0.0,0.0,0.0,0.0,0.0,0.0,0.0,0.0,0.0,0.0,0.0,0.0,0.0,0.0,0.0,0.0,0.0,0.0,0.0,0.0,0.0,0.0,0.0,0.0,0.0,0.0,0.0,0.0,0.0,0.0,0.0,0.0,0.0,0.0,0.0,0.0,0.0,0.0,0.0,0.0,0.0,0.0,0.0,0.0,0.0,0.0,0.0,0.0,0.0,0.0,0.0,0.0,0.0,0.0,0.0,0.0,0.0,0.0,0.0,0.0,0.0,0.0,0.0,0.0,0.0,0.0,0.0,0.0,0.0,0.0,0.0,0.0,0.0,0.0,0.0,0.0,0.0,0.0,0.0,0.0,0.0,0.0,0.0,2.5197,2.7714,2.9912,3.1799,3.2293,3.2923,3.3963,3.0681,2.8607,2.8634,0.0,0.0,0.0,0.0,0.0,0.0,0.0,0.0,0.0,0.0,0.0,0.0,0.0,0.0,0.0,0.0,0.0,0.0,0.0,0.0,0.0,0.0,0.0,0.0,0.0,0.0,0.0,0.0,0.0,0.0,0.0,0.0,0.0,0.0,0.0,0.0,0.0,0.0,0.0,0.0,0.0,0.0,0.0,0.0,0.0,0.0,0.0,0.0,0.0,0.0,0.0,0.0,0.0,0.0,0.0,0.0,0.0,0.0,0.0,0.0,0.0,0.0,0.0,0.0,0.0,0.0,0.0,0.0,0.0,0.0,0.0,0.0,0.0,0.0,0.0,0.0,0.0,0.0,0.0,0.0,0.0,0.0,0.0,0.0,0.0,0.0,0.0,0.0,0.0,0.0,0.0,0.0,0.0,0.0,0.0,0.0,0.0,0.0,0.0,0.0,0.0,0.0,2.7275,3.0183,3.2665,3.4655,3.5223,3.5782,3.6552,3.3589,3.1348,3.0529,0.0,0.0,0.0,0.0,0.0,0.0,0.0,0.0,0.0,0.0,0.0,0.0,0.0,0.0,0.0,0.0,0.0,0.0,0.0,0.0,0.0,0.0,0.0,0.0,0.0,0.0,0.0,0.0,0.0,0.0,0.0,0.0,0.0,0.0,0.0,0.0,0.0,0.0,0.0,0.0,0.0,0.0,0.0,0.0,0.0,0.0,0.0,0.0,0.0,0.0,0.0,0.0,0.0,0.0,0.0,0.0,0.0,0.0,0.0,0.0,0.0,0.0,0.0,0.0,0.0,0.0,0.0,0.0,0.0,0.0,0.0,0.0,0.0,0.0,0.0,0.0,0.0,0.0,0.0,0.0,0.0,0.0,0.0,0.0,0.0,0.0,0.0,0.0,0.0,0.0,0.0,0.0,0.0,0.0,0.0,0.0,0.0,0.0,0.0,0.0,0.0,0.0,2.9746,3.3578,3.6818,3.8984,3.9609,3.9726,3.9297,3.6616,3.3865,3.1298,0.0,0.0,0.0,0.0,0.0,0.0,0.0,0.0,0.0,0.0,0.0,0.0,0.0,0.0,0.0,0.0,0.0,0.0,0.0,0.0,0.0,0.0,0.0,0.0,0.0,0.0,0.0,0.0,0.0,0.0,0.0,0.0,0.0,0.0,0.0,0.0,0.0,0.0,0.0,0.0,0.0,0.0,0.0,0.0,0.0,0.0,0.0,0.0,0.0,0.0,0.0,0.0,0.0,0.0,0.0,0.0,0.0,0.0,0.0,0.0,2.3948,0.0,0.0,0.0,0.0,0.0,0.0,0.0,0.0,0.0,0.0,0.0,0.0,0.0,0.0,0.0,0.0,0.0,0.0,0.0,0.0,0.0,0.0,0.0,0.0,0.0,0.0,0.0,0.0,0.0,0.0,0.0,0.0,0.0,0.0,0.0,0.0,0.0,0.0,0.0,0.0,0.0,2.9746,3.3578,3.6818,3.8984,3.9609,3.9863,3.9766,3.7897,3.5641,3.3019,2.9282,0.0,0.0,0.0,0.0,0.0,0.0,0.0,0.0,0.0,0.0,0.0,0.0,0.0,0.0,0.0,0.0,0.0,0.0,0.0,0.0,0.0,0.0,0.0,0.0,0.0,0.0,0.0,0.0,0.0,0.0,0.0,0.0,0.0,0.0,0.0,0.0,0.0,0.0,0.0,0.0,0.0,0.0,0.0,0.0,0.0,0.0,0.0,0.0,0.0,0.0,0.0,0.0,0.0,0.0,0.0,0.0,0.0,0.0,0.0,0.0,2.5766,0.0,0.0,0.0,0.0,0.0,0.0,0.0,0.0,0.0,0.0,0.0,0.0,0.0,0.0,0.0,0.0,0.0,0.0,0.0,0.0,0.0,0.0,0.0,0.0,0.0,0.0,0.0,0.0,0.0,0.0,0.0,0.0,0.0,0.0,0.0,0.0,0.0,0.0,0.0,0.0,3.0376,3.4203,3.7365,3.9336,4.0136,4.043,4.0215,3.8984,3.7109,3.4515,3.1508,0.0,0.0,0.0,0.0,0.0,0.0,0.0,0.0,0.0,0.0,0.0,0.0,0.0,0.0,0.0,0.0,0.0,0.0,0.0,0.0,0.0,0.0,0.0,0.0,0.0,0.0,0.0,0.0,0.0,0.0,0.0,0.0,0.0,0.0,0.0,0.0,0.0,0.0,0.0,0.0,0.0,0.0,0.0,0.0,0.0,0.0,0.0,0.0,0.0,0.0,0.0,0.0,0.0,3.0684,3.1309,3.1695,3.2094,3.225,3.2094,3.0469,2.9428,2.8789,2.793,0.0,0.0,0.0,0.0,0.0,0.0,0.0,0.0,0.0,0.0,0.0,0.0,0.0,0.0,0.0,0.0,0.0,0.0,0.0,0.0,0.0,0.0,0.0,0.0,2.7498,2.7061,0.0,0.0,0.0,0.0,0.0,0.0,0.0,0.0,0.0,0.0,0.0,0.0,3.1294,3.5,3.793,3.959,4.0566,4.0918,4.0528,3.9785,3.832,3.5976,3.3457,3.0767,0.0,0.0,0.0,0.0,0.0,0.0,0.0,0.0,0.0,0.0,0.0,0.0,0.0,0.0,0.0,0.0,0.0,0.0,0.0,0.0,0.0,0.0,0.0,0.0,0.0,0.0,0.0,0.0,0.0,0.0,0.0,0.0,2.2873,2.3409,0.0,0.0,0.0,0.0,0.0,0.0,0.0,0.0,0.0,0.0,0.0,0.0,0.0,2.9068,3.0293,3.1519,3.2574,3.3414,3.4313,3.4746,3.4824,3.5218,3.5234,3.4902,3.5388,0.0,3.1001,3.0137,0.0,0.0,0.0,0.0,0.0,0.0,0.0,0.0,0.0,0.0,0.0,0.0,0.0,0.0,0.0,0.0,0.0,0.0,0.0,0.0,0.0,0.0,3.1255,3.0878,3.1145,3.1256,0.0,2.716,2.4449,2.4341,2.3655,0.0,0.0,0.0,0.0,0.0,0.0,0.0,3.2187,3.5371,3.7812,3.9141,4.0059,4.0567,4.0508,4.0059,3.918,3.7658,3.5491,3.3246,3.1001,2.8024,0.0,0.0,0.0,0.0,0.0,0.0,0.0,0.0,0.0,0.0,0.0,0.0,0.0,0.0,0.0,0.0,0.0,0.0,0.0,0.0,0.0,0.0,0.0,0.0,0.0,0.0,0.0,0.0,0.0,2.2768,2.4331,2.4515,2.4785,2.4668,0.0,0.0,0.0,0.0,0.0,0.0,0.0,0.0,0.0,3.0762,3.148,3.2324,3.3418,3.4469,3.5427,3.625,3.6892,3.7459,3.7948,3.8105,3.8105,3.7949,3.832,3.748,3.5664,3.334,3.1636,3.0346,0.0,0.0,0.0,0.0,2.8939,2.9135,3.0508,3.082,0.0,2.9771,0.0,0.0,0.0,0.0,0.0,0.0,0.0,0.0,0.0,0.0,3.3066,3.3851,3.4199,3.4355,3.4411,3.2409,2.9943,0.0,2.7396,2.6568,2.3488,0.0,0.0,0.0,0.0,3.017,3.3141,3.5739,3.7793,3.9062,3.9785,4.0254,4.0489,3.9902,3.9258,3.8654,3.6604,3.4788,3.3359,3.0664,2.7943,0.0,0.0,0.0,0.0,0.0,0.0,0.0,0.0,0.0,0.0,0.0,0.0,0.0,0.0,0.0,0.0,0.0,0.0,0.0,0.0,0.0,0.0,0.0,0.0,0.0,0.0,0.0,0.0,2.4582,2.5708,2.561,2.6555,2.6653,0.0,0.0,0.0,0.0,0.0,0.0,2.983,3.0723,3.2031,3.3887,3.4684,3.5505,3.6348,3.7127,3.7871,3.8575,3.8926,3.9433,4.0059,4.0176,4.0098,3.9902,4.0019,3.9805,3.916,3.625,3.4313,3.3043,3.1831,3.1016,3.0659,3.1441,3.187,3.2281,3.3883,3.4258,3.3929,3.309,0.0,3.1328,2.9263,0.0,0.0,0.0,0.0,3.0806,3.2691,3.3711,3.4593,3.5999,3.633,3.6426,3.6775,3.6345,3.4766,0.0,3.0859,3.0131,2.6113,0.0,0.0,0.0,0.0,3.1758,3.4274,3.625,3.7871,3.8926,3.9453,3.9844,4.0137,3.9552,3.9199,3.9199,3.7482,3.6155,3.5391,3.3105,3.0903,2.8848,0.0,0.0,0.0,0.0,0.0,0.0,0.0,0.0,0.0,0.0,0.0,0.0,0.0,0.0,0.0,0.0,0.0,0.0,0.0,0.0,0.0,0.0,0.0,0.0,0.0,0.0,0.0,0.0,0.0,2.6973,2.8412,0.0,0.0,0.0,0.0,2.8138,2.9316,3.0781,3.25,3.3434,3.488,3.7012,3.7482,3.8126,3.9004,3.9492,3.9961,4.0371,4.0391,4.043,4.0489,4.0937,4.0683,3.9922,4.0293,4.0235,3.9746,3.8302,3.6955,3.5725,3.4824,3.3965,3.3265,3.3766,3.4469,3.5192,3.531,3.5566,3.592,3.6306,3.529,3.3824,3.3246,3.2539,0.0,0.0,3.3457,3.4629,3.5569,3.6172,3.6638,3.7109,3.7226,3.7246,3.7266,3.7226,3.6523,0.0,3.3219,3.209,3.0195,0.0,2.9715,3.0483,3.1777,3.3457,3.5628,3.7053,3.8068,3.8573,3.8984,3.9238,3.9258,3.9219,3.9199,3.9199,3.8322,3.7619,3.7187,3.5449,3.3146,3.0254,2.7456,0.0,0.0,0.0,0.0,0.0,0.0,0.0,0.0,0.0,0.0,0.0,0.0,0.0,0.0,0.0,0.0,0.0,0.0,0.0,0.0,0.0,0.0,0.0,0.0,0.0,0.0,0.0,0.0,2.9492,3.1265,0.0,3.0064,3.0547,3.105,3.1187,3.2672,3.4196,3.5625,3.6521,3.7733,3.9298,3.9493,3.9864,4.0488,4.0898,4.1191,4.1348,4.1601,4.1718,4.1738,4.1894,4.1797,4.1523,4.166,4.164,4.1465,4.0996,3.9708,3.799,3.7439,3.7029,3.6775,3.6931,3.7361,3.7851,3.7851,3.7949,3.799,3.7598,3.6699,3.5739,3.5583,3.5117,3.4746,3.5173,3.5642,3.6247,3.7381,3.7791,3.8104,3.8809,3.8965,3.8965,3.8965,3.8965,3.8652,3.7578,3.6267,3.4665,3.2602,3.2851,3.316,3.2582,3.3851,3.5335,3.668,3.7715,3.8496,3.8926,3.9375,3.9648,3.9648,3.9375,3.9082,3.8827,3.7988,3.7324,3.6931,3.5779,3.4258,3.2344,3.053,2.7419,0.0,0.0,0.0,0.0,0.0,0.0,0.0,0.0,0.0,0.0,0.0,0.0,0.0,0.0,0.0,0.0,0.0,0.0,0.0,0.0,0.0,0.0,0.0,0.0,0.0,0.0,3.1191,3.1504,3.3688,3.445,3.2559,3.3281,3.3945,3.4098,3.543,3.6816,3.8105,3.8848,3.9766,4.0899,4.0938,4.1133,4.1601,4.1875,4.1992,4.2012,4.2265,4.2402,4.2402,4.2402,4.2402,4.2402,4.2402,4.2402,4.2402,4.2402,4.1562,4.0234,3.9687,3.9374,3.9219,3.91,3.9277,3.9648,3.9648,3.9551,3.9336,3.8751,3.8223,3.7752,3.7596,3.7324,3.7129,3.7283,3.7439,3.7733,3.8592,3.8925,3.9179,3.9766,3.9902,3.9902,3.9902,3.9902,3.9805,3.9492,3.8299,3.6775,3.5019,3.5332,3.5544,3.4648,3.5725,3.6897,3.7637,3.8495,3.9139,3.9414,3.9707,3.9902,3.9902,3.9354,3.8885,3.8612,3.7654,3.697,3.6714,3.5857,3.4902,3.3851,3.2016,2.9122,2.5159,0.0,0.0,0.0,0.0,0.0,0.0,0.0,0.0,0.0,0.0,0.0,0.0,0.0,0.0,0.0,0.0,0.0,0.0,0.0,0.0,0.0,0.0,0.0,2.8853,3.123,3.2891,3.293,3.5566,3.656,3.4466,3.5391,3.6291,3.6736,3.7539,3.8556,3.9863,4.0389,4.0995,4.1797,4.1876,4.2071,4.2402,4.2481,4.2521,4.2521,4.2541,4.2541,4.2541,4.2461,4.246,4.246,4.246,4.246,4.246,4.246,4.2441,4.2363,4.1562,4.0957,4.0508,4.0117,4.0215,4.0567,4.0567,4.0293,3.998,3.9961,3.9941,3.9844,3.9394,3.9238,3.9141,3.8749,3.8925,3.9219,3.9238,3.957,3.9922,3.9941,3.9941,3.9941,3.9941,3.9941,3.9941,3.9941,3.9237,3.8358,3.75,3.7029,3.6756,3.6773,3.7441,0.0,3.8553,3.9394,3.9922,3.9922,3.9922,3.9922,3.9922,3.9139,3.8612,3.8553,3.7398,3.6695,3.6675,3.5857,3.5176,3.4707,3.1758,2.9175,2.6999,0.0,0.0,0.0,0.0,0.0,0.0,0.0,0.0,0.0,0.0,0.0,0.0,0.0,0.0,0.0,0.0,0.0,0.0,0.0,0.0,0.0,2.9224,3.043,3.0351,3.2851,3.5019,3.5937,3.791,3.8809,3.7891,3.8418,3.873,3.8516,3.9298,4.0079,4.08,4.2659,4.3242,4.2266,4.3732,4.3872,4.2402,4.4218,4.5155,4.5155,4.5446,4.559,4.555,4.4034,4.3535,4.3828,4.3496,4.3555,4.3828,4.3475,4.3339,4.3262,4.2402,4.1992,4.1875,4.1758,4.1777,4.1875,4.1875,4.1816,4.166,4.1367,4.1094,4.0761,4.0274,3.9941,3.9687,3.957,3.9609,3.9766,4.0059,4.0235,4.043,4.0761,4.0839,4.0839,4.0839,4.0839,4.0839,4.0839,4.0136,3.9374,3.8769,3.8574,3.8398,3.8123,3.8496,0.0,3.9004,3.9805,4.0332,4.0332,4.0644,4.0703,4.0352,3.9844,3.8984,3.7752,3.7049,3.6421,3.5779,3.5544,3.5176,3.4707,3.2363,3.0534,0.0,0.0,0.0,0.0,0.0,0.0,0.0,0.0,0.0,0.0,0.0,0.0,0.0,0.0,0.0,0.0,0.0,0.0,0.0,0.0,0.0,0.0,3.1719,3.307,3.375,3.5508,3.7166,3.8262,3.9608,4.0254,3.9805,3.9981,4.0117,4.0039,4.1326,4.2363,4.3008,4.4396,4.4826,4.4018,4.5206,4.5471,4.4623,4.6952,4.7783,4.7075,4.7307,4.6945,4.6023,4.4801,4.4393,4.4648,4.4354,4.4393,4.4629,4.4354,4.4237,0.0,0.0,0.0,0.0,0.0,4.2402,4.2402,4.2402,4.2402,4.2343,4.1933,4.1641,4.1367,4.0918,4.0508,4.0156,4.0156,4.0156,4.0215,4.045,4.0664,4.0859,4.1133,4.1191,4.1191,4.1191,4.1191,4.1191,4.1191,4.08,0.0,3.9609,3.9336,3.9062,3.8651,3.9258,3.9669,3.9512,4.0254,4.0801,4.0801,4.1191,4.1269,4.084,4.0234,0.0,0.0,0.0,3.5954,3.4899,3.486,0.0,0.0,0.0,0.0,0.0,0.0,0.0,0.0,2.6287,2.4672,0.0,0.0,0.0,0.0,0.0,0.0,0.0,0.0,0.0,0.0,0.0,0.0,0.0,0.0,0.0,0.0,3.3981,3.582,3.797,3.8672,3.9237,3.9961,4.082,4.1152,4.0762,4.0934,4.1149,4.1328,4.3277,4.4699,4.5289,0.0,0.0,0.0,0.0,4.7396,4.8129,4.9939,5.0261,4.9033,4.8767,4.7734,4.6061,4.5594,4.54,4.544,4.5124,4.5037,4.5076,4.5018,4.4979,4.4822,4.373,4.3263,4.3126,4.2753,4.2597,4.2558,4.2558,0.0,0.0,4.2031,4.1875,4.1777,4.1328,4.0898,4.0567,4.0567,4.0567,4.0567,4.0567,4.0879,4.1191,4.1191,4.1191,4.1191,4.1191,4.1191,4.1191,4.1191,4.1152,4.0879,4.0098,3.959,3.9121,3.8671,3.9648,4.0293,3.9941,4.0664,4.1211,4.1269,0.0,0.0,4.1367,4.0527,3.9668,3.8807,3.7148,3.5723,3.4567,3.4567,3.4743,3.5059,3.5059,3.543,3.6155,3.6155,3.6174,3.6064,2.9706,2.7417,0.0,0.0,0.0,0.0,0.0,0.0,0.0,0.0,0.0,0.0,0.0,0.0,0.0,0.0,0.0,3.4333,3.6191,3.8048,4.0253,4.0937,4.1113,4.0976,4.168,4.2128,4.205,4.3588,4.3922,4.2287,4.4141,4.4837,4.3638,4.6773,4.8215,4.7447,5.0647,5.1901,5.0843,5.1148,5.2011,5.343,0.0,0.0,5.272,4.9238,4.7879,4.8106,4.5944,4.5213,4.5549,4.5154,4.4803,4.4531,4.4588,4.4219,4.3613,4.3906,4.3769,4.3457,4.3457,4.3457,4.332,4.2538,4.2285,4.2148,4.1426,4.1133,0.0,4.1074,4.1074,4.1074,4.1074,4.1133,4.1191,4.1191,4.1191,4.1191,4.1191,4.1191,4.1191,4.1191,4.0879,4.0567,4.041,4.0039,3.9492,3.871,3.9413,3.998,3.9902,4.0664,4.1328,4.1641,4.1758,4.1894,4.2148,4.1406,4.0585,3.9687,3.832,3.7424,3.717,3.7537,3.7596,3.7287,3.7287,3.7189,3.7051,3.7051,3.7226,3.7484,3.5474,3.3921,0.0,0.0,0.0,0.0,0.0,0.0,0.0,0.0,0.0,0.0,0.0,2.8705,3.0014,0.0,3.3711,3.6541,3.7871,3.9238,4.123,4.1855,4.2031,4.1816,4.2148,4.2402,4.2402,4.4328,4.4803,4.2896,4.6636,4.8413,4.7025,4.9908,5.1472,5.1198,5.2133,5.2976,5.3601,5.3465,5.4081,5.5411,5.3193,5.2141,5.204,4.8798,4.7419,4.7557,4.6238,4.5781,4.5976,4.5762,4.5293,4.4744,4.5389,4.4842,4.3769,4.4219,4.4101,4.3711,4.3711,4.3711,4.3594,4.2969,4.2754,4.2637,4.1992,4.1797,4.1797,4.1797,4.1797,4.1797,4.1797,4.1797,4.1797,4.1797,4.1797,4.1797,4.1797,4.1641,4.1504,4.1504,4.1152,4.0781,4.0547,4.0332,3.998,3.9354,3.9999,4.0468,4.0234,4.0957,4.1582,4.1777,4.2187,4.2441,4.2402,4.166,4.0918,4.0235,3.9376,3.8809,3.8556,3.8769,3.8906,3.8888,3.8888,3.9023,3.9257,3.9257,3.9453,3.9844,3.9434,3.8426,0.0,0.0,0.0,0.0,0.0,0.0,0.0,2.6394,2.7201,2.8529,2.9833,3.126,3.3004,3.4157,3.5681,3.8299,3.9121,4.0039,4.168,4.2187,4.2581,4.3041,4.318,4.3259,4.3279,4.5578,4.6176,4.3977,4.9336,5.2125,5.0858,5.2876,5.4304,5.4866,5.353,5.3964,5.6345,5.5814,5.5989,5.6797,5.4151,5.2197,5.0799,4.814,4.6945,4.6924,4.6486,4.6308,4.6308,4.6308,4.5859,4.5213,4.5996,4.5351,4.4004,4.4375,4.418,4.3711,4.3711,4.3711,4.3633,4.3243,4.3106,4.3008,4.2538,4.2402,4.2402,4.2402,4.2402,4.2402,4.2402,4.2402,4.2402,4.2402,4.2402,4.2402,4.2402,4.2148,4.1914,4.1914,4.1641,4.1308,4.0938,4.0879,4.0645,4.0,4.0547,4.0976,4.0664,4.1328,4.1855,4.2031,4.2676,4.295,4.2558,4.1933,4.1387,4.0899,4.0547,4.0215,3.9844,3.9824,4.0,4.0371,4.0469,4.0879,4.1562,4.1641,4.1856,4.2168,4.2266,4.1621,2.5835,2.5195,2.52,2.593,2.6406,2.7519,0.0,3.1074,3.1201,3.2504,3.3828,3.4824,3.5059,3.6406,3.7834,3.8945,3.9805,4.082,4.2148,4.2382,4.32,4.5337,4.601,4.6319,4.64,4.9946,5.0622,4.6683,5.0944,5.2879,5.0903,5.3222,5.489,5.5493,5.7051,5.8254,5.9073,5.7101,5.7125,5.9095,5.4905,5.3783,5.5309,5.1156,4.9233,4.9126,4.7163,4.6308,4.6308,4.6308,4.6035,4.5666,4.6113,4.5723,4.4862,4.492,4.4393,4.3711,4.3711,4.3711,4.3633,4.3243,4.3106,4.3008,4.2538,4.2402,4.2402,4.2402,4.2402,4.2402,4.2402,4.2402,4.2402,4.2402,4.2402,4.2402,4.2402,4.2343,4.2343,4.2343,4.2304,4.2246,4.2207,4.2187,4.166,4.0137,4.0293,4.0723,4.1074,4.1523,4.209,4.2872,4.3048,4.3087,4.3028,4.295,4.2676,4.2226,4.2148,4.2109,4.205,4.205,4.207,4.2128,4.2519,4.2794,4.2891,4.3242,4.3437,4.3496,4.3906,4.3378,2.7767,2.7637,2.7858,2.847,2.9316,3.06,3.2789,3.3336,3.373,3.5039,3.6133,3.6953,3.7205,3.8027,3.8927,3.9805,4.0488,4.125,4.2265,4.2402,4.3739,4.7363,4.7791,4.7895,4.8159,5.116,5.1996,4.9324,5.3225,5.509,5.3661,5.5786,5.7283,5.7838,5.7453,5.7966,5.9508,5.7627,5.7627,5.9489,5.6641,5.4916,5.4151,5.103,4.8891,4.7621,4.6704,4.6308,4.6308,4.6308,4.6055,4.5744,4.6133,4.5781,4.5037,4.5312,4.5,4.4452,4.4452,4.4295,4.4082,4.3906,4.3652,4.3398,4.3223,4.3144,4.3144,4.3144,4.3144,4.3144,4.3144,4.3144,4.3144,4.3144,4.3144,4.3144,4.3144,4.2969,4.2812,4.2812,4.2598,4.2402,4.2402,4.2402,4.2167,4.1465,4.1504,4.1679,4.1875,4.2266,4.2794,4.3399,4.3437,4.3555,4.3828,4.3868,4.3867,4.3905,4.3924,4.3807,4.3573,4.3788,4.3807,4.3554,4.3984,4.4219,4.4219,4.4373,4.4452,4.4452,4.4647,4.4452,2.8736,2.9238,2.9955,3.0723,3.2007,3.343,3.4684,3.5388,3.6091,3.7166,3.7949,3.8574,3.8905,3.9277,3.9824,4.0586,4.1055,4.1641,4.248,4.2961,4.4587,4.8227,4.9039,4.9576,5.0289,5.2407,5.3171,5.1761,5.5121,5.701,5.6488,5.8037,5.9106,5.9483,5.8074,5.8089,5.9714,5.854,5.8217,5.8782,5.6804,5.4515,5.1907,4.9701,4.7815,4.6308,4.6308,4.6308,4.6308,4.6308,4.6133,4.5879,4.6191,4.5896,4.5389,4.5742,4.5508,4.4998,4.4998,4.4803,4.457,4.457,4.4336,4.4062,4.4062,4.4062,4.4062,4.4062,4.4062,4.4062,4.4062,4.4062,4.4062,4.4062,4.4062,4.4062,4.4062,4.3828,4.3613,4.3613,4.3339,4.3124,4.3124,4.3124,4.3124,4.3124,4.3026,4.2851,4.2616,4.3086,4.3613,4.4023,4.4062,4.4199,4.4551,4.457,4.4686,4.4979,4.4998,4.4862,4.459,4.4842,4.4862,4.457,4.498,4.5174,4.5174,4.5291,4.535,4.535,4.5467,4.5467,2.8334,2.9224,3.0596,3.2305,3.4023,3.5642,3.6914,3.7869,3.8592,3.9023,3.9512,3.9844,3.9863,4.0195,4.0606,4.1094,4.1523,4.209,4.295,4.4357,4.5855,4.7353,4.9781,5.1904,0.0,5.4638,5.4923,5.389,5.6327,5.8089,5.8584,5.9168,5.9483,5.9483,5.9932,6.0208,6.0267,6.0233,5.9153,5.703,5.4321,5.1866,4.9637,4.7403,4.6374,4.6308,4.6308,4.6308,4.6308,4.6308,4.6289,4.6289,4.6289,4.6289,4.6269,4.6289,4.572,4.4998,4.4998,4.4998,4.4979,4.4979,4.4979,4.4959,4.4959,4.4959,4.4959,4.4959,4.4959,4.4959,4.4959,4.4959,4.4959,4.4959,4.4959,4.4959,4.4959,4.4959,4.494,4.494,4.494,4.492,4.492,4.492,4.492,4.492,4.459,4.4023,4.3184,4.3849,4.4512,4.492,4.4959,4.4979,4.4979,4.4979,4.4998,4.4998,4.4998,4.4998,4.4979,4.4998,4.4998,4.4979,4.543,4.5686,4.5686,4.6055,4.6269,4.6269,4.6658,4.6638,2.9877,3.1382,3.3219,3.4958,3.6462,3.7869,3.9122,3.9649,3.9902,4.002,3.998,3.9805,3.9492,3.9551,3.9883,4.0625,4.1328,4.2109,4.2969,4.472,4.6436,4.7853,4.9799,5.188,5.4076,0.0,0.0,5.651,5.7374,5.8303,5.9182,5.9759,6.0035,6.0035,6.0588,6.0889,6.0889,6.0889,6.0307,5.9153,5.6389,5.3947,5.1698,4.9489,4.7686,4.6308,4.6308,4.6308,4.6308,4.6308,4.6308,4.6308,4.6308,4.6308,4.6308,4.6308,4.6113,4.5857,4.5857,4.5683,4.5449,4.5449,4.5254,4.4998,4.4998,4.4998,4.4998,4.4998,4.4998,4.4998,4.4998,4.4998,4.4998,4.4998,4.4998,4.4998,4.4998,4.4998,4.4998,4.4998,4.4998,4.4998,4.4998,4.4998,4.4998,4.4998,4.4881,4.4609,4.4023,4.4453,4.4842,4.4979,4.4998,4.5115,4.543,4.5449,4.5586,4.5859,4.5857,4.5742,4.5469,4.5723,4.5742,4.5469,4.6152,4.6504,4.6504,4.6618,4.6875,4.7171,4.697,4.6989,3.187,3.361,3.5466,3.7361,3.8573,3.9531,4.0527,4.0762,4.0664,4.0352,3.9824,3.9277,3.881,3.8361,3.8575,4.0235,4.0859,4.1896,4.412,4.5895,4.7561,4.9208,5.0855,5.2552,5.4423,5.4906,0.0,5.775,5.7901,5.8453,5.9734,6.0116,6.0392,6.0613,6.119,6.1411,6.121,6.121,6.0387,5.8802,5.6424,5.4066,5.1699,5.0464,4.8562,4.6308,4.6308,4.6308,4.6308,4.6308,4.6308,4.6308,4.6465,4.6501,4.6521,4.6699,4.6758,4.6719,4.6406,4.6133,4.592,4.592,4.5703,4.5467,4.5467,4.5467,4.5467,4.5467,4.5467,4.5467,4.5467,4.5467,4.5467,4.5467,4.5467,4.5467,4.5467,4.5467,4.5467,4.5467,4.5467,4.5467,4.5467,4.5467,4.5408,4.5273,4.5369,4.5332,4.4902,4.5098,4.5312,4.5447,4.5584,4.5799,4.6094,4.6133,4.6308,4.6738,4.6621,4.6406,4.6133,4.6523,4.6562,4.6133,4.6816,4.7168,4.7168,4.7168,4.7305,4.76,4.7598,4.7598,3.4141,3.5837,3.7381,3.9473,4.0274,4.0684,4.1133,4.1172,4.0879,4.0,3.91,3.8299,3.7795,3.676,3.6936,3.9883,4.0156,4.1532,4.6052,4.7657,4.9122,5.1105,5.2809,5.4059,5.4655,5.4723,5.5609,5.7775,0.0,5.8604,6.0217,6.0367,6.0663,6.1235,6.1768,6.1793,6.1285,6.1235,5.9573,5.6359,5.4653,5.2452,4.9807,5.0248,4.8933,4.6367,4.6367,4.6367,4.6367,4.6367,4.6367,4.6406,4.6775,4.695,4.6989,4.7444,4.76,4.7483,4.6641,4.6367,4.6367,4.6367,4.6367,4.6367,4.6367,4.6367,4.6367,4.6367,4.6367,4.6367,4.6367,4.6367,4.6367,4.6367,4.6367,4.6367,4.6367,4.6367,4.6367,4.6367,4.6367,4.6367,4.6367,4.6367,4.623,4.5861,4.6113,4.6211,4.5764,4.5725,4.5881,4.6269,4.6638,4.6892,4.6911,4.6911,4.7087,4.7581,4.7187,4.695,4.695,4.7363,4.7383,4.695,4.7383,4.764,4.764,4.7659,4.7679,4.7718,4.8561,4.8499,3.6016,3.8066,3.9824,4.1016,4.1387,4.1504,4.1621,4.0898,3.998,3.912,3.7479,3.5993,3.5212,3.5332,3.6194,3.8244,3.9863,4.1837,4.4611,4.7627,4.9875,5.0701,5.3624,5.5774,5.6326,5.6401,5.6979,0.0,5.8127,5.8604,6.0217,6.1095,6.1642,6.1793,6.2325,6.2526,6.2375,6.1592,6.0331,5.8642,5.6923,5.4839,5.2541,5.1337,4.948,4.7268,4.7268,4.7268,4.7268,4.7268,4.7268,4.7288,4.7383,4.7422,4.7444,4.7561,4.76,4.7581,4.7346,4.7268,4.7268,4.7268,4.7268,4.7268,4.7268,4.7268,4.7268,4.7268,4.7268,4.7268,4.7268,4.7268,4.7268,4.7268,4.7268,4.7268,4.7268,4.7268,4.7268,4.7268,4.7268,4.7268,4.7268,4.7268,4.7226,4.7132,4.721,4.6897,4.5842,4.5979,4.6191,4.6289,4.6406,4.656,4.6872,4.6911,4.7087,4.7581,4.7503,4.7422,4.7422,4.7542,4.7542,4.7422,4.7832,4.8047,4.8047,4.8402,4.8734,4.902,4.9234,4.9414,3.8184,3.9981,4.1445,4.1933,4.1933,4.1601,4.084,3.9961,3.8768,3.6719,3.5215,3.3883,3.2613,3.3258,3.4684,3.674,3.9062,4.2108,4.6346,4.8866,5.1149,5.3529,5.5424,5.6778,5.733,5.7154,5.7562,5.8956,5.878,5.9207,6.0613,6.1517,6.2119,6.2325,6.2651,6.2576,6.2099,6.1492,6.0238,5.8359,5.7841,5.5791,5.243,5.2671,5.0884,4.7668,0.0,4.8546,4.76,4.76,4.76,4.762,4.7793,4.7851,4.7894,4.8089,4.8167,4.8167,4.8167,4.8167,4.8109,4.7718,4.76,4.76,4.76,4.76,4.76,4.76,4.76,4.76,4.76,4.76,4.76,4.76,4.76,4.76,4.76,4.76,4.76,4.76,4.76,4.76,4.76,4.76,4.76,4.76,4.76,4.7346,4.6623,4.6741,4.6855,4.6855,4.7031,4.7246,4.7438,4.7477,4.7676,4.8128,4.7991,4.7851,4.7851,4.8069,4.8167,4.8167,4.8574,4.8887,4.9062,4.934,4.9594,4.9824,5.0,5.0117,4.0215,4.1562,4.2499,4.2558,4.2167,4.1367,3.9668,3.8711,3.7244,3.391,3.2734,3.1816,3.0312,3.1167,3.2984,3.5664,3.8184,4.2079,4.8588,5.0097,5.2202,5.6718,5.7218,5.7455,5.8052,5.7706,5.8058,5.9508,5.9734,6.0261,6.126,6.1818,6.2325,6.2802,6.2802,6.2325,6.1311,6.1006,5.9537,5.6997,5.7698,5.5724,5.1522,5.3799,5.2406,4.8342,5.0044,4.9643,4.7776,4.7776,4.7776,4.7815,4.8144,4.8301,4.834,4.8734,4.8913,4.8913,4.8913,4.8913,4.8776,4.8011,4.7776,4.7776,4.7776,4.7776,4.7776,4.7776,4.7776,4.7776,4.7776,4.7776,4.7776,4.7776,4.7776,4.7776,4.7776,4.7776,4.7776,4.7776,4.7776,4.7776,4.7776,4.7776,4.7776,4.7776,4.7776,4.7776,4.7776,4.7679,4.76,4.76,4.791,4.8144,4.8203,4.8203,4.8398,4.8874,4.8519,4.8301,4.8301,4.8734,4.8968,4.8968,4.9394,4.9805,5.0199,5.0258,5.0297,5.0297,5.0683,5.0683,4.1211,4.2266,4.3047,4.3398,4.2637,4.1445,4.0078,3.7811,3.529,3.2902,3.0898,2.9478,2.9185,3.0493,3.2715,3.6033,3.8105,4.0854,4.5279,4.8421,5.1142,5.349,5.6507,5.861,5.9156,5.9514,5.984,6.0141,6.104,6.1642,6.1843,6.2375,6.2701,6.2802,6.2802,6.2501,6.1868,5.9939,5.8471,5.756,5.6228,5.5136,5.4253,5.3316,5.2399,5.1484,4.9964,0.0,4.8656,4.8656,4.8656,4.8698,4.8734,4.8773,4.8796,4.8874,4.8913,4.8913,4.8913,4.8913,4.8874,4.8737,4.8656,4.8656,4.8656,4.8656,4.8656,4.8656,4.8656,4.8656,4.8656,4.8656,4.8656,4.8656,4.8656,4.8656,4.8656,4.8656,4.8656,4.8656,4.8656,4.8656,4.8656,4.8656,4.8656,4.8656,4.8656,4.8656,4.8656,4.803,4.76,4.76,4.7659,4.7832,4.8183,4.8203,4.8398,4.8874,4.8812,4.8773,4.8773,4.918,4.9414,4.9414,4.9844,5.0121,5.0199,5.0527,5.0703,5.0703,5.1109,5.1265,4.1816,4.2754,4.3457,4.3652,4.2578,4.0918,3.8729,3.6211,3.3496,3.0478,2.8998,2.8138,2.7676,2.957,3.1875,3.4016,3.6521,3.9743,4.4135,4.7738,5.1025,5.3974,5.7164,5.9332,5.984,6.0141,6.0543,6.1145,6.1672,6.1994,6.1994,6.2501,6.2802,6.2802,6.2802,6.2551,6.2019,6.1162,5.9857,5.8103,5.7532,5.6595,5.539,5.4588,5.357,5.2342,5.1213,0.0,4.8913,4.8913,4.8913,4.8913,4.8913,4.8913,4.8913,4.8913,4.9027,4.9199,4.9199,4.9379,4.9574,4.9574,4.9285,4.8913,4.8913,4.8913,4.8913,4.8913,4.8913,4.8952,4.9164,4.9046,4.8949,4.9164,4.9046,4.8972,4.9183,4.9199,4.9199,4.9199,4.9418,4.9418,4.8991,4.9066,4.9144,4.8933,4.9086,4.9199,4.9199,4.9066,4.8773,4.8323,4.8288,4.8441,4.8824,4.8864,4.9082,4.9535,4.9574,4.9574,4.9574,4.9746,4.9961,5.0171,5.0391,5.0605,5.084,5.1011,5.1109,5.1109,5.1562,5.1777,4.2207,4.3026,4.3711,4.3711,4.2363,4.0292,3.7361,3.4766,3.1977,2.8425,2.7467,2.7154,2.6751,2.8685,3.0835,3.2374,3.5248,3.9013,4.3896,4.7755,5.1473,5.513,5.7981,5.9834,6.0267,6.0518,6.1045,6.1943,6.2119,6.2169,6.2169,6.2576,6.2802,6.2802,6.2802,6.2601,6.2195,6.2082,6.0918,5.8691,5.9095,5.8075,5.5813,5.5857,5.461,5.2387,5.187,0.0,0.0,4.8913,4.8913,4.8913,4.8913,4.8949,4.9027,4.9027,4.9277,4.9644,4.9644,4.9902,5.0199,5.0199,4.973,4.9187,4.9187,4.9187,4.9187,4.9187,4.9187,4.9242,4.957,4.9437,4.9261,4.9566,4.9418,4.9261,4.959,4.9644,4.9644,4.9644,4.9941,4.9984,4.9304,4.9433,4.9551,4.9222,4.9433,4.9644,4.9644,4.9961,4.9945,4.9265,4.9187,4.9301,4.9605,4.9644,4.9805,5.018,5.0199,5.0199,5.0199,5.0297,5.0469,5.0801,5.0976,5.125,5.1558,5.1636,5.1733,5.1831,5.2212,5.2427,4.2285,4.3026,4.3711,4.3711,4.2109,3.9902,3.7283,3.4082,3.0918,2.8249,2.6738,2.6225,2.737,2.8112,2.9721,3.3352,3.5823,3.9059,4.4165,4.8643,5.2422,5.5106,5.8266,6.0242,6.0292,6.124,6.1893,6.1994,6.245,6.2727,6.2727,6.2756,6.2802,6.2802,6.2802,6.2777,6.2727,6.0674,5.9472,5.9235,5.9283,5.8075,5.5813,5.5813,5.4544,5.2297,5.0162,4.9101,0.0,4.8913,4.8913,4.8913,4.8913,4.9125,4.9449,4.9449,4.9746,5.0141,5.0141,5.016,5.0199,5.0199,5.0141,5.0082,5.0082,5.0082,5.0082,5.0082,5.0082,5.0102,5.0141,5.0102,5.0102,5.0141,5.0102,5.0102,5.0141,5.0141,5.0141,5.0141,5.018,5.018,5.0102,5.0121,5.0121,5.0082,5.0121,5.0141,5.0141,5.018,5.018,5.0082,5.0082,5.0102,5.0141,5.0141,5.016,5.0199,5.0199,5.0199,5.0199,5.0547,5.0762,5.0801,5.1562,5.2017,5.2056,5.2402,5.2793,5.3209,5.3248,5.3482,4.2011,4.3026,4.3711,4.3711,4.1699,3.9103,3.6797,3.3398,3.0059,2.7754,2.6433,2.6018,2.709,2.763,2.8777,3.1343,3.3448,3.601,3.957,4.4658,4.9125,5.2146,5.6276,5.9382,6.0713,6.1542,6.2124,6.245,6.2676,6.2802,6.2802,6.2802,6.2802,6.2802,6.2802,6.2802,6.2802,6.187,6.1412,6.1387,5.9961,5.8964,5.8239,5.538,5.3747,5.2979,5.0384,4.9437,0.0,4.9128,4.9046,4.9258,4.9258,4.9375,4.9527,4.9824,5.0195,5.0547,5.0547,5.0723,5.0937,5.0937,5.0937,5.084,5.0356,5.0199,5.0199,5.0199,5.0199,5.0258,5.0488,5.0547,5.0488,5.0258,5.0199,5.0278,5.0508,5.0547,5.0547,5.0547,5.0762,5.0781,5.0297,5.0391,5.0469,5.0238,5.0414,5.0547,5.0547,5.0781,5.1035,5.1313,5.0668,5.0414,5.0898,5.0703,5.0805,5.1313,5.1352,5.1211,5.0937,5.1836,5.2226,5.1953,5.2812,5.3236,5.3236,5.3393,5.3568,5.3769,5.4068,5.4283,4.1465,4.2773,4.3516,4.3516,4.1348,3.8613,3.633,3.291,2.959,2.7448,2.6303,2.5971,2.6843,2.7266,2.808,0.0,3.2263,3.494,3.8102,4.3003,4.7482,5.0673,5.4385,5.7524,5.9734,6.1341,6.2375,6.2777,6.2802,6.2802,6.2802,6.2802,6.2802,6.2802,6.2978,6.2978,6.2802,6.2978,6.2624,6.1742,6.0111,5.9186,5.8887,5.4841,5.3243,5.3502,5.0863,4.9902,0.0,4.9398,4.9316,4.9683,4.9547,4.9664,4.9918,5.0254,5.0625,5.0972,5.0972,5.1167,5.1401,5.1401,5.1401,5.1304,5.0723,5.0547,5.0547,5.0547,5.0547,5.0625,5.0894,5.0972,5.0918,5.0625,5.0547,5.0625,5.0918,5.0972,5.0972,5.0972,5.1206,5.1226,5.0644,5.0801,5.0898,5.0586,5.0801,5.1035,5.1172,5.1445,5.1797,5.2226,5.1606,5.1391,5.1953,5.1831,5.2012,5.2617,5.2656,5.2519,5.2182,5.3086,5.3418,5.308,5.3803,5.4193,5.4193,5.433,5.4447,5.4583,5.4902,5.5117,4.0605,4.2129,4.3106,4.3106,4.1152,3.8535,3.5976,3.2695,2.959,2.7448,2.6303,2.5971,2.6843,2.6986,2.7702,2.9844,3.3231,3.7198,4.1793,4.558,4.893,5.1741,5.3063,5.4594,5.6835,6.0523,6.2802,6.2802,6.2802,0.0,6.2802,6.2802,6.2802,6.2802,6.3375,6.34,6.2827,6.34,6.2227,5.9328,5.9307,5.8418,5.6661,5.4146,5.331,5.3661,5.1249,5.0199,0.0,4.9683,4.9785,5.016,4.9683,5.0015,5.0801,5.0801,5.105,5.1401,5.1401,5.1401,5.1401,5.1401,5.1401,5.1401,5.1401,5.1401,5.1401,5.1401,5.1401,5.1401,5.1401,5.1401,5.1401,5.1401,5.1401,5.1401,5.1401,5.1401,5.1401,5.1401,5.1401,5.1401,5.1401,5.1401,5.1401,5.1401,5.1401,5.1558,5.2036,5.2095,5.2271,5.2656,5.3111,5.339,5.339,5.375,5.3978,5.3978,5.3978,5.3978,5.3978,5.3998,5.3998,5.3998,5.4453,5.4694,5.4694,5.5098,5.5481,5.5891,5.5891,5.6126,3.7596,3.9042,3.9882,3.9277,3.7617,3.5684,3.4004,3.1387,2.8873,2.7311,2.655,2.6348,2.6901,2.7266,2.8275,3.0703,3.3976,3.7116,3.967,4.5252,4.9816,5.1875,5.642,5.979,6.0869,6.2099,6.2802,6.2802,6.2802,6.2802,6.2802,6.2802,6.2802,6.2802,6.2978,6.3178,6.3425,6.3601,6.3419,6.2833,6.1237,5.9446,5.7514,5.5111,5.3343,5.2108,5.1062,5.0605,0.0,4.9801,4.9785,5.0199,5.0043,5.0312,5.084,5.1109,5.1284,5.1401,5.1401,5.1401,5.1401,5.1401,5.1401,5.1401,5.1401,5.1401,5.1401,5.1401,5.1401,5.1401,5.1401,5.1401,5.1401,5.1401,5.1401,5.1401,5.1401,5.1401,5.1401,5.1401,5.1655,5.1875,5.1875,5.2109,5.228,5.228,5.228,5.2461,5.2935,5.2974,5.3267,5.3984,5.4459,5.4453,5.3867,5.392,5.4134,5.4453,5.4473,5.4336,5.4017,5.4837,5.5169,5.4876,5.5605,5.6003,5.6003,5.6113,5.625,5.6387,5.6387,5.6445,3.5212,3.6892,3.7752,3.7205,3.5762,3.4137,3.2867,3.0547,2.8346,2.7233,2.668,2.6523,2.6921,2.7376,2.8481,3.092,3.37,3.659,3.9501,4.4797,4.9439,5.2352,5.7298,6.0663,6.1215,6.24,6.3128,6.3128,6.335,6.345,6.345,6.3229,6.3229,6.345,6.345,6.3525,6.3701,6.4103,6.3931,6.3161,6.17,5.9958,5.7962,5.5584,5.3873,5.2724,5.1366,0.0,0.0,5.0058,5.0019,5.041,5.041,5.0664,5.105,5.1304,5.1401,5.1401,5.1401,5.1401,5.1401,5.1401,5.1401,5.1401,5.1401,5.1401,5.1401,5.1401,5.1401,5.1401,5.1401,5.1401,5.1401,5.1401,5.1401,5.146,5.1641,5.1655,5.1694,5.185,5.2129,5.2324,5.2324,5.2539,5.2715,5.2715,5.2715,5.293,5.356,5.3638,5.3971,5.4824,5.5293,5.5306,5.4759,5.4876,5.5117,5.5417,5.5436,5.5273,5.4974,5.5735,5.6055,5.5801,5.6308,5.6609,5.6609,5.6609,5.6609,5.6609,5.6609,5.6609,0.0,3.5192,3.6245,3.6206,3.4974,3.3469,3.2237,3.0034,0.0,2.7175,2.668,2.6543,2.6999,2.7435,2.8489,3.0906,3.2949,3.5989,4.0982,4.4687,4.8736,5.3658,5.662,5.8453,5.9,6.1888,6.3701,6.3751,6.4224,6.4496,6.4496,6.4023,6.3998,6.4496,6.4547,6.4325,6.3802,6.4781,6.3962,6.1343,6.1192,6.0073,5.8074,5.565,5.4646,0.0,5.2008,0.0,0.0,5.0371,5.0453,5.0762,5.0801,5.103,5.1401,5.1401,5.1401,5.1401,5.1401,5.1401,5.1401,5.1401,5.1401,5.1401,5.1401,5.1401,5.1401,5.1401,5.1401,5.1401,5.1401,5.1401,5.1421,5.144,5.146,5.1577,5.2031,5.2153,5.2246,5.2637,5.2734,5.2754,5.2754,5.2748,5.2793,5.2793,5.2793,5.31,5.3978,5.4095,5.4427,5.5312,5.5716,5.595,5.595,5.6348,5.6609,5.6609,5.6609,5.6609,5.6609,5.6609,5.6609,5.6609,5.6609,5.6609,5.6609,5.6609,5.6609,5.6609,5.6609,5.6609,2.8959,0.0,3.1655,3.1358,3.0967,3.0497,0.0,2.8711,2.7669,2.7116,0.0,2.6731,2.7793,2.7826,2.9099,3.3375,3.5449,3.7907,4.1891,4.833,5.4328,5.8899,6.0763,6.1873,6.2471,6.3224,6.3873,6.4274,6.4446,6.4496,6.4496,6.4375,6.435,6.4496,6.4902,6.5053,6.4927,6.5157,6.5178,6.4892,6.3038,6.0915,5.8566,5.6073,5.3967,5.2234,0.0,0.0,5.0375,5.0566,5.0527,5.0375,5.0683,5.103,5.1401,5.1401,5.1401,5.1401,5.1401,5.1401,5.1401,5.1401,5.1401,5.1401,5.1401,5.1401,5.1401,5.1401,5.1401,5.1401,5.1401,5.1401,5.1499,5.1855,5.1933,5.2051,5.2461,5.2558,5.2598,5.2695,5.2988,5.3228,5.3228,5.3496,5.3685,5.3685,5.3685,5.3998,5.4876,5.4974,5.5332,5.6191,5.6367,5.6426,5.6426,5.6523,5.6609,5.6609,5.6609,5.6609,5.6609,5.6609,5.6609,5.6609,5.6609,5.6609,5.6609,5.6609,5.6609,5.6609,5.6609,5.6609,2.6966,2.8627,3.0151,2.9936,2.9891,2.976,2.9316,2.8275,2.7246,0.0,0.0,0.0,2.7845,2.8327,2.9934,3.4147,3.6106,3.935,4.5744,5.1871,5.7072,6.0758,6.2395,6.335,6.3651,6.4128,6.453,6.4852,6.5103,6.5233,6.5233,6.5003,6.4978,6.5229,6.5279,6.5283,6.5283,6.5534,6.581,6.6069,6.3666,6.1195,5.8722,5.6221,5.3757,5.1401,0.0,0.0,5.0238,5.0625,5.0566,5.0258,5.0859,5.1206,5.1401,5.1401,5.1401,5.1401,5.1401,5.1401,5.1401,5.1401,5.1401,5.1401,5.1401,5.1401,5.1401,5.1401,5.1401,5.146,5.168,5.1719,5.1836,5.2266,5.2363,5.248,5.291,5.3033,5.3066,5.3256,5.3516,5.3672,5.3672,5.3867,5.3998,5.3998,5.4173,5.457,5.5215,5.5442,5.5859,5.655,5.6609,5.6609,5.6609,5.6609,5.6609,5.6609,5.6609,5.6609,5.6609,5.6609,5.6609,5.6609,5.6609,5.6609,5.6609,5.6609,5.6609,5.6609,5.6609,5.6609,2.6504,2.8412,3.0137,2.9883,2.9961,2.9995,2.952,0.0,0.0,0.0,0.0,0.0,0.0,2.9012,3.1036,3.4792,3.7343,4.1863,5.0581,5.4888,5.8208,6.109,6.2772,6.3751,6.3927,6.4756,6.5333,6.543,6.5835,6.609,6.609,6.566,6.5634,6.6086,6.5584,6.5283,6.5283,6.576,6.5793,6.5402,6.2971,6.0563,5.8148,5.5659,5.3355,5.1284,0.0,0.0,5.0641,5.0807,5.082,5.0755,5.1214,5.1401,5.1401,5.1401,5.1401,5.1401,5.1401,5.1401,5.1401,5.1401,5.1401,5.1401,5.1401,5.1401,5.1421,5.1499,5.1499,5.1616,5.207,5.2187,5.231,5.2715,5.2812,5.293,5.3384,5.3482,5.3599,5.3939,5.3998,5.3998,5.3998,5.3998,5.4017,5.4095,5.4453,5.4863,5.5332,5.5677,5.6067,5.6543,5.6609,5.6609,5.6609,5.6609,5.6609,5.6609,5.6609,5.6609,5.6609,5.6609,5.6609,5.6609,5.6609,5.6609,5.6609,5.6609,5.6609,5.6609,5.6609,5.6609,2.7578,2.9082,2.9858,2.8445,2.8894,2.9481,2.8685,2.8034,0.0,0.0,0.0,0.0,2.9545,3.0307,3.2545,3.817,4.391,4.9171,5.3472,5.6194,5.8936,6.2174,6.3249,6.4073,6.4978,6.5183,6.5484,6.5936,6.604,6.609,6.609,6.6036,6.599,6.609,6.5584,6.5283,6.5283,6.5383,6.4376,6.2264,5.9829,5.7612,5.5565,5.3108,5.1573,5.0918,0.0,5.1792,5.2491,5.1658,5.1996,5.2956,5.1848,5.1401,5.1401,5.1401,5.1401,5.1401,5.1401,5.1401,5.1401,5.1401,5.1401,5.1401,5.1401,5.1401,5.1479,5.1875,5.1973,5.209,5.25,5.2617,5.2715,5.3189,5.3287,5.3404,5.3828,5.39,5.392,5.3998,5.3998,5.3998,5.3998,5.3998,5.4134,5.4531,5.4629,5.4961,5.5716,5.5872,5.6067,5.6543,5.6609,5.6609,5.6609,5.6609,5.6609,5.6609,5.6609,5.6609,5.6609,5.6609,5.6609,5.6609,5.6609,5.6609,5.6609,5.6609,5.6609,5.6609,5.6609,5.6609,2.6687,2.8008,2.9043,2.849,2.9858,3.1108,3.0234,2.9512,0.0,0.0,0.0,2.9733,3.1903,3.334,3.6416,4.3177,4.8515,5.2779,5.5516,5.7549,5.9784,6.2476,6.3576,6.445,6.5208,6.5559,6.5835,6.6065,6.609,6.609,6.609,6.609,6.5986,6.5685,6.5434,6.5179,6.4877,6.4877,6.3785,6.1595,6.047,5.8955,5.706,5.5938,5.5121,5.4721,0.0,5.5371,5.5229,5.3947,5.3655,5.3913,5.2096,5.1401,5.1401,5.1401,5.1401,5.1401,5.1401,5.1401,5.1401,5.1401,5.1401,5.1401,5.1401,5.1577,5.1875,5.2305,5.2266,5.2251,5.2915,5.3091,5.3189,5.3613,5.4808,5.5502,5.427,5.5128,5.5689,5.4278,5.4193,5.4375,5.4375,5.457,5.4785,5.498,5.5215,5.5462,5.5852,5.6106,5.6367,5.6589,5.6609,5.6609,5.6609,5.6609,5.6609,5.6609,5.6609,5.6609,5.6609,5.6609,5.6609,5.6609,5.6609,5.6609,5.6609,5.6609,5.6609,5.6609,5.6609,5.6609,2.6498,2.7506,2.8594,2.9205,0.0,3.2031,3.1957,0.0,0.0,0.0,0.0,3.2028,3.4574,3.7647,4.1691,4.7556,5.2105,5.5516,5.733,5.9012,6.0864,6.2952,6.3973,6.4752,6.5409,6.586,6.609,6.609,6.609,6.609,6.609,6.609,6.586,6.5329,6.5179,6.4852,6.4325,6.4174,6.3196,6.1405,6.1524,6.0546,5.8612,5.8746,5.8522,5.8052,5.8567,5.8571,5.8004,5.593,5.5194,5.5046,5.2439,5.1401,5.1401,5.1401,5.1401,5.1401,5.1401,5.1401,5.1401,5.1401,5.1401,5.1401,5.1401,5.1738,5.2168,5.2598,5.2558,5.2583,5.3345,5.3541,5.3638,5.392,5.5537,5.6427,5.4437,5.5588,5.6443,5.4524,5.4453,5.4733,5.4805,5.5098,5.5332,5.5449,5.5696,5.595,5.6048,5.6387,5.6609,5.6609,5.6609,5.6609,5.6609,5.6609,5.6609,5.6609,5.6609,5.6609,5.6609,5.6609,5.6609,5.6609,5.6609,5.6609,5.6609,5.6609,5.6609,5.6609,5.668,5.6738,2.8881,2.9082,2.9166,3.043,3.0288,0.0,3.2738,3.2309,0.0,3.3926,0.0,0.0,3.7389,4.3421,4.8481,4.9822,5.4709,5.856,5.9232,6.0763,6.2446,6.4174,6.4446,6.4902,6.5936,6.6086,6.609,6.609,6.609,6.609,6.609,6.609,6.586,6.5329,6.4827,6.43,6.3751,6.3203,6.2218,6.0861,6.1357,6.036,5.8074,5.8567,5.8545,5.812,5.859,5.954,6.045,5.6671,5.6152,5.7324,5.3066,5.1401,5.1401,5.1401,5.1401,5.1401,5.1401,5.1401,5.1401,5.1401,5.1401,5.1401,5.1401,5.1738,5.2168,5.2598,5.2994,5.3404,5.3822,5.3959,5.3959,5.3998,5.4151,5.4227,5.4049,5.4151,5.4345,5.4602,5.4694,5.483,5.5195,5.5293,5.5449,5.5813,5.5891,5.6048,5.6484,5.6562,5.6609,5.6609,5.6609,5.6609,5.6609,5.6609,5.6609,5.6609,5.6609,5.6609,5.6609,5.6609,5.6609,5.6609,5.6609,5.6609,5.6609,5.6609,5.6609,5.6628,5.6992,5.7168,2.7812,2.8424,2.9146,3.0195,0.0,0.0,0.0,3.4082,3.4749,3.635,3.7949,0.0,4.3615,4.8731,5.2774,5.3771,5.7168,6.0016,6.0939,6.1592,6.2496,6.3847,6.43,6.4777,6.5534,6.5889,6.609,6.609,6.609,6.609,6.609,6.609,6.586,6.5329,6.4777,6.44,6.4199,6.3973,6.361,6.3094,6.3315,6.2502,6.0871,6.2551,6.3064,6.2604,6.3137,6.2593,6.1161,5.85,5.6929,5.5893,5.266,5.1401,5.1401,5.1401,5.1401,5.1401,5.1401,5.1401,5.1401,5.1401,5.1401,5.146,5.1758,5.2129,5.2558,5.3013,5.3437,5.3808,5.3959,5.3998,5.3998,5.3998,5.5234,5.5971,5.4355,5.5259,5.6087,5.4925,5.4883,5.5195,5.5599,5.5918,5.6152,5.6308,5.6348,5.6406,5.6589,5.6609,5.6609,5.6609,5.6609,5.6609,5.6609,5.6609,5.6609,5.6609,5.6609,5.6609,5.6609,5.6609,5.6609,5.6609,5.6609,5.6609,5.6609,5.6855,5.6973,5.6992,5.7449,5.7644,2.75,2.8053,2.8951,2.9941,0.0,0.0,3.4723,3.5996,3.7344,3.918,4.1531,4.4401,4.8039,5.1922,5.4956,5.6043,5.8679,6.0914,6.1868,6.2144,6.2621,6.3576,6.4174,6.4626,6.5003,6.5685,6.6036,6.586,6.599,6.609,6.609,6.609,6.586,6.5329,6.4777,6.44,6.4249,6.4249,6.4325,6.4496,6.4496,6.4101,6.3467,6.5254,6.5911,6.5517,6.4959,6.3673,6.1658,5.8682,5.607,5.3832,5.2936,5.2109,5.1401,5.1401,5.1401,5.1401,5.1401,5.1401,5.1401,5.1401,5.1401,5.1499,5.1953,5.2383,5.2793,5.3267,5.4285,5.5209,5.5209,5.5209,5.5436,5.6227,5.7182,5.7406,5.5638,5.6117,5.6492,5.5147,5.5215,5.5618,5.6048,5.6387,5.6609,5.6609,5.6609,5.6609,5.6609,5.6609,5.6609,5.6609,5.6609,5.6609,5.6609,5.6609,5.664,5.6777,5.666,5.6609,5.6609,5.6609,5.6609,5.6609,5.6719,5.6777,5.6777,5.7207,5.7422,5.7422,5.7879,5.8086,2.8529,2.8314,2.8613,2.9902,0.0,0.0,3.6562,3.8024,3.9528,4.2581,4.5102,4.7494,4.9831,5.2656,5.4981,5.6068,5.9006,6.1411,6.1943,6.2476,6.3028,6.3626,6.4174,6.4496,6.4496,6.5459,6.5886,6.5333,6.581,6.609,6.609,6.609,6.586,6.5329,6.4777,6.4224,6.3701,6.3701,6.3973,6.4496,6.4496,6.4777,6.5329,6.5835,6.6065,6.5932,6.306,6.208,6.2088,5.67,5.3297,5.1693,5.4117,5.3566,5.1401,5.1401,5.1401,5.1401,5.1401,5.1401,5.1401,5.1401,5.1401,5.1499,5.2002,5.2432,5.2843,5.3343,5.5631,5.7931,5.7981,5.7981,5.8602,6.1074,5.9734,5.7882,5.7857,5.6209,5.483,5.5234,5.5618,5.6048,5.6504,5.6609,5.6609,5.6609,5.6609,5.6609,5.6609,5.6609,5.6609,5.6609,5.6609,5.6609,5.6609,5.6582,5.6777,5.7187,5.6816,5.6628,5.6628,5.6609,5.6609,5.6609,5.6992,5.7207,5.7207,5.7683,5.7926,5.7926,5.832,5.8507,2.7617,2.8496,2.9941,3.1265,3.3926,3.6894,0.0,4.1178,0.0,0.0,5.1524,5.232,5.41,5.5796,5.7148,5.7832,5.9784,6.1517,6.2425,6.2701,6.2877,6.3053,6.3576,6.4099,6.445,6.5128,6.5634,6.586,6.599,6.5936,6.5559,6.5534,6.5283,6.4752,6.4224,6.3873,6.3701,6.3701,6.3776,6.3948,6.4325,6.4777,6.5283,6.5078,6.4978,6.4935,6.4055,6.2988,6.1502,5.6827,5.4541,5.3903,5.2892,5.2041,5.1401,5.1401,5.1401,5.1401,5.1401,5.1401,5.1401,5.1401,5.1401,5.1859,5.4483,5.535,5.5963,5.8526,5.9872,6.1001,6.2826,6.3325,6.2588,5.971,5.8454,5.7489,5.599,5.5162,5.4883,5.5579,5.5813,5.6048,5.6504,5.6609,5.6609,5.6609,5.6609,5.6609,5.6609,5.6609,5.6609,5.6609,5.6609,5.6609,5.6609,5.6855,5.707,5.718,5.741,5.7371,5.7051,5.6738,5.6609,5.6609,5.6992,5.7207,5.7207,5.7969,5.832,5.8332,5.8769,5.9004,2.8281,2.9355,3.0957,3.2965,3.5449,3.8477,4.2574,4.4737,4.7668,5.3979,5.4507,5.4452,5.6501,5.7449,5.8152,5.8905,6.0412,6.1818,6.2676,6.2802,6.2802,6.2802,6.335,6.3726,6.3802,6.4705,6.5333,6.5459,6.566,6.5634,6.5329,6.5103,6.4827,6.4521,6.3973,6.3701,6.3701,6.3701,6.3701,6.3701,6.4023,6.435,6.4655,6.4777,6.4701,6.4459,6.368,6.204,5.9727,5.7494,5.5987,5.495,5.3447,5.2258,5.1523,5.2503,5.2234,5.1547,5.2527,5.221,5.1571,5.2551,5.2888,5.351,5.7022,5.8066,5.8595,6.1002,6.2444,6.361,6.5187,6.6353,6.6074,6.1941,6.0174,5.8829,5.6665,5.6393,5.6405,5.5985,5.6906,5.7507,5.6737,5.6609,5.6609,5.6609,5.6609,5.6609,5.6609,5.6609,5.6609,5.6609,5.6609,5.6609,5.6609,5.6973,5.7285,5.7461,5.7742,5.784,5.7734,5.7324,5.7117,5.7117,5.7519,5.7734,5.7734,5.8437,5.8769,5.8769,5.9062,5.9207,2.9687,3.0542,3.1812,3.4821,3.6654,3.9418,4.6004,4.8616,5.0906,5.5312,5.5148,5.5009,5.7568,5.8077,5.8453,5.9483,6.0964,6.2195,6.2706,6.2802,6.2802,6.2802,6.3279,6.3425,6.2927,6.4254,6.4978,6.4547,6.4953,6.5204,6.5179,6.4701,6.44,6.435,6.3873,6.3626,6.3626,6.3626,6.3626,6.3626,6.3626,6.3626,6.3651,6.463,6.4802,6.427,6.2592,6.0253,5.767,5.8479,5.7339,5.5094,5.5094,5.3733,5.2012,5.4284,5.3685,5.2036,5.4046,5.3299,5.1818,5.4284,5.5094,5.5781,5.9511,6.0644,6.0894,6.2055,6.4107,6.5934,6.5934,6.7669,6.8745,6.6214,6.3823,6.154,5.9389,5.9149,5.8766,5.6701,5.8426,5.9451,5.7016,5.6609,5.6609,5.6609,5.6609,5.6609,5.6609,5.6609,5.6609,5.6609,5.6609,5.6609,5.6609,5.7012,5.7441,5.7879,5.7984,5.8172,5.8566,5.8144,5.7898,5.7898,5.8301,5.8507,5.8507,5.8973,5.9207,5.9207,5.9207,5.9207,2.8549,3.0508,3.3105,3.6133,4.1147,4.6356,5.0262,5.2982,5.4947,5.5988,5.7277,5.8437,5.9054,5.9508,5.9991,6.0733,6.1492,6.2195,6.2706,6.2802,6.2802,6.2802,6.2927,6.3128,6.3475,6.3827,6.4174,6.4496,6.4622,6.45,6.4073,6.3927,6.3651,6.3178,6.3053,6.3003,6.3003,6.3003,6.3003,0.0,6.3003,6.3003,6.3003,6.3229,6.3279,6.3183,6.3676,6.2422,5.999,5.9159,5.7339,5.5094,5.5094,5.4761,5.4379,5.4903,5.4761,5.4094,5.2696,5.1843,5.1818,5.4284,5.5094,5.6134,6.1626,6.3284,6.391,6.6892,6.8151,6.8585,6.8585,6.8996,6.8745,6.6214,6.5495,6.478,6.2642,6.0954,5.9788,5.9621,5.8439,5.7282,5.6689,5.6609,5.6609,5.6609,5.6609,5.6609,5.6609,5.6609,5.6609,5.6609,5.6609,5.6609,5.6609,5.7312,5.7808,5.7879,5.8524,5.8945,5.9062,5.8317,5.7898,5.7898,5.8301,5.8507,5.8507,5.8973,5.9207,5.9207,5.9207,5.9207,2.9277,3.1582,3.4391,3.8437,4.3765,4.841,5.0007,5.3401,5.6195,5.6215,5.8143,5.9885,5.9885,6.0563,6.1215,6.1517,6.2044,6.2476,6.2777,6.2802,6.2802,6.2802,6.2802,6.2927,6.3229,6.3525,6.3822,6.4099,6.4124,6.3998,6.3701,6.3425,6.3128,6.2827,6.2802,6.2802,6.2802,6.2802,6.2802,6.2802,6.2802,6.2802,6.2802,6.2802,6.2952,6.3254,6.3873,6.2746,6.0397,5.8998,5.7657,5.6435,5.548,5.5823,5.6874,5.6874,5.6128,5.4926,5.3614,5.318,5.3566,5.6058,5.7664,5.9543,6.4407,6.5873,6.634,6.8717,6.9406,6.9406,6.9406,6.9406,6.9064,6.7737,6.69,6.5801,6.3655,6.2517,6.1658,6.0763,5.9477,5.8097,5.6822,5.6609,5.6609,5.6609,5.6609,5.6609,5.6609,5.6609,5.666,5.6855,5.6894,5.6973,5.7195,5.782,5.8203,5.8203,5.8828,5.9207,5.9207,5.8758,5.8524,5.8524,5.8711,5.8828,5.8828,5.9062,5.9207,5.9207,5.9207,5.9207,2.981,3.2598,3.5739,4.0762,4.5412,4.8806,4.904,5.3002,5.6661,5.6753,5.8596,6.0166,6.0166,6.109,6.1868,6.1868,6.2375,6.2802,6.2802,6.2802,6.2802,6.2802,6.2802,6.2802,6.2802,6.3229,6.355,6.355,6.355,6.355,6.355,6.3078,6.2802,6.2802,6.2802,6.2802,6.2802,6.2802,6.2802,6.2802,6.2802,6.2802,6.2802,6.2802,6.3078,6.355,6.3651,6.2352,6.0079,5.8942,5.8323,5.7961,5.671,5.7552,5.9385,5.8951,5.7757,5.6247,5.54,5.5377,5.6151,5.863,6.0836,6.3172,6.6714,6.7794,6.802,6.908,6.9406,6.9406,6.9406,6.9406,6.9406,6.9406,6.8273,6.6725,6.4945,6.4321,6.3568,6.1666,6.0557,5.9189,5.6989,5.6609,5.6609,5.6609,5.6609,5.6609,5.6609,5.6609,5.6738,5.7168,5.7207,5.7383,5.7867,5.8262,5.8507,5.8507,5.8945,5.9207,5.9207,5.9207,5.9207,5.9207,5.9207,5.9207,5.9207,5.9207,5.9207,5.9207,5.9207,5.9207,2.724,3.1875,3.74,4.1836,4.6724,5.0794,5.1999,5.5426,5.8508,5.8957,5.9339,5.9608,5.9608,6.0537,6.1311,6.1311,6.2144,6.2802,6.2802,6.2802,6.2802,6.2802,6.2802,6.2802,6.2802,6.2877,6.2927,6.2927,6.2927,6.2927,6.2927,6.2852,6.2802,6.2802,6.2802,6.2802,6.2802,6.2802,6.2802,6.2802,6.2802,6.2802,6.2802,6.2802,6.2852,6.2952,6.3475,6.231,6.0032,6.0322,5.9477,5.8188,6.0028,6.1243,6.1733,5.959,5.9954,6.0902,5.6597,5.6525,5.8722,6.1195,6.2225,6.3172,6.6714,6.7794,6.802,6.908,6.9406,6.9406,6.9406,6.9406,6.9406,6.9406,6.9953,7.0403,7.0104,6.7165,6.4516,6.4205,6.0344,5.7016,5.6662,5.6609,5.6609,5.6609,5.6609,5.6609,5.6609,5.6609,5.6738,5.7168,5.7207,5.7383,5.7867,5.8262,5.8507,5.8507,5.8945,5.9207,5.9207,5.9207,5.9207,5.9207,5.9207,5.9207,5.9207,5.9207,5.9207,5.9207,5.9207,5.9207,2.9883,3.4932,4.0078,4.4249,4.9148,5.3114,5.3743,5.6628,5.9131,5.9081,5.9282,5.9583,5.991,6.0889,6.1642,6.1642,6.23,6.2802,6.2802,6.2802,6.2802,6.2802,6.2802,6.2802,6.2802,6.2802,6.2802,6.2802,6.2802,6.2802,6.2802,6.2802,6.2802,6.2802,6.2501,6.235,6.235,6.2049,6.2049,6.235,6.235,6.2501,6.2802,6.2802,6.2802,6.2807,6.3078,6.1843,5.9668,6.0148,5.9897,5.9392,6.0985,6.2593,6.3798,6.1661,6.1554,6.1978,5.8402,5.8791,6.1061,6.2158,6.34,6.4939,6.7135,6.7794,6.802,6.908,6.9406,6.9406,6.9406,6.9406,6.9406,6.9406,7.0257,7.1106,7.1106,6.7721,6.3796,6.076,5.823,5.6609,5.6609,5.6609,5.6609,5.6609,5.6609,5.6609,5.6609,5.6609,5.6836,5.7527,5.7578,5.7879,5.8582,5.8769,5.8887,5.8887,5.909,5.9207,5.9207,5.9207,5.9207,5.9207,5.9207,5.9207,5.9207,5.9207,5.9207,5.9207,5.9207,5.9207,3.1191,3.5505,3.9528,4.4403,4.9211,5.3097,5.4382,5.6973,5.9056,5.8911,5.9232,5.9608,6.0016,6.0894,6.1567,6.1567,6.2024,6.2425,6.2576,6.2601,6.2651,6.2802,6.2802,6.2802,6.2802,6.2802,6.2802,6.2802,6.2802,6.2802,6.2802,6.2802,6.2752,6.2601,6.2199,6.1943,6.1793,6.1411,6.1411,6.1793,6.1793,6.2094,6.2601,6.2601,6.2676,6.2802,6.2802,6.1804,6.0218,6.0586,6.0848,6.1174,6.2003,6.3544,6.5057,6.3185,6.2892,6.3069,6.0587,6.1352,6.34,6.34,6.4729,6.6513,6.7493,6.7894,6.8221,6.913,6.9406,6.9406,6.9406,6.9406,6.9406,6.9406,7.0257,7.0786,6.9698,6.6961,6.3084,5.7661,5.6609,5.6609,5.6609,5.6609,5.6609,5.6609,5.6609,5.6609,5.6609,5.668,5.7058,5.782,5.7996,5.8348,5.9121,5.9207,5.9207,5.9207,5.9207,5.9207,5.9207,5.9207,5.9207,5.9207,5.9207,5.9207,5.9207,5.9207,5.9207,5.9207,5.9207,5.9207,2.8092,3.0267,3.3103,4.0052,4.48,4.8959,5.3557,5.6371,5.8252,5.9257,5.9483,5.9508,5.9533,6.001,6.0392,6.0392,6.0889,6.1441,6.1969,6.2044,6.2225,6.2752,6.2802,6.2802,6.2802,6.2802,6.2802,6.2802,6.2802,6.2802,6.2802,6.2802,6.2576,6.2069,6.2019,6.1743,6.126,6.121,6.121,6.1235,6.1235,6.1517,6.2044,6.2044,6.2325,6.2802,6.2802,6.272,6.2618,6.2643,6.2989,6.356,6.4132,6.4747,6.5057,6.3185,6.3951,6.557,6.3157,6.3885,6.5918,6.5918,6.6377,6.7062,6.7618,6.817,6.8675,6.923,6.9406,6.9406,6.9406,6.9406,6.9406,6.9406,7.0257,6.9978,6.5912,6.4863,6.3084,5.7661,5.6609,5.6609,5.6609,5.6609,5.6609,5.6609,5.6609,5.6609,5.6609,5.6933,5.7363,5.7867,5.8242,5.8683,5.9149,5.9207,5.9207,5.9207,5.9207,5.9207,5.9207,5.9207,5.9207,5.9207,5.9207,5.9207,5.9207,5.9207,5.9207,5.9207,5.9207,5.9207,2.768,3.1647,3.6329,4.0566,4.5803,5.0631,5.3395,5.6035,5.8001,5.8403,5.8755,5.9106,5.9433,5.996,6.0292,6.0292,6.0814,6.1386,6.1918,6.1994,6.2199,6.2752,6.2802,6.2676,6.2325,6.2275,6.2124,6.1793,6.1768,6.1768,6.1768,6.1768,6.1692,6.1492,6.1115,6.0663,6.0111,6.0111,6.0286,6.0638,6.0638,6.1115,6.1994,6.1994,6.2275,6.2802,6.2802,6.2802,6.2802,6.2802,6.3153,6.3751,6.4274,6.4827,6.5273,6.4936,6.5375,6.5983,6.5112,6.5372,6.614,6.6538,6.6836,6.7163,6.8045,6.845,6.8726,6.9255,6.9406,6.9406,6.9406,6.9679,7.0154,7.0834,7.1334,7.0824,6.7898,6.5913,6.3084,5.7661,5.6609,5.6609,5.6609,5.6609,5.6609,5.6609,5.6816,5.6992,5.6992,5.7363,5.7793,5.8242,5.8418,5.8683,5.9149,5.9207,5.9207,5.9207,5.9207,5.9207,5.9207,5.9207,5.9207,5.9207,5.9207,5.9207,5.9207,5.9207,5.9207,5.9207,5.9207,5.9207,2.7549,3.162,3.6667,4.0734,4.4599,4.8594,5.3002,5.5013,5.6219,5.7148,5.8058,5.8811,5.9182,5.9684,6.0035,6.0035,6.0362,6.0833,6.1366,6.1421,6.1642,6.2199,6.225,6.2119,6.1768,6.1718,6.1567,6.1235,6.121,0.0,6.121,6.121,6.111,6.0889,6.0337,5.9859,5.9483,5.9483,5.9684,6.0035,6.0035,6.0638,6.1718,6.1718,6.2119,6.2802,6.2802,6.2802,6.2802,6.2802,6.3153,6.3751,6.4274,6.4827,6.5358,6.5911,6.609,6.609,6.609,6.609,6.6212,6.6811,6.7113,6.7439,6.8324,6.8726,6.8929,6.9306,6.9406,6.9406,6.9406,6.9853,7.0554,7.1636,7.1912,7.1308,6.914,6.6585,6.3364,5.8816,5.7229,5.6609,5.6609,5.6609,5.6667,5.6777,5.7031,5.7265,5.7402,5.782,5.8203,5.8476,5.8625,5.8859,5.918,5.9207,5.9207,5.9207,5.9207,5.9207,5.9207,5.9207,5.9207,5.9207,5.9207,5.9207,5.9207,5.9207,5.9207,5.9207,5.9207,5.9207,0.0,0.0,0.0,3.9907,4.0679,4.2343,5.2062,5.3047,5.2703,5.5523,5.738,5.8535,5.866,5.9106,5.9458,5.9458,5.9483,5.9684,6.0217,6.0292,6.0518,6.1135,6.121,6.1185,6.1185,6.1185,6.116,6.116,6.116,6.116,6.116,6.116,6.0864,6.0292,5.9784,5.9483,5.9483,5.9483,5.9483,5.9483,5.9483,6.0105,6.121,6.121,6.1793,6.2802,6.2802,6.2802,6.2802,6.2802,6.3153,6.3751,6.4274,6.4827,6.5358,6.5911,6.609,6.609,6.609,6.609,6.6212,6.6836,6.7389,6.7894,6.845,6.9002,6.9406,6.9406,6.9406,6.9406,6.9431,6.9878,7.0579,7.1661,7.1937,7.1356,6.9285,6.6709,6.3977,6.1132,5.852,5.6689,5.6609,5.6628,5.6738,5.7148,5.7199,5.7402,5.7867,5.8262,5.8507,5.8507,5.8945,5.9207,5.9207,5.9207,5.9207,5.9207,5.9207,5.9207,5.9207,5.9207,5.9207,5.9207,5.9207,5.9207,5.9207,5.9207,5.9207,5.9207,5.9207,5.9207,2.8844,0.0,0.0,0.0,0.0,0.0,4.5223,4.6793,4.856,5.2912,5.3866,5.4787,5.76,5.8252,5.8478,5.8861,5.9257,5.9684,6.0217,6.0292,6.0518,6.1135,6.121,6.1034,6.0588,6.0563,6.0387,0.0,5.996,5.996,5.996,5.996,5.9885,5.9734,5.9583,5.9483,5.9483,5.9483,5.9483,5.9483,5.9483,6.0105,6.121,6.121,6.1793,6.2802,6.2802,6.2802,6.2802,6.2802,6.3153,6.3751,6.4274,6.4827,6.5358,6.5911,6.609,6.609,6.609,6.609,6.6241,6.7267,6.7668,6.797,6.8901,6.928,6.9406,6.9406,6.9406,6.9582,7.043,7.0732,7.1156,7.2215,7.2466,7.2327,7.1715,6.9502,6.6212,6.1519,6.0005,5.8868,5.6936,5.6836,5.707,5.716,5.7734,5.8203,5.832,5.8711,5.9004,5.9004,5.9121,5.9207,5.9207,5.9207,5.9207,5.9207,5.9207,5.9207,5.9207,5.9207,5.9207,5.9207,5.9207,5.9207,5.9207,5.9207,5.9207,5.9207,5.9207,5.9207,0.0,0.0,0.0,0.0,0.0,0.0,4.3689,4.4583,4.5849,5.0829,5.2335,5.3532,5.6061,5.7072,5.7631,5.7957,5.8459,5.9106,5.9859,5.9985,6.0111,6.0457,6.0487,6.0337,6.001,5.9985,5.9834,5.9508,5.9483,5.9483,5.9483,5.9483,5.9483,5.9483,5.9483,5.9483,5.9483,5.9483,5.9483,5.9483,5.9483,6.0105,6.121,6.121,6.1793,6.2802,6.2802,6.2802,6.2802,6.2802,6.3299,6.4073,6.4396,6.4953,6.566,6.5965,6.609,6.609,6.609,6.609,6.6287,6.7442,6.7794,6.7995,6.9055,6.9406,6.9406,6.9406,6.9406,6.9657,7.0807,7.1106,7.1359,7.2441,7.2717,7.2717,7.2717,7.1453,6.909,6.4813,6.3087,6.1803,6.024,5.9393,5.8981,5.9135,5.8785,5.8566,5.8769,5.9032,5.9207,5.9207,5.9207,5.9207,5.9207,5.9207,5.9207,5.9207,5.9207,5.9207,5.9207,5.9207,5.9207,5.9207,5.9207,5.9207,5.9207,5.9207,5.9207,5.9207,5.9207,5.9207,3.3565,3.5515,0.0,0.0,3.809,0.0,4.4338,4.4166,4.393,4.8535,5.1147,5.2879,5.3793,5.5214,5.6257,5.6257,5.6979,5.7976,5.9232,5.9408,5.9433,5.9483,5.9483,5.9483,5.9483,5.9483,5.9483,5.9483,5.9483,5.9483,5.9483,5.9483,5.9483,5.9483,5.9483,5.9483,5.9483,5.9483,5.9483,5.9483,5.9483,6.0105,6.121,6.121,6.1793,6.2802,6.2802,6.2802,6.2802,6.2802,6.345,6.44,6.4496,6.5128,6.6036,6.6086,6.609,6.609,6.609,6.609,6.6287,6.7442,6.7794,6.7995,6.9055,6.9406,6.9406,6.9406,6.9406,6.9657,7.0807,7.1106,7.1359,7.2441,7.2717,7.2717,7.2717,7.2717,7.2003,6.9623,6.6981,6.5059,6.4757,6.3109,6.1853,6.1883,6.0259,5.9091,5.9196,5.9207,5.9207,5.9207,5.9207,5.9207,5.9207,5.9207,5.9207,5.9207,5.9207,5.9207,5.9207,5.9207,5.9207,5.9207,5.9207,5.9207,5.9207,5.9207,5.9207,5.9207,5.9207,5.9207,3.7028,3.8102,3.9007,3.8077,0.0,0.0,3.8028,3.9107,4.0991,4.3316,4.4834,4.6577,4.9405,5.0896,5.1682,5.1682,5.3683,5.6086,5.8529,5.8861,5.9012,5.9433,5.9483,5.9483,5.9483,5.9483,5.9483,5.9483,5.9483,5.9483,5.9483,5.9483,5.9483,5.9483,5.9483,5.9483,5.9483,5.9483,5.9483,5.9483,5.9483,6.0105,6.121,6.121,6.1793,6.2802,6.2802,6.2802,6.2802,6.2802,6.3224,6.3898,6.4325,6.4902,6.5509,6.5936,6.609,6.609,6.609,6.609,6.6287,6.7442,6.7794,6.7995,6.9055,6.9406,6.9406,6.9406,6.9406,6.9657,7.0807,7.1106,7.1359,7.2441,7.2717,7.2717,7.2717,7.2717,7.255,7.2026,6.9745,6.7228,6.5061,6.4964,6.442,6.2217,6.2196,6.1652,5.9467,5.9207,5.9207,5.9207,5.9207,5.9207,5.9207,5.9207,5.9207,5.9207,5.9207,5.9207,5.9207,5.9207,5.9207,5.9207,5.9207,5.9207,5.9207,5.9207,5.9207,5.9207,5.9207,5.9207,3.8541,3.9245,4.0023,3.9773,0.0,0.0,0.0,3.8843,3.9647,4.2423,4.3201,4.4181,4.6692,4.7807,4.8636,4.9464,5.149,5.3625,5.5548,5.7255,5.8403,5.8679,5.8704,5.8805,5.9081,5.9106,5.9207,5.9483,5.9483,5.9483,5.9483,5.9483,5.9483,5.9483,5.9483,5.9483,5.9483,5.9483,5.9483,5.9483,5.9483,6.0105,6.121,6.121,6.1793,6.2802,6.2802,6.2802,6.2802,6.2802,6.3324,6.4124,6.4396,6.5003,6.5735,6.599,6.609,6.609,6.609,6.6312,6.6689,6.7518,6.7995,6.8349,6.9177,6.9406,6.9406,6.9406,6.9406,6.9657,7.0807,7.1106,7.1359,7.2441,7.2717,7.2717,7.2717,7.2717,7.2717,7.2717,7.1621,7.0276,6.8919,6.839,6.7192,6.4373,6.3633,6.2391,5.9559,5.9207,5.9207,5.9207,5.9207,5.9207,5.9207,5.9207,5.9207,5.9207,5.9207,5.9207,5.9207,5.9207,5.9207,5.9207,5.9207,5.9207,5.9207,5.9207,5.9207,5.9207,5.9207,5.9207,0.0,0.0,0.0,0.0,0.0,3.9973,0.0,0.0,0.0,4.1982,4.2448,4.2799,4.4281,4.497,4.5784,4.7145,4.8953,5.0535,5.1507,5.4235,5.6369,5.7022,5.7374,5.775,5.8183,5.8033,5.8278,5.9131,5.888,5.8905,5.9332,5.9433,5.9483,5.9483,5.9483,5.9483,5.9483,5.9483,5.9483,5.9483,5.9483,6.0105,6.121,6.121,6.1793,6.2802,6.2802,6.2802,6.2802,6.2802,6.3475,6.4496,6.4496,6.5153,6.609,6.609,6.609,6.609,6.609,6.6488,6.7087,6.7618,6.8224,6.8826,6.9255,6.9406,6.9406,6.9406,6.9406,6.9657,7.0807,7.1106,7.1359,7.2441,7.2717,7.2717,7.2717,7.2717,7.2717,7.2717,7.2717,7.2717,7.2717,7.176,7.0069,6.7241,6.5312,6.3188,6.0365,5.9543,5.9207,5.9207,5.9207,5.9207,5.9207,5.9207,5.9207,5.9207,5.9207,5.9207,5.9207,5.9207,5.9207,5.9207,5.9207,5.9207,5.9207,5.9207,5.9207,5.9207,5.9207,5.9238,0.0,0.0,0.0,0.0,4.3761,0.0,0.0,0.0,0.0,3.8253,0.0,4.0288,4.0939,0.0,0.0,4.213,4.4418,4.6366,4.6979,4.8677,5.0912,5.3833,5.5491,5.6401,5.6477,5.5616,5.591,5.7926,5.6714,5.6721,5.8685,5.9257,5.9483,5.9483,5.9483,5.9483,5.9483,5.9483,5.9483,5.9483,5.9483,6.0105,6.121,6.121,6.1793,6.2802,6.2802,6.2802,6.2802,6.2802,6.3475,6.4496,6.4496,6.5153,6.609,6.609,6.609,6.609,6.609,6.6488,6.7087,6.7618,6.8475,6.9306,6.9381,6.9406,6.9406,6.9406,6.9406,6.9657,7.0807,7.1106,7.1359,7.2441,7.2717,7.2717,7.2717,7.2717,7.2717,7.2717,7.2717,7.2717,7.2717,7.3381,7.2961,7.0169,6.8238,6.611,6.3297,6.0741,5.9207,5.9207,5.9207,5.9207,5.9207,5.9207,5.9207,5.9207,5.9207,5.9207,5.9207,5.9207,5.9207,5.9207,5.9207,5.9207,5.9207,5.9207,5.9207,5.9207,5.9207,5.9386,0.0,0.0,0.0,0.0,0.0,0.0,3.8981,0.0,3.8504,0.0,0.0,0.0,0.0,0.0,0.0,0.0,4.2171,0.0,4.3894,4.5321,4.7707,5.1356,5.1548,0.0,5.364,5.3984,5.4881,5.6771,5.5684,5.591,5.8127,5.8736,5.9182,5.9483,5.9483,5.9483,5.9483,5.9483,5.9483,5.9483,5.9483,6.0105,6.121,6.121,6.1793,6.2802,6.2802,6.2802,6.2802,6.2802,6.3475,6.4496,6.4496,6.5153,6.609,6.609,6.609,6.609,6.609,6.6689,6.7593,6.845,6.9029,6.9406,6.9406,6.9406,6.9406,6.9406,6.9654,7.0104,7.0905,7.1309,7.1761,7.2516,7.2717,7.2717,7.2717,7.2717,7.2717,7.2717,7.2717,7.2717,7.2717,7.3645,7.2887,6.8436,6.7668,6.5999,6.1535,5.9941,5.9207,5.9207,5.9207,5.9207,5.9207,5.9207,5.9207,5.9207,5.9207,5.9207,5.9207,5.9207,5.9207,5.9207,5.9207,5.9207,5.9207,5.9442,5.9559,5.9559,5.9559,5.9648,4.6361,0.0,0.0,0.0,0.0,0.0,0.0,0.0,0.0,0.0,0.0,0.0,0.0,0.0,0.0,0.0,0.0,4.1733,4.1733,4.2333,4.4177,4.7933,4.8093,0.0,0.0,5.1783,5.2837,5.5121,5.4009,5.4454,5.7273,5.8102,5.873,5.9257,5.9408,5.9483,5.9483,5.9483,5.9483,5.9483,5.9483,6.0105,6.121,6.121,6.1793,6.2802,6.2802,6.2802,6.2827,6.2978,6.3626,6.45,6.4651,6.5283,6.609,6.609,6.609,6.6115,6.6287,6.7091,6.817,6.908,6.9406,6.9406,6.9406,6.9406,6.9406,6.9406,6.9828,7.0426,7.0956,7.1485,7.2037,7.2566,7.2717,7.2717,7.2717,7.2717,7.2717,7.2717,7.2717,7.2717,7.2717,7.3645,7.2765,6.7878,6.7409,6.5839,6.0997,5.9682,5.9207,5.9207,5.9207,5.9207,5.9207,5.9207,5.9207,5.9207,5.9207,5.9207,5.9207,5.9207,5.9207,5.9207,5.9207,5.9238,5.9355,5.9676,5.9863,5.9952,5.9952,6.0039,0.0,0.0,0.0,4.3869,0.0,0.0,0.0,0.0,4.1188,0.0,0.0,0.0,0.0,0.0,0.0,0.0,0.0,0.0,0.0,3.9207,3.9471,4.2838,4.5999,4.857,0.0,4.8554,4.888,5.2737,5.0996,5.1649,5.6025,5.7323,5.8177,5.871,5.9232,5.9483,5.9483,5.9483,5.9483,5.9483,5.9483,6.0105,6.121,6.121,6.1793,6.2802,6.2802,6.2802,6.2852,6.3425,6.3998,6.4547,6.5078,6.5609,6.609,6.609,6.609,6.6187,6.6786,6.7668,6.8675,6.9205,6.9406,6.9406,6.9406,6.9406,6.9406,6.9406,6.9828,7.0426,7.0956,7.1485,7.2037,7.2566,7.2717,7.2717,7.2717,7.2717,7.2717,7.2717,7.2717,7.2717,7.2717,7.3645,7.3401,7.0494,6.8651,6.6535,6.3628,6.0907,5.9207,5.9207,5.9207,5.9207,5.9207,5.9207,5.9207,5.9207,5.9207,5.9207,5.9207,5.9207,5.9207,5.9207,5.9207,5.9386,5.9776,5.9776,6.0011,6.0372,6.0372,6.0625,0.0,0.0,5.2419,4.6828,0.0,0.0,0.0,0.0,0.0,0.0,0.0,0.0,0.0,0.0,0.0,0.0,0.0,0.0,0.0,0.0,0.0,3.9371,4.2649,4.502,4.5949,4.6672,4.8118,5.0528,5.0017,5.1214,5.4931,5.652,5.7581,5.8133,5.9031,5.9483,5.9483,5.9483,5.9483,5.9508,5.9859,6.0437,6.121,6.1567,6.2119,6.2802,6.2802,6.2802,6.2852,6.345,6.4023,6.4551,6.5103,6.5634,6.609,6.609,6.609,6.6237,6.7191,6.7995,6.8701,6.923,6.9406,6.9406,6.9406,6.9406,6.9406,6.9406,7.0104,7.088,7.1056,7.1761,7.2466,7.2666,7.2717,7.2717,7.2717,7.2717,7.2717,7.2717,7.2717,7.2145,7.0348,7.0907,7.0643,6.7853,6.5944,6.3791,6.0997,5.9802,5.9207,5.9207,5.9207,5.9207,5.9207,5.9207,5.9207,5.9207,5.9207,5.9207,5.9207,5.9207,5.9207,5.9207,5.9473,5.9659,5.9805,6.039,6.0742,6.0859,6.1133,6.1191,5.3264,5.4009,0.0,4.9373,4.8545,0.0,4.3087,0.0,0.0,0.0,0.0,0.0,0.0,0.0,0.0,0.0,0.0,0.0,0.0,3.5417,0.0,0.0,4.0162,4.2498,4.4242,4.4629,4.5934,4.8786,4.8083,4.9179,5.2922,5.5039,5.652,5.7273,5.8554,5.9307,5.9483,5.9483,5.9483,5.9508,6.0041,6.0613,6.121,6.1743,6.2275,6.2802,6.2802,6.2802,6.2877,6.3651,6.4199,6.4551,6.5283,6.581,6.609,6.609,6.6363,6.6815,6.7543,6.8274,6.8929,6.928,6.9406,6.9406,6.9406,6.9406,6.9406,6.9406,7.0207,7.1106,7.1106,7.1912,7.2717,7.2717,7.2717,7.2717,7.2717,7.2717,7.2717,7.2717,7.2717,7.2145,7.0421,7.0171,6.8917,6.5106,6.39,6.2391,5.9559,5.9207,5.9207,5.9207,5.9207,5.9207,5.9207,5.9207,5.9207,5.9207,5.9207,5.9207,5.9207,5.9207,5.9207,5.9207,5.959,5.9863,6.0011,6.0742,6.1181,6.1308,6.1572,6.1543]}]]